[[{"header":{"parameterUnit":"m.s-1","parameterCategory":1,"la1":30.6,"la2":29.2853,"lo1":-89.7004,"lo2":-87.6739,"dy":0.0162,"dx":0.0183,"nx":112,"ny":82,"refTime":"2024-05-01T12:00:00:Z","depth":0,"parameterNumber":2,"parameterNumberName":"U-component_of_WINDS"},"data":[0.0,0.0,0.0,0.0,0.0,0.0,0.0,0.0,0.0,0.0,0.0,0.0,0.0,0.0,0.0,0.0,0.0,0.0,0.0,0.0,0.0,0.0,0.0,0.0,0.0,0.0,0.0,0.0,0.0,0.0,0.0,0.0,0.0,0.0,0.0,0.0,0.0,0.0,0.0,0.0,0.0,0.0,0.0,0.0,0.0,0.0,0.0,0.0,0.0,0.0,0.0,0.0,0.0,0.0,0.0,0.0,0.0,0.0,0.0,0.0,0.0,0.0,0.0,0.0,0.0,0.0,0.0,0.0,0.0,0.0,0.0,0.0,0.0,0.0,0.0,0.0,0.0,0.0,0.0,0.0,0.0,0.0,0.0,0.0,0.0,0.0,0.0,0.0,0.0,0.0,-2.4276,-2.5353,-2.7372,-2.8489,-2.8148,-2.5953,-2.3909,-2.2291,0.0,0.0,0.0,0.0,0.0,0.0,0.0,0.0,0.0,0.0,0.0,0.0,0.0,0.0,0.0,0.0,0.0,0.0,0.0,0.0,0.0,0.0,0.0,0.0,0.0,0.0,0.0,0.0,0.0,0.0,0.0,0.0,0.0,0.0,0.0,0.0,0.0,0.0,0.0,0.0,0.0,0.0,0.0,0.0,0.0,0.0,0.0,0.0,0.0,0.0,0.0,0.0,0.0,0.0,0.0,0.0,0.0,0.0,0.0,0.0,0.0,0.0,0.0,0.0,0.0,0.0,0.0,0.0,0.0,0.0,0.0,0.0,0.0,0.0,0.0,0.0,0.0,0.0,0.0,0.0,0.0,0.0,0.0,0.0,0.0,0.0,0.0,0.0,0.0,0.0,0.0,0.0,0.0,0.0,0.0,0.0,0.0,0.0,0.0,0.0,0.0,0.0,0.0,0.0,-2.491,-2.6918,-2.7776,-2.7964,-2.7411,-2.5056,-2.3346,-2.2646,0.0,0.0,0.0,0.0,0.0,0.0,0.0,0.0,0.0,0.0,0.0,0.0,0.0,0.0,0.0,0.0,0.0,0.0,0.0,0.0,0.0,0.0,0.0,0.0,0.0,0.0,0.0,0.0,0.0,0.0,0.0,0.0,0.0,0.0,0.0,0.0,0.0,0.0,0.0,0.0,0.0,0.0,0.0,0.0,0.0,0.0,0.0,0.0,0.0,0.0,0.0,0.0,0.0,0.0,0.0,0.0,0.0,0.0,0.0,0.0,0.0,0.0,0.0,0.0,0.0,0.0,0.0,0.0,0.0,0.0,0.0,0.0,0.0,0.0,0.0,0.0,0.0,0.0,0.0,0.0,0.0,0.0,0.0,0.0,0.0,0.0,0.0,0.0,0.0,0.0,0.0,0.0,0.0,0.0,0.0,0.0,0.0,0.0,0.0,0.0,0.0,0.0,0.0,-2.398,-2.5904,-2.8129,-2.7952,-2.7619,-2.7435,-2.4744,-2.296,-2.2673,-1.9255,0.0,0.0,0.0,0.0,0.0,0.0,0.0,0.0,0.0,0.0,0.0,0.0,0.0,0.0,0.0,0.0,0.0,0.0,0.0,0.0,0.0,0.0,0.0,0.0,0.0,0.0,0.0,0.0,0.0,0.0,0.0,0.0,0.0,0.0,0.0,0.0,0.0,0.0,0.0,0.0,0.0,0.0,0.0,0.0,0.0,0.0,0.0,0.0,0.0,0.0,0.0,0.0,0.0,0.0,0.0,0.0,0.0,0.0,0.0,0.0,0.0,0.0,0.0,0.0,0.0,0.0,0.0,0.0,0.0,0.0,0.0,0.0,0.0,0.0,0.0,0.0,0.0,0.0,0.0,0.0,0.0,0.0,0.0,0.0,0.0,0.0,0.0,0.0,0.0,0.0,0.0,0.0,0.0,0.0,0.0,0.0,0.0,0.0,0.0,0.0,0.0,0.0,-2.5508,-2.67,-2.8581,-2.7821,-2.7188,-2.7257,-2.4524,-2.2735,-2.2506,-1.9171,0.0,0.0,0.0,0.0,0.0,0.0,0.0,0.0,0.0,0.0,0.0,0.0,0.0,0.0,0.0,0.0,0.0,0.0,0.0,0.0,0.0,0.0,0.0,0.0,0.0,0.0,0.0,0.0,0.0,0.0,0.0,0.0,0.0,0.0,0.0,0.0,0.0,0.0,0.0,0.0,0.0,0.0,0.0,0.0,0.0,0.0,0.0,0.0,0.0,0.0,0.0,0.0,0.0,0.0,0.0,0.0,0.0,0.0,0.0,0.0,0.0,0.0,0.0,0.0,0.0,0.0,0.0,0.0,0.0,0.0,0.0,0.0,0.0,0.0,0.0,0.0,0.0,0.0,0.0,0.0,0.0,0.0,0.0,0.0,0.0,0.0,0.0,0.0,0.0,0.0,0.0,0.0,0.0,0.0,0.0,0.0,0.0,0.0,0.0,0.0,0.0,0.0,-2.5989,-2.6945,-2.7725,-2.7172,-2.6612,-2.6328,-2.4143,-2.2622,-2.2245,-2.0159,0.0,0.0,0.0,0.0,0.0,0.0,0.0,0.0,0.0,0.0,0.0,0.0,0.0,0.0,0.0,0.0,0.0,0.0,0.0,0.0,0.0,0.0,0.0,0.0,0.0,0.0,0.0,0.0,0.0,0.0,0.0,0.0,0.0,0.0,0.0,0.0,0.0,0.0,0.0,0.0,0.0,0.0,0.0,0.0,0.0,0.0,0.0,0.0,0.0,0.0,0.0,0.0,0.0,0.0,0.0,0.0,0.0,0.0,0.0,0.0,0.0,0.0,0.0,0.0,0.0,0.0,0.0,0.0,0.0,0.0,0.0,0.0,0.0,0.0,0.0,0.0,0.0,0.0,0.0,0.0,0.0,0.0,0.0,0.0,0.0,0.0,0.0,0.0,0.0,0.0,0.0,0.0,0.0,0.0,0.0,0.0,0.0,0.0,0.0,0.0,0.0,0.0,-2.5716,-2.6428,0.0,-2.6271,-2.5901,-2.607,-2.4006,-2.2634,-2.252,0.0,0.0,0.0,0.0,0.0,0.0,0.0,0.0,0.0,0.0,0.0,0.0,0.0,0.0,0.0,0.0,0.0,0.0,0.0,0.0,0.0,0.0,0.0,0.0,0.0,0.0,0.0,0.0,0.0,0.0,0.0,0.0,0.0,0.0,0.0,0.0,0.0,0.0,0.0,0.0,0.0,0.0,0.0,0.0,0.0,0.0,0.0,0.0,0.0,0.0,0.0,0.0,0.0,0.0,0.0,0.0,0.0,0.0,0.0,0.0,0.0,0.0,0.0,0.0,0.0,0.0,0.0,0.0,0.0,0.0,0.0,0.0,0.0,0.0,0.0,0.0,0.0,0.0,0.0,0.0,0.0,0.0,0.0,0.0,0.0,0.0,0.0,0.0,0.0,0.0,0.0,0.0,0.0,0.0,0.0,0.0,0.0,0.0,0.0,0.0,0.0,0.0,-2.463,-2.5455,-2.5979,0.0,-2.5623,-2.5312,-2.5599,-2.3849,-2.2657,-2.24,0.0,0.0,0.0,0.0,0.0,0.0,0.0,0.0,0.0,0.0,0.0,0.0,0.0,0.0,0.0,0.0,0.0,0.0,0.0,0.0,0.0,0.0,0.0,0.0,0.0,0.0,0.0,0.0,0.0,0.0,0.0,0.0,0.0,0.0,0.0,0.0,0.0,0.0,0.0,0.0,0.0,0.0,0.0,0.0,0.0,0.0,0.0,0.0,0.0,0.0,0.0,0.0,0.0,0.0,0.0,0.0,0.0,0.0,0.0,0.0,0.0,0.0,0.0,0.0,0.0,0.0,0.0,0.0,0.0,0.0,0.0,0.0,0.0,0.0,0.0,0.0,0.0,0.0,0.0,0.0,0.0,0.0,0.0,0.0,0.0,0.0,0.0,0.0,0.0,0.0,0.0,0.0,0.0,0.0,0.0,0.0,0.0,0.0,0.0,0.0,0.0,0.0,-2.459,-2.53,-2.5623,-2.5486,-2.5173,-2.494,-2.4814,-2.374,-2.2716,0.0,0.0,0.0,0.0,0.0,0.0,0.0,0.0,0.0,0.0,0.0,0.0,0.0,0.0,0.0,0.0,0.0,0.0,0.0,0.0,0.0,0.0,0.0,0.0,0.0,0.0,0.0,0.0,0.0,0.0,0.0,0.0,0.0,0.0,0.0,0.0,0.0,0.0,0.0,0.0,0.0,0.0,0.0,0.0,0.0,0.0,0.0,0.0,0.0,0.0,0.0,0.0,0.0,0.0,0.0,0.0,0.0,0.0,0.0,0.0,0.0,0.0,0.0,0.0,0.0,0.0,0.0,0.0,0.0,0.0,0.0,0.0,0.0,0.0,0.0,0.0,0.0,0.0,0.0,0.0,0.0,0.0,0.0,0.0,0.0,0.0,0.0,0.0,0.0,0.0,0.0,0.0,0.0,0.0,0.0,0.0,0.0,0.0,0.0,0.0,0.0,0.0,0.0,-2.4388,-2.4668,-2.4688,-2.4604,-2.4221,-2.414,-2.462,-2.3493,-2.2529,-2.2009,0.0,0.0,0.0,0.0,0.0,0.0,0.0,0.0,0.0,0.0,0.0,0.0,0.0,0.0,0.0,0.0,0.0,0.0,0.0,0.0,0.0,0.0,0.0,0.0,0.0,0.0,0.0,0.0,0.0,0.0,0.0,0.0,0.0,0.0,0.0,0.0,0.0,0.0,0.0,0.0,0.0,0.0,0.0,0.0,0.0,0.0,0.0,0.0,0.0,0.0,0.0,0.0,0.0,0.0,0.0,0.0,0.0,0.0,0.0,0.0,0.0,0.0,0.0,0.0,0.0,0.0,0.0,0.0,0.0,0.0,0.0,0.0,0.0,0.0,0.0,0.0,0.0,0.0,0.0,0.0,0.0,0.0,0.0,0.0,0.0,0.0,0.0,0.0,0.0,0.0,0.0,0.0,0.0,0.0,0.0,0.0,0.0,0.0,0.0,0.0,0.0,0.0,-2.4338,-2.4317,-2.4172,-2.4109,-2.3704,-2.357,-2.3955,-2.3091,-2.2431,-2.2147,0.0,0.0,0.0,0.0,0.0,0.0,0.0,0.0,0.0,0.0,0.0,0.0,0.0,0.0,0.0,0.0,0.0,0.0,0.0,0.0,0.0,0.0,0.0,0.0,0.0,0.0,0.0,0.0,0.0,0.0,0.0,0.0,0.0,0.0,0.0,0.0,0.0,0.0,0.0,0.0,0.0,0.0,0.0,0.0,0.0,0.0,0.0,0.0,0.0,0.0,0.0,0.0,0.0,0.0,0.0,0.0,0.0,0.0,0.0,0.0,0.0,0.0,0.0,0.0,0.0,0.0,0.0,0.0,0.0,0.0,0.0,0.0,0.0,0.0,0.0,0.0,0.0,0.0,0.0,0.0,0.0,0.0,0.0,0.0,0.0,0.0,0.0,0.0,0.0,0.0,0.0,0.0,0.0,0.0,0.0,0.0,0.0,0.0,0.0,0.0,0.0,0.0,-2.4359,-2.4233,-2.4022,-2.3961,-2.3523,-2.3194,-2.3083,-2.2632,-2.2287,-2.2063,0.0,0.0,0.0,0.0,0.0,0.0,0.0,0.0,0.0,0.0,0.0,0.0,0.0,0.0,0.0,0.0,0.0,0.0,0.0,0.0,0.0,0.0,0.0,0.0,0.0,0.0,0.0,0.0,0.0,0.0,0.0,0.0,0.0,0.0,0.0,0.0,0.0,0.0,0.0,0.0,0.0,0.0,0.0,0.0,0.0,0.0,0.0,0.0,0.0,0.0,0.0,0.0,0.0,0.0,0.0,0.0,0.0,0.0,0.0,0.0,-2.2111,0.0,0.0,0.0,0.0,0.0,0.0,0.0,0.0,0.0,0.0,0.0,0.0,0.0,0.0,0.0,0.0,0.0,0.0,0.0,0.0,0.0,0.0,0.0,0.0,0.0,0.0,0.0,0.0,0.0,0.0,0.0,0.0,0.0,0.0,0.0,0.0,0.0,0.0,0.0,0.0,0.0,-2.4266,-2.4416,-2.4274,-2.3734,-2.3282,-2.2949,-2.2785,-2.2356,-2.1811,-2.1153,-2.0455,0.0,0.0,0.0,0.0,0.0,0.0,0.0,0.0,0.0,0.0,0.0,0.0,0.0,0.0,0.0,0.0,0.0,0.0,0.0,0.0,0.0,0.0,0.0,0.0,0.0,0.0,0.0,0.0,0.0,0.0,0.0,0.0,0.0,0.0,0.0,0.0,0.0,0.0,0.0,0.0,0.0,0.0,0.0,0.0,0.0,0.0,0.0,0.0,0.0,0.0,0.0,0.0,0.0,0.0,0.0,0.0,0.0,0.0,0.0,0.0,-2.3173,0.0,0.0,0.0,0.0,0.0,0.0,0.0,0.0,0.0,0.0,0.0,0.0,0.0,0.0,0.0,0.0,0.0,0.0,0.0,0.0,0.0,0.0,0.0,0.0,0.0,0.0,0.0,0.0,0.0,0.0,0.0,0.0,0.0,0.0,0.0,0.0,0.0,0.0,0.0,0.0,-2.4567,-2.4687,-2.461,-2.4393,-2.3996,-2.3621,-2.3359,-2.2716,-2.2235,-2.1988,-2.1153,0.0,0.0,0.0,0.0,0.0,0.0,0.0,0.0,0.0,0.0,0.0,0.0,0.0,0.0,0.0,0.0,0.0,0.0,0.0,0.0,0.0,0.0,0.0,0.0,0.0,0.0,0.0,0.0,0.0,0.0,0.0,0.0,0.0,0.0,0.0,0.0,0.0,0.0,0.0,0.0,0.0,0.0,0.0,0.0,0.0,0.0,0.0,0.0,0.0,0.0,0.0,0.0,0.0,-2.9724,-2.9612,-2.9326,-2.9076,-2.8821,-2.8428,-2.6887,-2.5832,-2.5145,-2.4624,0.0,0.0,0.0,0.0,0.0,0.0,0.0,0.0,0.0,0.0,0.0,0.0,0.0,0.0,0.0,0.0,0.0,0.0,0.0,0.0,0.0,0.0,0.0,0.0,-2.4496,-2.3685,0.0,0.0,0.0,0.0,0.0,0.0,0.0,0.0,0.0,0.0,0.0,0.0,-2.5055,-2.5018,-2.4989,-2.5019,-2.4747,-2.4408,-2.4014,-2.3305,-2.2993,-2.3256,-2.2167,-2.1147,0.0,0.0,0.0,0.0,0.0,0.0,0.0,0.0,0.0,0.0,0.0,0.0,0.0,0.0,0.0,0.0,0.0,0.0,0.0,0.0,0.0,0.0,0.0,0.0,0.0,0.0,0.0,0.0,0.0,0.0,0.0,0.0,-2.4281,-2.3833,0.0,0.0,0.0,0.0,0.0,0.0,0.0,0.0,0.0,0.0,0.0,0.0,0.0,-2.8834,-3.0456,-3.1174,-3.1705,-3.204,-3.2295,-3.208,-3.1487,-3.1044,-3.074,-3.0607,-3.0337,0.0,-2.6615,-2.6474,0.0,0.0,0.0,0.0,0.0,0.0,0.0,0.0,0.0,0.0,0.0,0.0,0.0,0.0,0.0,0.0,0.0,0.0,0.0,0.0,0.0,0.0,-2.5529,-2.581,-2.5519,-2.5092,0.0,-2.3075,-2.1945,-2.2017,-2.1801,0.0,0.0,0.0,0.0,0.0,0.0,0.0,-2.5472,-2.5575,-2.5304,-2.4351,-2.4401,-2.4352,-2.4014,-2.3681,-2.352,-2.3552,-2.259,-2.1589,-2.0671,-1.9839,0.0,0.0,0.0,0.0,0.0,0.0,0.0,0.0,0.0,0.0,0.0,0.0,0.0,0.0,0.0,0.0,0.0,0.0,0.0,0.0,0.0,0.0,0.0,0.0,0.0,0.0,0.0,0.0,0.0,-2.4611,-2.5453,-2.5463,-2.5531,-2.5244,0.0,0.0,0.0,0.0,0.0,0.0,0.0,0.0,0.0,-3.0248,-3.0355,-3.0916,-3.211,-3.2488,-3.274,-3.2874,-3.2805,-3.2619,-3.233,-3.1944,-3.1658,-3.144,-3.144,-3.0843,-2.975,-2.8958,-2.8094,-2.723,0.0,0.0,0.0,0.0,-2.4433,-2.4283,-2.493,-2.536,0.0,-2.5758,0.0,0.0,0.0,0.0,0.0,0.0,0.0,0.0,0.0,0.0,-2.6923,-2.7261,-2.6817,-2.629,-2.6103,-2.5011,-2.3941,0.0,-2.3209,-2.3185,-2.4162,0.0,0.0,0.0,0.0,-2.6016,-2.6015,-2.605,-2.5824,-2.5144,-2.5249,-2.5152,-2.4501,-2.4177,-2.3851,-2.3546,-2.2642,-2.1692,-2.0743,-2.0318,-1.9734,0.0,0.0,0.0,0.0,0.0,0.0,0.0,0.0,0.0,0.0,0.0,0.0,0.0,0.0,0.0,0.0,0.0,0.0,0.0,0.0,0.0,0.0,0.0,0.0,0.0,0.0,0.0,0.0,-2.5826,-2.6825,-2.7019,-2.7312,-2.696,0.0,0.0,0.0,0.0,0.0,0.0,-2.947,-3.002,-3.0931,-3.2307,-3.2374,-3.275,-3.3606,-3.3606,-3.365,-3.3727,-3.3473,-3.3259,-3.3214,-3.2868,-3.257,-3.228,-3.2256,-3.237,-3.2503,-3.106,-3.0163,-2.9648,-2.8778,-2.7901,-2.7114,-2.7123,-2.67,-2.6206,-2.7093,-2.7304,-2.724,-2.7381,-2.7145,-2.6676,-2.5808,0.0,0.0,0.0,0.0,-2.7843,-2.8162,-2.8062,-2.793,-2.8114,-2.7568,-2.6951,-2.6862,-2.6307,-2.5651,0.0,-2.4567,-2.4582,-2.5836,0.0,0.0,0.0,0.0,-2.6116,-2.6474,-2.637,-2.6123,-2.5797,-2.6156,-2.6106,-2.5366,-2.5051,-2.4695,-2.4264,-2.3219,-2.2182,-2.1226,-2.1049,-2.0636,-1.9892,0.0,0.0,0.0,0.0,0.0,0.0,0.0,0.0,0.0,0.0,0.0,0.0,0.0,0.0,0.0,0.0,0.0,0.0,0.0,0.0,0.0,0.0,0.0,0.0,0.0,0.0,0.0,0.0,0.0,-2.8643,-2.9387,0.0,0.0,0.0,0.0,-2.9754,-2.9939,-3.0577,-3.1935,-3.1995,-3.2576,-3.3862,-3.3895,-3.4262,-3.4971,-3.4995,-3.5075,-3.5191,-3.5075,-3.483,-3.4592,-3.4325,-3.3978,-3.3598,-3.3469,-3.3649,-3.3874,-3.2337,-3.1501,-3.1166,-3.0661,-2.9844,-2.8956,-2.8887,-2.8841,-2.8904,-2.9596,-2.9516,-2.9362,-3.0406,-3.0161,-2.9255,-2.846,-2.8268,0.0,0.0,-2.9508,-2.9612,-2.9675,-2.908,-2.8301,-2.769,-2.7201,-2.6728,-2.6091,-2.6171,-2.6193,0.0,-2.5431,-2.5723,-2.7005,0.0,-2.6592,-2.78,-2.7028,-2.6388,-2.6736,-2.6392,-2.5988,-2.566,-2.6607,-2.7088,-2.6737,-2.657,-2.643,-2.6256,-2.4847,-2.3547,-2.2534,-2.2195,-2.1778,-2.1222,-1.9805,0.0,0.0,0.0,0.0,0.0,0.0,0.0,0.0,0.0,0.0,0.0,0.0,0.0,0.0,0.0,0.0,0.0,0.0,0.0,0.0,0.0,0.0,0.0,0.0,0.0,0.0,0.0,0.0,-3.0764,-3.1167,0.0,-3.0594,-3.0639,-3.0959,-3.1599,-3.2009,-3.2861,-3.4327,-3.4307,-3.4947,-3.6333,-3.6367,-3.6453,-3.6649,-3.6181,-3.5923,-3.5852,-3.4994,-3.457,-3.4546,-3.4126,-3.3771,-3.3565,-3.3513,-3.3668,-3.3917,-3.3276,-3.2935,-3.2666,-3.1754,-3.115,-3.0799,-3.068,-3.0633,-3.0712,-3.1015,-3.0991,-3.0918,-3.0991,-3.0354,-2.9602,-2.9668,-2.978,-2.9912,-3.0185,-3.0322,-3.0279,-2.967,-2.9237,-2.8744,-2.7875,-2.7453,-2.7171,-2.6907,-2.6907,-2.6819,-2.6533,-2.6174,-2.6174,-2.6983,-2.6902,-2.6902,-2.7421,-2.6828,-2.6363,-2.6578,-2.615,-2.5633,-2.5132,-2.6161,-2.6606,-2.6007,-2.6497,-2.6747,-2.6543,-2.5132,-2.3986,-2.3321,-2.2454,-2.1746,-2.1244,-2.0541,-1.973,0.0,0.0,0.0,0.0,0.0,0.0,0.0,0.0,0.0,0.0,0.0,0.0,0.0,0.0,0.0,0.0,0.0,0.0,0.0,0.0,0.0,0.0,0.0,0.0,0.0,0.0,-3.0986,-3.2545,-3.3256,-3.3342,-3.2788,-3.3139,-3.3588,-3.3951,-3.4333,-3.5103,-3.6344,-3.6072,-3.6417,-3.7663,-3.7388,-3.7157,-3.705,-3.6534,-3.6071,-3.566,-3.4873,-3.4448,-3.4349,-3.4,-3.3694,-3.3487,-3.3435,-3.3591,-3.3873,-3.3745,-3.3684,-3.3623,-3.2781,-3.2367,-3.2293,-3.2219,-3.2162,-3.213,-3.203,-3.1996,-3.1987,-3.1381,-3.0907,-3.0634,-3.0993,-3.1142,-3.1221,-3.1221,-3.1274,-3.1145,-3.0284,-2.9945,-2.9524,-2.8409,-2.7919,-2.7628,-2.7318,-2.7233,-2.7155,-2.7029,-2.6704,-2.6641,-2.7156,-2.7071,-2.7036,-2.7319,-2.6841,-2.6544,-2.6707,-2.6441,-2.6075,-2.576,-2.6657,-2.7046,-2.6514,-2.7078,-2.7355,-2.7081,-2.5673,-2.4593,-2.406,-2.3016,-2.222,-2.1729,-2.1185,-2.0298,-1.9132,0.0,0.0,0.0,0.0,0.0,0.0,0.0,0.0,0.0,0.0,0.0,0.0,0.0,0.0,0.0,0.0,0.0,0.0,0.0,0.0,0.0,0.0,0.0,-2.8893,-3.1199,-3.3161,-3.4016,-3.5525,-3.6236,-3.5553,-3.5599,-3.6017,-3.6865,-3.6898,-3.718,-3.801,-3.7188,-3.7013,-3.7764,-3.6816,-3.6304,-3.6285,-3.6149,-3.5604,-3.4724,-3.4844,-3.4627,-3.4101,-3.4101,-3.3873,-3.3487,-3.3361,-3.3545,-3.3873,-3.3745,-3.3771,-3.3873,-3.3745,-3.3545,-3.3309,-3.344,-3.3414,-3.3214,-3.2698,-3.2552,-3.2513,-3.1831,-3.1967,-3.2382,-3.2382,-3.2382,-3.2382,-3.2382,-3.2351,-3.2198,-3.152,-3.1151,-3.0573,-2.9139,-2.8603,-2.8106,-2.7199,-2.7107,-2.7159,-2.7059,-2.7036,-2.7158,-2.7607,-2.72,-2.7026,-2.7608,-2.7199,0.0,-2.7172,-2.7224,-2.7262,-2.7468,-2.8146,-2.8512,-2.8391,-2.8419,-2.8324,-2.8044,-2.6589,-2.5439,-2.478,-2.4052,-2.3381,-2.2745,-2.1668,-2.0699,-1.9841,0.0,0.0,0.0,0.0,0.0,0.0,0.0,0.0,0.0,0.0,0.0,0.0,0.0,0.0,0.0,0.0,0.0,0.0,0.0,0.0,0.0,-2.9419,-3.0674,-3.1285,-3.2547,-3.422,-3.6243,-3.6932,-3.722,-3.7152,-3.7199,-3.7394,-3.7681,-3.7715,-3.8054,-3.8826,-3.8546,-3.8636,-3.9278,-3.8925,-3.843,-3.7794,-3.7668,-3.6886,-3.5482,-3.5233,-3.4771,-3.4101,-3.3797,-3.3591,-3.3487,-3.3361,-3.3461,-3.3745,-3.372,-3.372,-3.3745,-3.3591,-3.3414,-3.3123,-3.2904,-3.2989,-3.3145,-3.3218,-3.3014,-3.2707,-3.2412,-3.2232,-3.2107,-3.2219,-3.2247,-3.2155,-3.1692,-3.1539,-3.1359,-3.0578,-2.9902,-2.929,-2.8902,-2.8166,-2.744,-2.7185,-2.7302,-2.7434,-2.7488,-2.7784,-2.7816,-2.7171,-2.7207,-2.733,-2.7393,-2.7371,0.0,-2.7423,-2.712,-2.693,-2.6993,-2.7784,-2.8263,-2.8112,-2.8467,-2.8651,-2.8579,-2.7341,-2.6321,-2.5744,-2.5128,-2.428,-2.3067,-2.1922,-2.1057,0.0,0.0,0.0,0.0,0.0,0.0,0.0,0.0,0.0,0.0,0.0,0.0,0.0,0.0,0.0,0.0,0.0,0.0,0.0,0.0,0.0,0.0,-3.1561,-3.3166,-3.4182,-3.4781,-3.5753,-3.7544,-3.8078,-3.838,-3.8505,-3.863,-3.8753,-3.8792,-3.8899,-3.9127,-3.9568,-3.9125,-3.9169,-3.9884,-3.935,-3.8861,-3.8428,-3.789,-3.7008,-3.5703,-3.5107,-3.4547,-3.4,-3.3771,-3.3802,-3.4037,-3.3958,-3.4197,-3.4663,-3.4663,-3.4563,0.0,0.0,0.0,0.0,0.0,-3.2962,-3.3203,-3.3198,-3.3065,-3.2796,-3.2468,-3.2219,-3.214,-3.2499,-3.2407,-3.2107,-3.2069,-3.1796,-3.1411,-3.0879,-3.0377,-2.9934,-2.9555,-2.8898,-2.8302,-2.7983,-2.7975,-2.8101,-2.8184,-2.8364,0.0,-2.7585,-2.7703,-2.7794,-2.757,-2.7734,-2.7889,-2.7889,-2.7714,-2.76,-2.7635,-2.815,-2.84,-2.8274,-2.8543,0.0,0.0,0.0,-2.6463,-2.5667,-2.5135,0.0,0.0,0.0,-2.1779,-2.1443,0.0,0.0,0.0,-1.9233,-1.897,0.0,0.0,0.0,0.0,0.0,0.0,0.0,0.0,0.0,0.0,0.0,0.0,0.0,0.0,0.0,0.0,-3.3317,-3.5489,-3.7011,-3.7301,-3.7599,-3.8261,-3.9023,-3.9501,-3.9501,-3.9763,-3.9884,-3.9884,-4.0037,-4.0113,-4.0087,0.0,0.0,0.0,0.0,-3.8347,-3.8376,-3.7456,-3.6525,-3.5578,-3.4798,-3.4241,-3.3924,-3.4021,-3.433,-3.4835,-3.4872,-3.5337,-3.6018,-3.6018,-3.5746,-3.5296,-3.4058,-3.3397,-3.3131,-3.3173,-3.3249,-3.3324,-3.2904,0.0,0.0,-3.2193,-3.2081,-3.2285,-3.2957,-3.2627,-3.2146,-3.2839,-3.2477,-3.179,-3.159,-3.1531,-3.1324,-3.0474,-3.0125,-2.9805,-2.9049,-2.8906,-2.8938,-2.8966,-2.8854,-2.8713,-2.8598,-2.8512,-2.834,-2.8022,-2.826,-2.8497,-2.8497,-2.8533,-2.8697,-2.8826,0.0,0.0,-2.8633,-2.86,-2.8411,-2.8085,-2.7202,-2.6252,-2.5268,-2.4623,-2.4221,-2.4054,-2.3192,-2.2607,-2.2272,-2.2333,-2.225,-2.2138,-2.0887,-2.0384,0.0,0.0,0.0,0.0,0.0,0.0,0.0,0.0,0.0,0.0,0.0,0.0,0.0,0.0,0.0,-3.3077,-3.519,-3.7012,-3.7864,-3.8493,-3.895,-3.9083,-3.9322,-3.9501,-3.9501,-3.9763,-3.9884,-3.9884,-4.0113,-4.0163,-3.9935,-3.9749,-3.9621,-3.958,-3.9262,-3.8818,-3.8221,-3.7827,-3.694,-3.5578,0.0,0.0,-3.4083,-3.469,-3.4936,-3.4999,-3.5407,-3.5754,-3.6018,-3.6018,-3.5746,-3.5335,-3.4571,-3.4392,-3.4441,-3.3827,-3.3665,-3.3654,-3.276,-3.2465,-3.2441,-3.2109,-3.2025,-3.2175,-3.2844,-3.2541,0.0,-3.2034,-3.1439,-3.0758,-3.0619,-3.0175,-2.985,-3.0068,-2.9715,-2.9217,-2.8962,-2.8972,-2.9115,-2.9261,-2.9458,-2.9562,-2.9531,-2.9132,-2.8672,-2.8344,-2.8842,-2.9139,-2.8983,-2.8839,-2.8826,-2.9017,-2.8922,-2.8761,-2.8633,-2.8444,-2.832,-2.8254,-2.7267,-2.6681,-2.6611,-2.5062,-2.4303,-2.4478,-2.3575,-2.3015,-2.2844,-2.2948,-2.3028,-2.3028,-2.218,-2.1444,0.0,0.0,0.0,0.0,0.0,0.0,0.0,0.0,0.0,0.0,0.0,-2.916,-3.0555,0.0,-3.3695,-3.5102,-3.6671,-3.7941,-3.8652,-3.9083,-3.9315,-3.9315,-3.9369,-3.9422,-3.9422,-3.958,-3.9711,-3.9711,-3.9884,-3.9935,-3.9807,-3.9763,-3.9659,-3.9501,-3.9369,-3.9063,-3.8593,-3.8077,-3.7439,-3.6692,-3.617,-3.5707,-3.5331,-3.5688,-3.5967,-3.6163,-3.6405,-3.6759,-3.7086,-3.6946,-3.6834,-3.6724,-3.6029,-3.5327,-3.4645,-3.4017,-3.3796,-3.3619,-3.2377,-3.2104,-3.2247,-3.1768,-3.1739,-3.2002,-3.2928,-3.2599,-3.1974,-3.222,-3.1626,-3.083,-3.0629,-3.0364,-3.0245,-3.0397,-3.0191,-2.9899,-2.9784,-2.9724,-2.9802,-3.0147,-2.9991,-2.9922,-3.0233,-2.9716,-2.9139,-2.8799,-2.9112,-2.9334,-2.9145,-2.8922,-2.8922,-2.924,-2.8986,-2.8702,-2.8476,-2.8118,-2.7888,-2.7822,-2.7203,-2.6837,-2.6748,-2.5743,-2.5074,-2.4862,-2.412,-2.3587,-2.326,-2.3485,-2.3671,-2.3773,-2.3421,-2.2581,0.0,0.0,0.0,0.0,0.0,0.0,0.0,0.0,-2.8818,-2.8879,-2.9872,-3.1133,-3.2443,-3.382,-3.5277,-3.6891,-3.7871,-3.8619,-3.9216,-3.9315,-3.9315,-3.9315,-3.9315,-3.9315,-3.9315,-3.9422,-3.9501,-3.9501,-3.9625,-3.9677,-3.9651,-3.958,-3.9501,-3.9475,-3.9369,-3.9202,-3.9013,-3.8214,-3.78,-3.78,-3.6861,-3.6424,-3.6424,-3.6586,-3.6896,-3.7284,-3.7441,-3.7773,-3.8237,-3.7921,-3.7921,-3.8036,-3.7391,-3.6223,-3.4872,-3.4392,-3.3988,-3.3481,-3.2158,-3.2006,-3.229,-3.1747,-3.1866,-3.2425,-3.3439,-3.2961,-3.213,-3.2735,-3.2108,-3.119,-3.0895,-3.0925,-3.1014,-3.0952,-3.0894,-3.0805,-3.0742,-3.0619,-3.058,-3.0908,-3.0523,-3.0287,-3.0683,-3.0186,-2.9572,-2.9145,-2.9271,-2.9334,-2.9145,-2.8922,-2.8954,-2.9303,-2.8958,-2.8573,-2.8314,-2.7888,-2.759,-2.739,-2.7188,-2.6884,-2.6568,-2.6198,-2.5758,-2.5169,-2.4664,-2.4208,-2.3813,-2.4035,-2.4248,-2.4456,-2.4422,-2.3579,-2.5163,-2.5629,-2.6413,-2.838,-2.8895,-2.9225,0.0,0.0,-3.0762,-3.1291,-3.2595,-3.3794,-3.4323,-3.6148,-3.7656,-3.8004,-3.8685,-3.9216,-3.9282,-3.9315,-3.9315,-3.9315,-3.9315,-3.9315,-3.9315,-3.9422,-3.9501,-3.9501,-3.9625,-3.9651,-3.9528,-3.9528,-3.9448,-3.9342,-3.9315,-3.9202,-3.9013,-3.8214,-3.78,-3.78,-3.6728,-3.6238,-3.6265,-3.6913,-3.7187,-3.7178,-3.7931,-3.8311,-3.8379,-3.8209,-3.8008,-3.7775,-3.7658,-3.7145,-3.6353,-3.5582,-3.4565,-3.34,-3.2642,-3.2701,-3.302,-3.273,-3.333,-3.4294,-3.4819,-3.3997,-3.2912,-3.3154,-3.2227,-3.1073,-3.0866,-3.0836,-3.0923,-3.1324,-3.1125,-3.0892,-3.1168,-3.119,-3.1125,-3.0867,-3.1168,-3.1273,-3.0632,-3.0363,-2.9979,-2.92,-2.9271,-2.9334,-2.9145,-2.8922,-2.889,-2.9113,-2.867,-2.8314,-2.8145,-2.8183,-2.8059,-2.7756,-2.7397,-2.7027,-2.6679,-2.5886,-2.5346,-2.5298,-2.4933,-2.4803,-2.4909,-2.4767,-2.4791,-2.5004,-2.4826,-2.398,-2.7501,-2.7668,-2.8139,-3.0225,-3.0881,-3.1286,-3.2164,-3.2336,-3.2639,-3.3656,-3.4478,-3.5306,-3.6412,-3.7437,-3.8275,0.0,-3.9136,-3.9395,-3.9315,-3.9315,-3.9149,-3.8692,-3.8943,-3.9175,-3.9315,-3.9369,-3.9395,-3.9395,-3.9448,-3.9415,-3.9395,-3.9395,-3.9369,-3.9315,-3.9315,-3.9175,-3.8903,-3.8635,-3.8422,-3.8259,-3.7987,-3.7796,-3.7742,-3.8123,-3.8171,-3.7982,-3.8193,-3.8323,-3.8408,-3.8266,-3.818,-3.8094,-3.7833,-3.7316,-3.6641,-3.6004,-3.536,-3.4656,-3.3696,-3.3544,-3.3779,-3.381,-3.4023,-3.4387,-3.4813,-3.4081,-3.3058,-3.2886,-3.199,-3.1043,-3.0866,-3.0746,-3.0832,-3.138,-3.1062,-3.0801,-3.1193,-3.1305,-3.1326,-3.1318,-3.1537,-3.1556,-3.1167,-3.0639,-3.003,-2.9228,-2.9176,-2.9208,-2.9113,-2.8922,-2.8826,-2.8922,-2.8638,-2.8476,-2.8503,-2.8379,-2.8157,-2.7822,-2.7556,-2.7121,-2.6543,-2.5955,-2.5535,-2.53,-2.5076,-2.5028,-2.5111,-2.4885,-2.4885,-2.5076,-2.467,-2.3953,-2.8612,-2.8889,-2.9643,-3.1523,-3.236,-3.2816,-3.3095,-3.3403,-3.3884,-3.4727,-3.5433,-3.6226,-3.7517,-3.8143,-3.8685,-3.9269,-3.9422,-3.9422,-3.9315,-3.9315,-3.909,-3.8481,-3.8764,-3.904,-3.9148,-3.9148,-3.9175,-3.9202,-3.9202,-3.9228,-3.9315,-3.9315,-3.9381,-3.9613,-3.9613,-3.9544,-3.9462,-3.938,-3.9199,-3.9005,-3.8947,-3.8975,-3.9083,-3.9144,-3.8935,-3.8604,-3.8351,-3.8323,-3.8408,-3.8294,-3.8294,-3.8323,-3.7921,-3.7456,-3.6924,-3.6428,-3.5912,-3.5301,-3.4605,-3.4483,-3.4631,-3.4779,-3.4903,-3.4998,-3.5147,-3.4537,-3.3602,-3.2916,-3.205,-3.1249,-3.0895,-3.0687,-3.0801,-3.1613,-3.1177,-3.077,-3.1423,-3.1596,-3.1645,-3.1687,-3.1881,-3.1933,-3.1532,-3.0802,-2.9965,-2.9228,-2.9017,-2.9017,-2.9113,-2.8926,-2.8734,-2.8633,-2.8541,-2.8541,-2.8638,-2.8411,-2.8085,-2.7756,-2.7456,-2.6985,-2.6302,-2.5955,-2.5641,-2.5324,-2.5218,-2.5147,-2.5147,-2.4921,-2.4849,-2.4921,-2.4358,-2.3813,-2.7936,-2.8958,-3.0474,-3.1825,-3.2892,-3.3407,-3.2787,-3.3476,-3.4168,-3.3829,-3.5182,-3.6607,-3.7051,-3.8288,-3.9335,-3.9475,-3.9395,-3.9282,-3.9315,-3.9315,-3.9228,-3.9007,-3.898,-3.8925,0.0,-3.8821,-3.8876,-3.9013,-3.9013,-3.9094,-3.9282,-3.9315,-3.9647,-4.0343,-4.0376,-4.0624,-4.1144,-4.0423,-4.0066,-4.0066,-3.9093,-3.907,-3.987,-3.9617,-3.9141,-3.8604,-3.8464,-3.8408,-3.8408,-3.8408,-3.8323,-3.818,-3.8008,-3.7801,-3.7626,-3.715,-3.6036,-3.4773,-3.5154,-3.5429,-3.5669,-3.5669,-3.6224,-3.6846,-3.6538,-3.583,-3.4881,-3.3633,-3.2641,-3.178,-3.1012,-3.0687,-3.0917,-3.2193,-3.1496,-3.0916,-3.2003,-3.2388,-3.2323,-3.1805,-3.2321,-3.2549,-3.165,-3.0675,-2.9803,-2.9196,-2.8826,-2.8729,-2.9081,-2.8899,-2.861,-2.8177,-2.8249,-2.832,-2.832,-2.8183,-2.7947,-2.7523,-2.7019,-2.6474,-2.5945,-2.5711,-2.55,-2.53,-2.53,-2.5264,-2.5264,-2.4957,-2.4706,-2.449,-2.4091,-2.3703,-2.9178,-3.0609,-3.2192,-3.3005,-3.3624,-3.3966,-3.357,-3.3838,-3.4255,-3.4613,-3.5331,-3.6102,-3.6723,-3.7715,-3.8454,-3.8481,-3.8931,-3.9315,-3.9315,-3.9175,-3.8956,-3.852,-3.8641,0.0,0.0,0.0,0.0,-3.9013,-3.9121,-3.9228,-3.9315,-3.9779,-4.0171,-4.0513,-4.0868,-4.1149,-4.1418,-4.069,-4.0183,-3.9959,-3.9121,-3.8919,-3.9292,-3.9047,-3.8804,-3.8604,-3.8379,-3.8266,-3.8266,-3.8266,-3.8237,-3.8209,-3.8123,-3.8065,-3.8008,-3.7599,-3.7194,-3.6785,-3.6532,-3.6625,-3.6833,-3.6714,-3.6841,-3.6908,-3.6445,-3.5799,-3.5034,-3.4296,-3.3089,-3.1928,-3.1661,-3.142,-3.1438,-3.2278,-3.1845,-3.1408,-3.2246,-3.2481,-3.2417,-3.2094,-3.2515,-3.2644,-3.1754,-3.1076,-3.0421,-3.0023,-2.9378,-2.889,-2.8794,-2.8894,-2.8862,-2.8471,-2.8444,-2.8444,-2.832,-2.8254,-2.802,-2.7523,-2.7121,-2.6714,-2.6267,-2.5816,-2.5571,-2.55,-2.537,-2.5288,-2.5182,-2.4778,-2.449,-2.4309,-2.374,-2.3446,-3.0739,-3.1861,-3.3101,-3.4168,-3.4336,-3.419,-3.4014,-3.4041,-3.4154,-3.4406,-3.5033,-3.564,-3.602,-3.7144,-3.792,-3.7656,-3.8547,-3.9255,-3.9202,-3.9148,-3.9127,-3.9193,-3.9171,-3.9093,0.0,0.0,0.0,-3.9353,-3.949,-3.9698,-4.0017,-4.0481,-4.0934,-4.1278,-4.1631,-4.1939,-4.2237,-4.1243,-4.037,-3.9593,-3.9308,-3.9106,-3.9013,-3.9028,-3.8916,-3.8655,-3.8408,-3.8237,-3.8209,-3.8123,-3.8151,-3.8209,-3.8123,-3.818,-3.8237,-3.7863,-3.7863,-3.7976,-3.7359,-3.73,-3.7447,-3.7268,-3.715,-3.6968,-3.6476,-3.5799,-3.5095,-3.4692,-3.3478,-3.2281,-3.2046,-3.1948,-3.1959,-3.2394,-3.2162,-3.2048,-3.2716,-3.2861,-3.2796,-3.2507,-3.2691,-3.273,-3.2065,-3.135,-3.0807,-3.0528,-3.0008,-2.9438,-2.8893,-2.9062,-2.9044,-2.8536,-2.8476,-2.8476,-2.8411,-2.8314,-2.7987,-2.7423,-2.6994,-2.6586,-2.6139,-2.5711,-2.55,-2.55,-2.5324,-2.5182,-2.5111,-2.4706,-2.4345,-2.4091,-2.3629,-2.3335,-3.241,-3.2759,-3.3297,-3.5294,-3.4967,-3.4124,-3.4058,-3.4048,-3.3848,-3.3171,-3.4206,-3.5207,0.0,0.0,-3.7663,-3.6938,-3.8249,-3.9295,-3.9073,-3.9274,-3.9803,0.0,0.0,0.0,0.0,0.0,0.0,-4.009,0.0,-4.0545,-4.1347,-4.1442,-4.1806,-4.2502,-4.2539,-4.287,-4.3562,-4.2137,-4.0596,-3.9013,-3.9598,-3.9593,-3.9013,-3.9598,-3.9444,-3.8761,-3.8488,-3.8323,-3.818,-3.7979,-3.8008,-3.8151,-3.7947,-3.8091,-3.8351,-3.7892,-3.8036,-3.8323,-3.7653,-3.7567,-3.7626,-3.7329,-3.7178,-3.7088,-3.6631,-3.5891,-3.5156,-3.4847,-3.3959,-3.2901,-3.2222,-3.2299,-3.2542,-3.251,-3.2542,-3.2745,-3.3358,-3.3503,-3.3405,-3.3011,-3.2944,-3.281,-3.2432,-3.1589,-3.093,-3.0754,-3.0692,-3.031,-2.9376,-2.9369,-2.9191,-2.84,-2.8287,-2.8379,-2.8568,-2.8276,-2.7822,-2.7229,-2.6722,-2.6173,-2.5641,-2.543,-2.5335,-2.53,-2.5182,-2.5076,-2.5076,-2.467,-2.4273,-2.3886,-2.3666,-2.3372,-3.3391,-3.4205,-3.4852,-3.5495,-3.5107,-3.4394,-3.3624,-3.3377,-3.3045,-3.1902,-3.2818,-3.3481,0.0,0.0,0.0,-3.5824,-3.819,0.0,-4.0056,-4.0436,0.0,-4.1262,0.0,-4.0873,-4.1124,-4.1181,0.0,0.0,-4.1357,-4.1153,-4.138,-4.191,-4.2365,-4.2708,-4.3123,-4.3227,-4.3007,-4.1929,-4.0596,-3.9013,-3.9598,-3.9537,-3.8849,-3.8907,-3.8823,-3.8628,-3.8286,-3.8119,-3.7947,-3.7801,-3.7804,-3.7833,-3.786,-3.8033,-3.8237,-3.8123,-3.8151,-3.8209,-3.7889,-3.7801,-3.7743,-3.721,-3.706,-3.6938,-3.6445,-3.6072,-3.5732,-3.551,-3.4616,-3.361,-3.2932,-3.3003,-3.3122,-3.2629,-3.289,-3.33,-3.3474,-3.3503,-3.3503,-3.3507,-3.331,-3.2911,-3.2296,-3.195,-3.1702,-3.1419,-3.1384,-3.0904,-2.9738,-2.9602,-2.9383,-2.8622,-2.8411,-2.8222,-2.802,-2.8079,-2.7815,-2.7113,-2.7053,-2.6748,-2.6084,-2.584,-2.5676,-2.5535,-2.5253,-2.5028,-2.4885,-2.4454,-2.4091,-2.3666,-2.3482,-2.3224,-3.4973,-3.5285,-3.5447,-3.6302,-3.5409,-3.4155,-3.3562,-3.3076,-3.2358,-3.1036,-3.1612,-3.2151,-3.145,-3.3718,0.0,0.0,0.0,0.0,-4.0271,-4.0866,-4.1526,0.0,-4.1902,0.0,-4.2191,-4.2253,-4.2448,0.0,-4.2303,-4.2067,-4.2456,-4.2829,-4.2895,-4.265,-4.2962,-4.2829,-4.2214,-4.1579,-4.0677,-3.9391,-3.9678,-3.9453,-3.8821,-3.8711,-3.8711,-3.8766,0.0,-3.8173,-3.7976,-3.7772,-3.7716,-3.7716,-3.7804,-3.7921,-3.8065,-3.8065,-3.8065,-3.8065,-3.786,-3.7801,-3.7714,-3.724,-3.706,-3.6938,-3.6538,-3.6075,-3.5612,-3.5424,-3.4741,-3.391,-3.3168,-3.3472,-3.3732,-3.3093,-3.3412,-3.3877,-3.3877,-3.3877,-3.3877,-3.3881,-3.3677,-3.3339,-3.2826,-3.2395,-3.1993,-3.1715,-3.1391,-3.0877,-3.0092,-2.9765,-2.9508,-2.9287,-2.8768,-2.8421,-2.8425,-2.8212,-2.7881,-2.7356,-2.7053,-2.6714,-2.6302,-2.5851,-2.5571,-2.5394,-2.5135,-2.4849,-2.4693,-2.4273,-2.3909,-2.3593,-2.3372,-2.3187,-3.635,-3.5915,-3.5396,-3.6982,-3.555,-3.3604,-3.3336,-3.2663,-3.1649,-3.0103,-3.0458,-3.1068,-3.1238,-3.3266,-3.4929,-3.4961,0.0,-4.0259,-4.0259,-4.1064,-4.2113,-4.3254,-4.2977,-4.2903,-4.3502,-4.3598,-4.3628,-4.3658,-4.3032,-4.2995,-4.3805,-4.3588,-4.3102,-4.2344,-4.2212,-4.1914,-4.1324,-4.1238,-4.0733,-3.9874,-3.9858,-3.9467,-3.8761,-3.8788,-3.8843,-3.8985,-3.8706,-3.8427,-3.8116,-3.7801,-3.7716,-3.7716,-3.7687,-3.7775,-3.786,-3.786,-3.786,-3.7801,-3.7685,-3.7626,-3.7567,-3.727,-3.7089,-3.6969,-3.6723,-3.6045,-3.5309,-3.5186,-3.4749,-3.4157,-3.3347,-3.3791,-3.4254,-3.3649,-3.3964,-3.4399,-3.4399,-3.4399,-3.4332,-3.4128,-3.3957,-3.3848,-3.3709,-3.2826,-3.2103,-3.1896,-3.1144,-3.0549,-3.0473,-2.9957,-2.9761,-3.0069,-2.9254,-2.8795,-2.9107,-2.8465,-2.798,-2.7723,-2.6892,-2.6414,-2.6405,-2.5687,-2.5253,-2.5182,-2.4885,-2.4693,-2.4526,-2.4127,-2.3776,-2.3593,-2.3372,-2.3187,-3.5614,-3.5498,-3.5139,-3.5689,-3.4694,-3.3184,-3.1536,-3.1058,0.0,0.0,-2.8966,-3.0046,-2.9546,-3.2243,-3.458,-3.4792,-3.8297,-4.104,0.0,0.0,-4.3271,0.0,0.0,0.0,0.0,0.0,0.0,0.0,0.0,-4.3436,-4.3479,-4.2973,-4.2311,-4.1436,-4.0814,-4.0692,-4.107,-4.1041,-4.0594,-3.9736,-4.0355,-3.9931,-3.8628,-3.8766,-3.8788,-3.8816,-3.865,0.0,-3.829,-3.7892,-3.7716,-3.7687,-3.7599,-3.7628,-3.7714,-3.7714,-3.7626,-3.7476,-3.7447,-3.7358,-3.727,-3.709,-3.703,-3.6938,-3.6631,-3.6291,-3.6043,-3.6011,-3.5537,-3.4869,-3.4186,-3.4182,-3.4254,-3.3649,-3.3964,-3.4399,-3.4399,-3.4399,-3.4332,-3.4128,-3.3957,-3.3854,-3.3991,-3.3175,-3.2472,-3.2308,-3.1254,-3.0654,-3.1058,-3.0685,-3.0324,-3.0123,-2.9504,-2.8993,-2.8822,-2.8199,-2.7656,-2.718,-2.6816,-2.6508,-2.6223,-2.5641,-2.5394,-2.55,-2.4885,-2.4598,-2.4765,-2.4164,-2.3776,-2.3593,-2.3372,-2.3187,-3.5868,-3.57,-3.5168,-3.5268,-3.4182,-3.2557,-3.0582,0.0,0.0,0.0,-2.7905,-2.9032,-2.8991,-3.1415,0.0,-3.4558,-3.772,0.0,0.0,0.0,0.0,0.0,0.0,0.0,0.0,0.0,0.0,0.0,0.0,-4.3658,-4.3776,-4.2626,-4.1522,-4.0654,-3.9901,-3.9813,-4.0426,-4.0426,-4.0206,-3.9675,-4.0062,-3.9642,-3.8604,-3.8655,-3.8766,-3.8903,-3.8761,0.0,-3.846,-3.8091,-3.7831,-3.7687,-3.7569,-3.7539,-3.7599,-3.7599,-3.7478,-3.7298,-3.7298,-3.7238,-3.7148,-3.6907,-3.6908,-3.6969,-3.6816,-3.6569,-3.6259,-3.5829,-3.548,-3.5118,-3.4399,-3.4303,-3.4341,-3.4022,-3.4196,-3.4366,-3.4264,-3.423,-3.4196,-3.4054,-3.3917,-3.3854,-3.3819,-3.3101,-3.2438,-3.2274,-3.145,-3.0965,-3.1249,-3.126,-3.1178,-3.1074,-3.003,-2.9268,-2.9013,-2.8155,-2.7356,-2.6714,-2.6336,-2.6094,-2.6025,-2.55,-2.5182,-2.5171,-2.4849,-2.4598,-2.449,-2.4091,-2.3776,-2.3593,-2.3372,-2.3187,-3.5827,-3.5482,-3.4806,-3.4809,-3.3422,-3.1634,-2.9863,-2.9349,0.0,-2.6431,-2.6999,-2.8088,-2.8808,-3.0717,-3.2717,0.0,-3.7107,-3.9441,0.0,0.0,0.0,0.0,0.0,0.0,0.0,0.0,0.0,0.0,0.0,0.0,-4.3747,-4.2389,-4.1102,-4.0104,-3.9512,-3.9396,-3.9817,-3.9817,-3.9732,-3.9585,-3.9585,-3.9198,-3.852,-3.8548,-3.8683,-3.8925,-3.8843,0.0,0.0,-3.8286,-3.8033,-3.7804,-3.7628,-3.7539,-3.7539,-3.751,-3.7329,-3.718,-3.718,-3.718,-3.7119,-3.6816,-3.6847,-3.6969,-3.6908,-3.6724,-3.6353,-3.5677,-3.5455,-3.5312,-3.4705,-3.4489,-3.4501,-3.4501,-3.4433,-3.4332,-3.4128,-3.4025,-3.3957,-3.3882,-3.3848,-3.3813,-3.3709,-3.3033,-3.2466,-3.2436,-3.1786,-3.1388,-3.158,-3.1618,-3.1638,-3.1757,-3.0539,-2.9524,-2.9118,-2.809,-2.7121,-2.6336,-2.5851,-2.5676,-2.5826,-2.5324,-2.4992,-2.4921,-2.4778,-2.4598,-2.4345,-2.4091,-2.3886,-2.3703,-2.3446,-2.3224,-3.4261,-3.3923,-3.3338,-3.3445,-3.1986,-3.0167,-2.891,0.0,-2.7392,-2.5658,-2.6069,-2.714,-2.8487,-2.9998,-3.1943,-3.4678,-3.722,-3.9139,0.0,0.0,0.0,0.0,0.0,0.0,0.0,0.0,0.0,0.0,0.0,0.0,-4.2696,-4.2356,-4.1519,-3.9963,-3.9865,-3.9723,-3.9534,-3.9534,-3.9415,-3.9237,-3.9237,-3.8882,-3.8237,-3.8379,-3.8544,-3.8816,-3.8788,0.0,0.0,-3.8488,-3.8294,-3.8123,-3.7833,-3.7687,-3.7687,-3.7539,-3.7301,-3.703,-3.703,-3.703,-3.6969,-3.6754,-3.6847,-3.6938,-3.6662,-3.6507,-3.6476,-3.6415,-3.6039,-3.5657,-3.5565,-3.5204,-3.4868,-3.4868,-3.4635,-3.4332,-3.4128,-3.3854,-3.3675,-3.3785,-3.3681,-3.3709,-3.3991,-3.3407,-3.301,-3.3401,-3.2404,-3.1864,-3.2518,-3.1619,-3.1103,-3.1349,-3.0744,-2.9812,-2.8594,-2.7694,-2.6858,-2.6015,-2.5711,-2.5606,-2.5641,-2.5099,-2.4957,-2.5253,-2.4778,-2.4598,-2.4765,-2.4345,-2.4164,-2.4127,-2.3556,-2.3298,-3.399,-3.3881,-3.3287,-3.2577,-3.1578,-3.0259,-2.8286,-2.7935,-2.7512,-2.5643,-2.6307,-2.7314,-2.7622,-2.9397,-3.142,-3.317,-3.5221,-3.7226,-3.8962,0.0,0.0,0.0,0.0,0.0,0.0,0.0,0.0,0.0,0.0,0.0,-4.3049,-4.265,-4.1898,-4.0729,-4.0156,-3.9817,-3.9617,-3.8994,-3.8685,-3.8595,-3.8479,-3.8293,-3.8036,-3.8209,-3.8375,-3.8572,-3.8628,0.0,0.0,-3.8347,-3.8148,-3.7976,-3.7716,-3.7599,-3.7569,-3.751,-3.7271,-3.6999,-3.6999,-3.6908,-3.6785,-3.6631,-3.6693,-3.6754,-3.6538,-3.6414,-3.632,-3.6226,-3.5878,-3.5557,-3.5557,-3.5231,-3.4868,-3.4635,-3.4597,-3.4462,-3.3917,-3.3779,-3.3744,-3.3681,-3.364,-3.3526,-3.33,-3.3289,-3.3214,-3.293,-3.2754,-3.2526,-3.2221,-3.1737,-3.1131,-3.0324,-2.9984,-2.9436,-2.8317,-2.7702,-2.7046,-2.6246,-2.6058,-2.6068,-2.6222,-2.5634,-2.5288,-2.53,-2.4885,-2.4634,-2.4598,-2.4454,-2.4273,-2.3995,-2.3776,-2.3482,-3.332,-3.3466,-3.3067,-3.2133,-3.1323,-3.0205,-2.8321,-2.7965,-2.7594,-2.6098,-2.6583,-2.7229,-2.6893,-2.8835,-3.0873,-3.1992,-3.3899,-3.5928,-3.7953,-3.8414,0.0,0.0,0.0,0.0,0.0,0.0,0.0,0.0,0.0,0.0,-4.3295,-4.2983,-4.2356,-4.1486,-4.0648,-4.0046,-3.9646,-3.8707,-3.818,-3.8123,-3.795,-3.7831,-3.7831,-3.8008,-3.818,-3.8408,-3.8432,0.0,0.0,-3.8201,-3.8001,-3.786,-3.7658,-3.7569,-3.7539,-3.748,-3.7241,-3.6969,-3.6938,-3.6816,-3.6693,-3.6538,-3.66,-3.6662,-3.6476,-3.632,-3.6164,-3.61,-3.5814,-3.5554,-3.5489,-3.5294,-3.5001,-3.4702,-3.4631,-3.4404,-3.3654,-3.3459,-3.3454,-3.3322,-3.3356,-3.3306,-3.3044,-3.3186,-3.318,-3.2489,-3.2623,-3.2485,-3.1633,-3.1344,-3.0733,-2.9544,-2.9233,-2.8799,-2.8064,-2.7725,-2.7173,-2.6462,-2.6293,-2.6278,-2.6391,-2.5942,-2.5535,-2.5253,-2.5064,-2.4849,-2.467,-2.4598,-2.4418,-2.4091,-2.3886,-2.3519,-3.1773,-3.216,-3.2369,-3.217,-3.0931,-2.9679,-2.9113,-2.8196,-2.7309,-2.6965,-2.6717,-2.6585,-2.6509,-2.8241,-3.02,-3.1669,-3.3777,-3.574,-3.7275,-3.8038,0.0,0.0,0.0,0.0,0.0,0.0,0.0,0.0,0.0,0.0,-4.3113,-4.3295,-4.2966,-4.2127,-4.1344,-4.054,-3.9505,-3.8649,-3.8123,-3.7889,-3.7775,-3.7716,-3.7716,-3.7685,-3.7979,-3.8408,0.0,0.0,0.0,-3.8173,-3.8001,-3.7889,-3.7743,-3.7716,-3.7687,-3.7329,-3.7119,-3.6969,-3.6754,-3.6693,-3.6693,-3.6538,-3.66,-3.6662,-3.629,-3.6196,-3.6196,-3.6196,-3.5943,-3.5655,-3.5522,-3.5519,-3.5424,-3.5261,-3.4769,-3.4158,-3.3384,-3.2771,-3.2466,-3.2665,-3.2805,-3.3043,-3.3526,-3.3203,-3.2805,-3.2432,-3.1893,-3.1366,-3.0942,-3.0284,-2.9662,-2.9262,-2.8558,-2.8013,-2.7822,-2.7623,-2.7188,-2.6474,-2.638,-2.6139,-2.5606,-2.5805,-2.5665,-2.5111,-2.5253,-2.5253,-2.5076,-2.4885,-2.467,-2.449,-2.3886,-2.3372,-2.9377,-2.9851,-3.0077,-3.0094,-2.9756,-2.9042,-2.7788,-2.761,-2.731,-2.6123,-2.6485,-2.6956,-2.6728,-2.81,-2.9631,-3.081,-3.2317,-3.3874,0.0,0.0,0.0,0.0,0.0,0.0,0.0,0.0,0.0,0.0,0.0,0.0,-4.2929,-4.2687,-4.2446,-4.2246,-4.1519,-4.0709,-3.976,-3.8703,-3.8062,-3.7889,-3.7687,-3.7569,-3.7569,-3.7658,-3.7804,0.0,0.0,0.0,0.0,-3.7889,-3.7801,-3.7775,-3.7628,-3.7569,-3.7539,-3.73,-3.7119,-3.6969,-3.6754,-3.6631,-3.6538,-3.6507,-3.6507,-3.6538,-3.6445,-3.632,-3.6133,-3.5911,-3.5718,-3.5402,-3.4793,-3.5034,-3.524,-3.4211,-3.438,-3.4543,-3.383,-3.3602,-3.3568,-3.3636,-3.3704,-3.3441,-3.2649,-3.2735,-3.2492,-3.1279,-3.1331,-3.1231,-3.0394,-2.9976,-2.9438,-2.8564,-2.8219,-2.798,-2.7623,-2.7523,-2.7444,-2.7351,-2.6882,-2.6684,-2.6887,-2.6397,-2.5816,-2.5253,-2.5123,-2.504,-2.4885,-2.467,-2.4418,-2.4091,-2.3593,-2.3261,-2.778,-2.8646,-2.9037,-2.9164,-2.9114,-2.8652,-2.7091,-2.7155,-2.7235,-2.6183,-2.6639,-2.7179,-2.6916,-2.8198,-2.9477,-3.0005,-3.1437,-3.2978,0.0,0.0,0.0,0.0,0.0,0.0,0.0,0.0,0.0,0.0,0.0,0.0,-4.2259,-4.2022,-4.1814,-4.1612,-4.098,-4.0357,-3.9817,-3.8703,-3.8091,-3.8004,-3.7716,-3.7569,-3.7569,-3.7628,-3.7658,0.0,0.0,0.0,0.0,-3.7687,-3.7599,-3.7508,-3.7419,-3.7361,-3.7301,-3.7089,-3.6968,-3.6877,-3.6693,-3.6569,-3.6507,-3.6507,-3.6507,-3.6507,-3.6507,-3.632,-3.6038,-3.5718,-3.5522,-3.527,-3.479,-3.482,-3.472,-3.3823,-3.3995,-3.413,-3.3461,-3.3475,-3.3681,-3.3748,-3.3513,-3.3102,-3.2458,-3.2188,-3.1744,-3.066,-3.0684,-3.0499,-2.9753,-2.9508,-2.9111,-2.827,-2.8052,-2.7914,-2.7623,-2.7623,-2.768,-2.7781,-2.7233,-2.7037,-2.729,-2.665,-2.606,-2.5535,-2.5229,-2.5076,-2.4992,-2.467,-2.4345,-2.4018,-2.3593,-2.3298,0.0,-2.8168,-2.8748,-2.8936,-2.8788,-2.8252,-2.6831,-2.6822,0.0,-2.6723,-2.7051,-2.7335,-2.7182,-2.8546,-2.9633,-2.935,-3.1118,-3.2848,0.0,0.0,0.0,0.0,0.0,0.0,0.0,0.0,0.0,0.0,0.0,0.0,-4.1207,-4.136,-4.1128,-4.045,-3.9881,-3.9609,-3.9642,-3.8674,-3.8209,-3.818,-3.7831,-3.7716,-3.7716,-3.7569,-3.7599,0.0,0.0,0.0,0.0,-3.7569,-3.7389,-3.7208,-3.7208,-3.7119,-3.6999,-3.6785,-3.6693,-3.6693,-3.6538,-3.6476,-3.6476,-3.6476,-3.6476,-3.6507,-3.6445,-3.6258,-3.5941,-3.5619,-3.5359,-3.5231,-3.5365,-3.4723,-3.4053,-3.3991,-3.3732,-3.3293,-3.2612,-3.2733,-3.3068,-3.3206,-3.2618,-3.2229,-3.2682,-3.1695,-3.0708,-3.0459,-2.9982,-2.9491,-2.9145,-2.8899,-2.8675,-2.832,-2.7993,-2.7789,-2.7789,-2.7789,-2.7789,-2.7789,-2.7456,-2.7188,-2.6985,-2.6586,-2.6233,-2.584,-2.5465,-2.5288,-2.5288,-2.4754,-2.4418,-2.42,-2.3776,-2.3482,-2.4878,0.0,-2.6027,-2.6728,-2.6802,-2.6469,0.0,-2.582,-2.5861,-2.5414,-2.6301,-2.7446,-2.8364,-2.8737,-2.9303,-3.0382,-3.1268,-3.2045,0.0,0.0,0.0,0.0,0.0,0.0,0.0,0.0,0.0,0.0,0.0,-3.9921,-4.0346,-3.9895,-3.9629,-3.9641,-3.8965,-3.8634,-3.8865,-3.8501,-3.8237,-3.7979,-3.7804,-3.7716,-3.7716,-3.7687,-3.7687,0.0,0.0,0.0,-3.7539,-3.751,-3.748,-3.7389,-3.727,-3.7178,-3.7119,-3.6816,-3.6693,-3.6693,-3.6538,-3.6383,-3.6289,-3.6289,-3.6383,-3.6445,-3.6195,-3.6068,-3.5973,-3.591,-3.5524,-3.5077,-3.4507,-3.4528,-3.4515,-3.3784,-3.4014,-3.4305,-3.396,-3.3979,-3.3917,-3.3525,-3.3128,-3.2618,-3.169,-3.1098,-3.0598,-2.9929,-2.9701,-2.9491,-2.9145,-2.8899,-2.861,-2.8183,-2.7954,-2.7756,-2.759,-2.7556,-2.7556,-2.7556,-2.7255,-2.6985,-2.6782,-2.644,-2.5896,-2.5229,-2.5004,-2.4921,-2.4921,-2.4778,-2.4526,-2.42,-2.3629,-2.3446,-2.3611,-2.4422,-2.5248,-2.636,-2.626,-2.5837,-2.5585,-2.5466,-2.5437,-2.5491,-2.6469,-2.7688,-2.8966,-2.9304,-2.976,0.0,-3.155,0.0,0.0,0.0,0.0,0.0,0.0,0.0,0.0,0.0,0.0,0.0,0.0,-3.9354,-3.9938,-3.9267,-3.9102,-3.9631,-3.8637,-3.8209,-3.852,-3.8379,-3.818,-3.7889,-3.7833,-3.7772,-3.7772,-3.7772,-3.7772,0.0,0.0,0.0,-3.7687,-3.7628,-3.7478,-3.7329,-3.718,-3.6998,-3.6877,-3.6693,-3.66,-3.66,-3.6507,-3.6383,-3.6164,-3.6132,-3.6226,-3.632,-3.6068,-3.6005,-3.5973,-3.5782,-3.5282,-3.4631,-3.4211,-3.4227,-3.412,-3.3249,-3.3598,-3.4093,-3.3897,-3.4129,-3.4225,-3.362,-3.3046,-3.2299,-3.1289,-3.0608,-3.0076,-2.9673,-2.9554,-2.9429,-2.9145,-2.8926,-2.8638,-2.8249,-2.802,-2.7954,-2.7915,-2.7579,-2.752,-2.778,-2.7439,-2.7223,-2.7059,-2.6417,-2.5746,-2.5052,-2.4969,-2.4957,-2.4957,-2.4849,-2.467,-2.4454,-2.3872,-2.3629,-2.289,-2.4112,-2.5526,-2.6739,-2.641,-2.5824,-2.585,-2.5523,-2.5395,-2.6004,0.0,0.0,0.0,-2.9942,0.0,0.0,0.0,0.0,0.0,0.0,0.0,0.0,0.0,0.0,0.0,0.0,0.0,0.0,0.0,-3.9077,-3.969,-3.9055,-3.8988,-3.9778,-3.8688,-3.8162,-3.8323,-3.8209,-3.8065,-3.7831,-3.7831,-3.786,-3.786,-3.7889,-3.7918,-3.7979,0.0,0.0,-3.7889,-3.7775,-3.7537,-3.727,-3.709,-3.6847,-3.66,-3.6538,-3.6507,-3.6476,-3.6414,-3.6259,-3.6042,-3.6006,-3.61,-3.6164,-3.6037,-3.5944,-3.5788,-3.5557,-3.4909,-3.4305,-3.4305,-3.4077,-3.3638,-3.2954,-3.3209,-3.355,-3.3355,-3.3854,-3.4192,-3.3554,-3.2745,-3.1972,-3.1343,-3.0488,-2.9869,-2.9757,-2.9631,-2.9418,-2.9145,-2.8922,-2.8638,-2.832,-2.8151,-2.8153,-2.8386,-2.7764,-2.761,-2.8109,-2.7761,-2.7449,-2.7319,-2.6342,-2.5571,-2.5147,-2.5076,-2.5064,-2.5064,-2.4885,-2.4765,-2.4598,-2.4091,-2.3813,-2.3051,-2.4592,-2.5867,-2.6242,-2.6167,-2.5979,-2.5975,-2.5647,-2.5446,-2.5651,0.0,0.0,0.0,-3.0432,-3.1137,0.0,0.0,0.0,0.0,0.0,0.0,0.0,0.0,0.0,0.0,0.0,0.0,0.0,0.0,-3.8358,-3.9346,-3.8748,-3.8524,-3.8893,-3.8852,-3.8558,-3.8008,-3.7947,-3.7801,-3.7476,-3.7655,-3.7714,-3.7714,-3.7831,-3.7976,-3.8151,0.0,-3.8065,-3.7889,-3.7775,-3.7687,-3.7567,-3.73,-3.7059,-3.6908,-3.6723,-3.66,-3.6445,-3.6163,-3.5766,-3.5431,-3.5854,-3.61,-3.6164,-3.6037,-3.561,-3.5182,-3.5437,-3.5139,-3.4787,-3.4787,-3.4555,-3.4259,-3.4138,-3.4062,-3.4018,-3.3984,-3.407,-3.3989,-3.3355,-3.2958,-3.2568,-3.1972,-3.1508,-3.1021,-3.0427,-3.0247,-2.9891,-2.92,-2.8826,-2.8541,-2.832,-2.8052,-2.7993,-2.8386,-2.7997,-2.7899,-2.8333,-2.7538,-2.6866,-2.6427,-2.5735,-2.5359,-2.5264,-2.4992,-2.4849,-2.4849,-2.4837,-2.4454,-2.3776,-2.3666,-2.3556,-2.3529,-2.496,-2.6281,-2.71,-2.7189,-2.7199,-2.7735,-2.7188,-2.6664,-2.6954,0.0,0.0,0.0,0.0,-3.1903,0.0,0.0,0.0,0.0,0.0,0.0,0.0,0.0,0.0,0.0,0.0,0.0,0.0,0.0,0.0,-3.9976,-3.9314,-3.9249,-3.9972,-3.9528,-3.9176,-3.9038,-3.8799,-3.8207,-3.7298,-3.7567,-3.7716,-3.7716,-3.7979,-3.8151,-3.8323,0.0,-3.8209,-3.8065,-3.7892,-3.7685,-3.7537,-3.7268,-3.7119,-3.6969,-3.6754,-3.6415,-3.5953,-3.5978,-3.5581,-3.5155,-3.5667,-3.5973,-3.61,-3.6037,-3.5792,-3.5547,-3.5595,-3.5093,-3.4502,-3.4437,-3.4471,-3.4442,-3.3864,-3.4033,-3.4196,-3.4054,-3.4128,-3.4023,-3.3221,-3.2944,-3.2678,-3.1952,-3.1636,-3.1387,-3.1106,-3.0792,-3.0339,-2.9568,-2.916,-2.8663,-2.8112,-2.7888,-2.799,-2.8463,-2.7729,-2.7383,-2.7788,-2.7299,-2.6731,-2.6084,-2.5571,-2.53,-2.53,-2.5076,-2.4921,-2.4801,-2.4801,-2.449,-2.3945,-2.3813,-2.3776,-2.4012,-2.5351,-2.6804,-2.8047,-2.8189,-2.8248,-2.9144,-2.8607,-2.7982,-2.8282,0.0,0.0,0.0,-3.1411,0.0,0.0,0.0,0.0,0.0,0.0,0.0,0.0,0.0,0.0,0.0,0.0,0.0,0.0,0.0,0.0,-4.0798,-4.0103,-4.0103,-4.1023,-4.0229,-3.9848,-3.9998,-3.9566,-3.8748,-3.762,-3.7862,-3.7949,-3.7821,-3.8115,-3.8312,-3.8351,-3.8351,-3.8294,-3.818,-3.7976,-3.7743,-3.7447,-3.7298,-3.7086,-3.678,-3.6537,-3.5858,-3.5183,-3.5796,-3.5458,-3.4942,-3.5543,-3.5879,-3.6068,-3.6068,-3.6037,-3.5973,-3.5752,-3.507,-3.433,-3.423,-3.4416,-3.4447,-3.3657,-3.3917,-3.4259,-3.3951,-3.4088,-3.4047,-3.3225,-3.3072,-3.2896,-3.2278,-3.1993,-3.1864,-3.1724,-3.14,-3.0881,-3.0102,-2.9517,-2.8879,-2.8119,-2.7835,-2.7915,-2.8369,-2.7688,-2.7233,-2.7304,-2.7037,-2.6611,-2.5935,-2.5571,-2.5335,-2.5253,-2.5111,-2.4921,-2.4634,-2.4729,-2.4454,-2.3982,-2.3982,-2.3982,-2.4272,-2.5821,-2.7424,-2.855,-2.8458,-2.8275,-2.895,-2.8959,-2.8791,-2.8707,-2.9399,0.0,0.0,-3.233,0.0,0.0,0.0,0.0,0.0,0.0,0.0,0.0,0.0,0.0,0.0,0.0,0.0,0.0,0.0,0.0,-4.1495,-4.0732,-4.0418,-4.0801,-4.0738,-4.0483,-3.9998,-3.9659,-3.9251,-3.884,-3.8872,-3.8654,-3.8182,-3.8398,-3.838,-3.8209,-3.8209,-3.8209,-3.818,-3.7976,-3.7801,-3.7687,-3.7539,-3.6981,-3.6209,-3.5913,-3.4957,-3.4032,-3.5492,-3.5247,-3.4454,-3.5611,-3.6068,-3.6164,-3.6164,-3.61,-3.5973,-3.5752,-3.5302,-3.4876,-3.4843,-3.4639,-3.4399,-3.4308,-3.4201,-3.4059,-3.3917,-3.3917,-3.3848,-3.3618,-3.3548,-3.352,-3.3492,-3.329,-3.2988,-3.2426,-3.2143,-3.1653,-3.0671,-2.9761,-2.9074,-2.8701,-2.7964,-2.759,-2.7866,-2.8417,-2.8323,-2.7379,-2.6816,-2.6317,-2.591,-2.5676,-2.543,-2.5111,-2.4921,-2.4634,-2.4236,-2.4418,-2.4127,-2.3372,-2.3922,-2.3909,-2.4805,-2.622,-2.763,-2.8752,-2.9104,-2.9544,-3.0747,-3.0925,-3.0661,-2.9988,-3.1043,0.0,0.0,0.0,0.0,0.0,0.0,0.0,0.0,0.0,0.0,0.0,0.0,0.0,0.0,0.0,0.0,0.0,0.0,0.0,-4.1753,-4.1367,-4.1242,-4.1501,-4.1501,-4.1438,-4.1309,-4.0547,-4.0038,-3.9683,-3.8809,-3.8091,-3.7586,-3.7738,-3.7685,-3.7536,-3.7873,-3.7722,-3.7224,-3.7494,-3.7506,-3.7326,-3.6945,-3.6229,-3.5373,-3.5225,-3.449,-3.364,-3.4545,-3.4485,-3.4181,-3.5186,-3.5734,-3.6132,-3.632,-3.6195,-3.5973,-3.591,-3.5427,-3.4902,-3.4902,-3.4635,-3.4399,-3.4399,-3.423,-3.4059,-3.3917,-3.3882,-3.3779,-3.3466,-3.3501,-3.357,-3.3431,-3.3227,-3.3038,-3.2814,-3.2513,-3.1803,-3.0438,-2.9908,-2.9198,-2.8076,-2.8075,-2.8148,-2.8022,-2.8573,-2.8374,-2.7201,-2.6926,-2.6536,-2.5935,-2.5571,-2.5359,-2.5253,-2.4957,-2.4634,-2.4381,-2.4454,-2.4236,-2.3666,-2.4055,-2.4091,-2.5486,-2.6642,-2.7813,-2.884,-2.9571,-3.0454,-3.2138,-3.2164,-3.1686,-3.1095,-3.2161,-3.3455,-3.4386,0.0,0.0,0.0,0.0,0.0,0.0,0.0,0.0,0.0,0.0,0.0,0.0,0.0,0.0,0.0,0.0,0.0,0.0,-4.1086,-4.1149,-4.1564,-4.1564,-4.1724,-4.2109,-4.1086,-4.0386,-3.9908,-3.8622,-3.7748,-3.7372,-3.7524,-3.7347,-3.6978,-3.7288,-3.6953,-3.6235,-3.6564,-3.6607,-3.6428,-3.6077,-3.5363,-3.4566,-3.454,-3.4087,-3.3609,-3.4238,-3.4424,-3.4516,-3.5217,-3.5766,-3.6195,-3.6352,-3.6226,-3.6005,-3.5941,-3.5427,-3.4902,-3.4902,-3.4635,-3.4399,-3.4399,-3.423,-3.4059,-3.3917,-3.3848,-3.3709,-3.3361,-3.3396,-3.3466,-3.3326,-3.3122,-3.2988,-3.2917,-3.2632,-3.1937,-3.0725,-3.0164,-2.9255,-2.762,-2.8244,-2.8638,-2.8231,-2.8812,-2.865,-2.7415,-2.7232,-2.6766,-2.583,-2.5535,-2.5324,-2.5147,-2.4921,-2.4693,-2.449,-2.4454,-2.4273,-2.4018,-2.4164,-2.42,-2.6273,-2.7093,-2.7921,-2.8868,-2.9711,-3.0832,-3.2732,-3.2304,-3.1556,-3.1771,-3.2547,-3.3423,-3.412,-3.5492,0.0,0.0,0.0,0.0,0.0,0.0,0.0,0.0,0.0,0.0,0.0,0.0,0.0,0.0,0.0,0.0,0.0,-3.969,-3.9882,-4.0769,-4.0801,-4.1247,-4.2077,-4.1086,-4.0261,-3.9566,-3.8498,-3.7872,-3.7684,-3.7904,-3.7492,-3.6572,-3.646,-3.6023,-3.5394,-3.525,-3.508,-3.4909,-3.4878,-3.4472,-3.388,-3.374,-3.3684,-3.3813,-3.4668,-3.5217,-3.5553,-3.5856,-3.6226,-3.6445,-3.6258,-3.6132,-3.5973,-3.5752,-3.5299,-3.4902,-3.4902,-3.4635,-3.4399,-3.4399,-3.423,-3.4059,-3.3917,-3.3744,-3.3536,-3.3361,-3.329,-3.329,-3.329,-3.3122,-3.2917,-3.2739,-3.2525,-3.22,-3.1653,-3.0539,-2.9159,-2.7486,-2.8426,-2.8997,-2.8428,-2.9265,-2.9302,-2.8172,-2.7705,-2.6919,-2.5654,-2.5606,-2.5348,-2.4801,-2.4801,-2.4693,-2.449,-2.4309,-2.42,-2.42,-2.42,-2.42,-2.6596,-2.7414,-2.8121,-2.9454,0.0,0.0,-3.2557,-3.2517,-3.2582,0.0,-3.3712,-3.4186,-3.5499,0.0,0.0,0.0,0.0,0.0,0.0,0.0,0.0,0.0,0.0,0.0,0.0,0.0,0.0,0.0,0.0,0.0,0.0,-3.9913,-4.0132,-4.0287,-4.1214,-4.1598,-4.1405,-4.0702,-3.9875,-3.8807,-3.799,-3.7492,-3.734,-3.7401,-3.6857,-3.5908,-3.6156,-3.56,-3.4506,-3.475,-3.4543,-3.4079,-3.4163,-3.3699,-3.297,-3.2943,-3.286,-3.2807,-3.2984,-3.3414,-3.3962,-3.4545,-3.5065,-3.5553,-3.6042,-3.6006,-3.5784,-3.572,-3.5427,-3.5067,-3.4935,-3.4735,-3.4597,-3.4428,-3.4191,-3.3951,-3.3882,-3.364,-3.3361,-3.3326,-3.329,-3.3255,-3.3094,-3.2917,-3.2739,-3.2525,-3.2372,-3.1712,-3.0173,-2.895,-2.7934,-2.7348,-2.7647,-2.8094,-2.8724,-2.8686,-2.8473,-2.8122,-2.7358,-2.6587,-2.583,-2.543,-2.5147,-2.5028,-2.4742,-2.4562,-2.449,-2.4309,-2.42,-2.42,-2.42,-2.42,-2.691,-2.7906,0.0,-3.0045,-3.1397,-3.2527,-3.3034,0.0,0.0,0.0,-3.4276,-3.4416,-3.571,-3.6167,0.0,0.0,0.0,0.0,0.0,0.0,0.0,0.0,0.0,0.0,0.0,0.0,0.0,0.0,0.0,0.0,0.0,-3.8999,-3.9314,-3.9847,-4.0483,-4.0863,-4.0991,-3.9838,-3.8914,-3.8169,-3.7383,-3.6949,-3.6801,-3.7053,-3.6603,-3.5506,-3.5068,-3.4523,-3.4001,-3.4428,-3.4189,-3.363,-3.3994,-3.347,-3.2523,-3.2523,-3.2622,-3.2754,-3.2588,-3.3047,-3.3778,-3.4242,-3.4729,-3.5186,-3.5793,-3.5847,-3.5688,-3.5653,-3.5394,-3.5162,-3.4935,-3.4802,-3.4631,-3.4332,-3.4088,-3.3882,-3.3779,-3.3536,-3.3326,-3.3396,-3.3361,-3.329,-3.3262,-3.2917,-3.2632,-3.2417,-3.2009,-3.1106,-2.9379,-2.8539,-2.7814,-2.7122,-2.7308,-2.7798,-2.8512,-2.8298,-2.8097,-2.8097,-2.7234,-2.6476,-2.5935,-2.543,-2.5111,-2.4992,-2.4742,-2.4562,-2.449,-2.4309,-2.42,-2.42,-2.42,-2.42,-2.7251,-2.8425,-2.958,-3.063,-3.1812,0.0,-3.4075,-3.4053,-3.3999,-3.4547,0.0,-3.4298,-3.5056,0.0,0.0,0.0,0.0,0.0,0.0,0.0,0.0,0.0,0.0,0.0,0.0,0.0,0.0,0.0,0.0,0.0,0.0,-3.7512,-3.793,-3.9314,-3.9056,-3.9432,-4.0515,-3.8637,-3.7648,-3.7491,-3.6714,-3.6256,-3.6142,-3.6831,-3.645,-3.5177,-3.3611,-3.3205,-3.3746,-3.4193,-3.3983,-3.346,-3.4166,-3.3581,-3.2382,-3.2382,-3.2782,-3.3249,-3.2993,-3.3537,-3.4387,-3.4546,-3.488,-3.5247,-3.5572,-3.5688,-3.5655,-3.5554,-3.5359,-3.5195,-3.4968,-3.4802,-3.4631,-3.4196,-3.402,-3.3848,-3.364,-3.3466,-3.3396,-3.3536,-3.3431,-3.3326,-3.3501,-3.3051,-3.2561,-3.2345,-3.1569,-3.0481,-2.9155,-2.898,-2.8408,-2.6822,-2.7287,-2.7827,-2.8097,-2.8072,-2.801,-2.8097,-2.7234,-2.6476,-2.5935,-2.55,-2.5111,-2.4801,-2.4801,-2.467,-2.4454,-2.4309,-2.42,-2.42,-2.42,-2.42,-2.74,-2.8369,0.0,-3.1128,-3.2849,-3.4325,-3.5168,-3.5123,-3.4728,-3.4337,-3.4162,-3.4306,0.0,0.0,0.0,0.0,0.0,0.0,0.0,0.0,0.0,0.0,0.0,0.0,0.0,0.0,0.0,0.0,0.0,0.0,-3.7506,-3.7865,-3.8152,-3.831,-3.9154,-3.9179,-3.8384,-3.8054,-3.7256,0.0,-3.5876,-3.5644,-3.5448,-3.6227,-3.5754,-3.4313,-3.3337,-3.3205,-3.3715,-3.3668,-3.3552,-3.3429,-3.3583,-3.3121,-3.2382,-3.2382,-3.2419,-3.2433,-3.2266,-3.2692,-3.342,-3.3849,-3.4455,-3.5124,-3.554,-3.5688,-3.5655,-3.5554,-3.5457,-3.5359,-3.5001,-3.4868,-3.4735,-3.423,-3.4094,-3.3957,-3.3675,-3.357,-3.3501,-3.3396,-3.3192,-3.3023,-3.2917,-3.2588,-3.2191,-3.1853,-3.1187,-3.0258,-2.8949,-2.8759,-2.8187,-2.6625,-2.676,-2.732,-2.8279,-2.7659,-2.7476,-2.8072,-2.7234,-2.6476,-2.5935,-2.5394,-2.5028,-2.4801,-2.4634,-2.4454,-2.4273,-2.4236,-2.42,-2.42,-2.42,-2.42,-2.6947,-2.7968,0.0,-3.2109,0.0,-3.4562,-3.5302,-3.5015,-3.4496,-3.3968,-3.3897,0.0,0.0,0.0,0.0,0.0,0.0,0.0,0.0,0.0,0.0,0.0,0.0,0.0,0.0,0.0,0.0,0.0,0.0,-3.7329,-3.7626,-3.7736,-3.7901,-3.8246,-3.8555,-3.8358,-3.7599,-3.6843,-3.5928,-3.4885,-3.4746,-3.4666,-3.4582,-3.4983,-3.4764,-3.3987,-3.3107,-3.3118,-3.3655,-3.3455,-3.3398,-3.3398,-3.3312,-3.2885,-3.2302,-3.2247,-3.2163,-3.2109,-3.194,-3.2394,-3.306,-3.3517,-3.4211,-3.4968,-3.5473,-3.5589,-3.5589,-3.5522,-3.5519,-3.5424,-3.51,-3.4968,-3.4802,-3.4332,-3.4162,-3.3991,-3.3675,-3.3675,-3.3675,-3.3466,-3.3262,-3.3122,-3.3016,-3.2552,-3.2073,-3.1669,-3.1112,-3.0249,-2.9091,-2.8787,-2.825,-2.7097,-2.6881,-2.7268,-2.829,-2.763,-2.7376,-2.79,-2.7162,-2.644,-2.577,-2.5324,-2.5028,-2.4801,-2.4693,-2.449,-2.42,-2.42,-2.42,-2.42,-2.42,-2.42,-2.6356,-2.7855,-2.9493,-3.2916,-3.3906,0.0,-3.4851,-3.448,-3.391,-3.3674,0.0,0.0,0.0,0.0,0.0,0.0,0.0,0.0,0.0,0.0,0.0,0.0,0.0,0.0,0.0,0.0,0.0,0.0,0.0,-3.7331,-3.7831,-3.7543,-3.7677,-3.8333,-3.7861,-3.748,-3.7162,-3.5645,-3.456,-3.3858,-3.3553,-3.3591,-3.3852,-3.3699,-3.3637,-3.3606,-3.2908,-3.298,-3.3599,-3.3486,-3.337,-3.3341,-3.3257,-3.2802,-3.2135,-3.2053,-3.1996,-3.194,-3.1856,-3.234,-3.3123,-3.3396,-3.4116,-3.4961,-3.5372,-3.5522,-3.5522,-3.5519,-3.5519,-3.5424,-3.5228,-3.5001,-3.4835,-3.4467,-3.4264,-3.4059,-3.3709,-3.3779,-3.3848,-3.364,-3.3396,-3.3185,-3.3114,-3.258,-3.2036,-3.1606,-3.1048,-3.0289,-2.9186,-2.8988,-2.8624,-2.7738,-2.7369,-2.7523,-2.8388,-2.7803,-2.7512,-2.7827,-2.7298,-2.6625,-2.5811,-2.5468,-2.5099,-2.4801,-2.4765,-2.4562,-2.42,-2.42,-2.42,-2.42,-2.42,-2.42,-2.6273,0.0,-3.1298,0.0,-3.3156,-3.3696,0.0,0.0,-3.3938,0.0,0.0,0.0,0.0,0.0,0.0,0.0,0.0,0.0,0.0,0.0,0.0,0.0,0.0,0.0,0.0,0.0,0.0,0.0,-3.7856,-3.751,-3.7716,-3.7957,-3.793,-3.7638,-3.7929,-3.7331,-3.5679,-3.5146,-3.4198,-3.278,-3.2536,-3.2875,-3.3712,-3.2953,-3.2592,-3.2619,-3.2582,-3.2869,-3.3286,-3.3341,-3.3312,-3.3228,-3.32,-3.2717,-3.2025,-3.2025,-3.1912,-3.1828,-3.1828,-3.2524,-3.3426,-3.3515,-3.4448,-3.5565,-3.5492,-3.5557,-3.5653,-3.5522,-3.5519,-3.5392,-3.5034,-3.4935,-3.4835,-3.4467,-3.4366,-3.4293,-3.3917,-3.3882,-3.3848,-3.364,-3.3157,-3.2668,-3.24,-3.2109,-3.1817,-3.1384,-3.0999,-3.016,-2.8689,-2.9314,-2.9389,-2.8001,-2.7936,-2.8131,-2.8605,-2.8094,-2.7839,-2.806,-2.8089,-2.7618,-2.6612,-2.6178,-2.5624,-2.4801,-2.4634,-2.4418,-2.42,-2.42,-2.42,-2.42,-2.42,-2.42,-2.5101,-2.7595,-2.9899,0.0,-3.2197,-3.2556,-3.3185,0.0,0.0,0.0,0.0,0.0,0.0,0.0,0.0,0.0,0.0,0.0,0.0,0.0,0.0,0.0,0.0,0.0,0.0,0.0,0.0,0.0,-3.7476,-3.7352,-3.6999,-3.777,-3.8058,-3.7807,-3.8058,-3.7618,-3.6418,-3.5254,-3.4068,-3.2826,-3.3052,-3.329,-3.3512,-3.3118,-3.2752,-3.2382,-3.2385,-3.2486,-3.2619,-3.2621,-3.2593,-3.2507,-3.245,-3.2213,-3.1855,-3.1769,-3.1683,-3.1686,-3.2046,-3.2766,-3.3544,-3.3933,-3.4745,-3.5587,-3.5522,-3.5554,-3.5587,-3.5522,-3.5424,-3.5294,-3.51,-3.4902,-3.4765,-3.4597,-3.4496,-3.4361,-3.4225,-3.4191,-3.4088,-3.3675,-3.3122,-3.2632,-3.2516,-3.1973,-3.1495,-3.1283,-3.0861,-3.0227,-2.9452,-2.9872,-2.9921,-2.9088,-2.8547,-2.8515,-2.9102,-2.8419,-2.8075,-2.84,-2.8348,-2.79,-2.7005,-2.6698,-2.615,-2.5284,-2.487,-2.449,-2.42,-2.42,-2.42,-2.42,-2.4328,-2.4428,0.0,0.0,-2.8632,-3.0503,-3.112,-3.1476,0.0,0.0,0.0,0.0,0.0,0.0,0.0,0.0,0.0,0.0,0.0,0.0,0.0,0.0,0.0,0.0,0.0,0.0,0.0,0.0,0.0,0.0,-3.7013,-3.6981,-3.6576,-3.7526,-3.806,-3.7997,-3.8091,-3.7839,-3.7211,-3.536,-3.4084,-3.3425,-3.3456,-3.3514,-3.3529,-3.3192,-3.2791,-3.2382,-3.2274,-3.2135,-3.2079,-3.2025,-3.1968,-3.194,-3.1856,-3.1771,-3.1683,-3.1568,-3.1511,-3.157,-3.2079,-3.2796,-3.3544,-3.3873,-3.4562,-3.522,-3.504,-3.51,-3.525,-3.525,-3.5272,-3.5261,-3.5162,-3.4964,-3.4731,-3.4631,-3.453,-3.4366,-3.4332,-3.4327,-3.4122,-3.3605,-3.3051,-3.2632,-3.2632,-3.1873,-3.1272,-3.1246,-3.0823,-3.0355,-2.9999,-3.0253,-3.0289,-2.9833,-2.9175,-2.8952,-2.946,-2.8808,-2.8499,-2.8737,-2.862,-2.8218,-2.7505,-2.7241,-2.6661,-2.5728,-2.5292,-2.4818,-2.42,-2.4242,-2.4311,-2.4333,-2.4574,-2.4725,0.0,-2.6862,0.0,-2.9214,-2.9993,0.0,0.0,0.0,0.0,0.0,0.0,0.0,0.0,0.0,0.0,0.0,0.0,0.0,0.0,0.0,0.0,0.0,0.0,0.0,0.0,0.0,0.0,0.0,-3.6899,-3.646,-3.6936,-3.7468,-3.7809,-3.7997,-3.7997,-3.7747,-3.7211,-3.5211,-3.4333,-3.4572,-3.3095,-3.2886,-3.3818,-3.2632,-3.2193,-3.2382,-3.2274,-3.2023,-3.1739,-3.191,-3.1912,-3.1828,-3.1799,-3.1655,-3.1511,-3.1511,-3.1511,-3.1511,-3.154,-3.2407,-3.3395,-3.2796,-3.3484,-3.4444,-3.3784,-3.4023,-3.4563,-3.4563,-3.5011,-3.5392,-3.5001,-3.4902,-3.4802,-3.4467,-3.4399,-3.4332,-3.4162,-3.402,-3.3813,-3.3396,-3.2838,-3.2417,-3.2417,-3.18,-3.131,-3.131,-3.0962,-3.0416,-2.9651,-3.0211,-3.0465,-2.987,-2.9755,-2.9682,-2.9523,-2.9274,-2.9062,-2.8888,-2.9005,-2.8797,-2.8281,-2.7873,-2.7109,-2.5992,-2.5945,-2.5367,-2.42,-2.4459,-2.4574,-2.4597,-2.4857,-2.4965,0.0,0.0,0.0,-2.809,-2.8655,-2.9285,0.0,0.0,0.0,0.0,0.0,0.0,0.0,0.0,0.0,0.0,0.0,0.0,0.0,0.0,0.0,0.0,0.0,0.0,0.0,0.0,0.0,0.0,0.0,-3.6311,-3.6784,-3.7374,-3.8085,-3.895,-3.8211,-3.725,-3.6134,-3.5585,-3.4879,-3.3937,-3.363,-3.3394,-3.3124,-3.3242,-3.3145,-3.2918,-3.2747,-3.242,-3.1853,-3.1741,-3.1655,-3.1597,-3.1597,-3.1568,-3.1511,-3.1511,-3.1511,-3.157,-3.1989,-3.2437,-3.2886,-3.3095,-3.3423,-3.3689,-3.342,-3.3745,-3.4154,-3.4154,-3.4593,-3.4964,-3.4831,-3.4698,-3.4534,-3.4428,-3.4399,-3.4366,-3.4298,-3.4088,-3.3848,-3.3709,-3.3086,-3.2561,-3.2417,-3.1763,-3.1272,-3.1123,-3.0887,-3.0582,-3.03,-3.0644,-3.0809,-3.0574,-3.0099,-2.9899,-3.0073,-2.9541,-2.9302,-2.9453,-2.9227,-2.8993,-2.8821,-2.843,-2.7734,-2.6722,-2.6566,-2.5908,-2.4725,-2.4828,-2.488,-2.488,-2.5318,-2.5423,-2.4797,0.0,0.0,0.0,0.0,-2.8127,0.0,0.0,0.0,0.0,0.0,0.0,0.0,0.0,0.0,0.0,0.0,0.0,0.0,0.0,0.0,0.0,0.0,0.0,0.0,0.0,0.0,0.0,0.0,0.0,-3.6753,-3.7062,-3.7617,-3.8542,-3.7991,-3.7095,-3.583,-3.6012,-3.5424,-3.4174,-3.3862,-3.3416,-3.2796,-3.3096,-3.2976,-3.2489,-3.2731,-3.273,-3.2488,-3.1806,-3.163,-3.1809,-3.16,-3.1511,-3.1511,-3.1511,-3.1482,-3.1512,-3.193,-3.2199,-3.2348,-3.2616,-3.2763,-3.282,-3.2613,-3.3053,-3.3638,-3.3638,-3.4221,-3.4765,-3.4698,-3.4563,-3.4399,-3.4399,-3.4399,-3.4399,-3.4399,-3.4191,-3.3951,-3.3882,-3.3297,-3.2739,-3.2453,-3.1836,-3.1347,-3.1224,-3.0962,-3.0849,-3.0887,-3.0962,-3.0973,-3.0973,-3.0522,-3.0258,-3.0419,-2.9896,-2.9656,-2.9793,-2.9365,-2.9091,-2.9091,-2.8697,-2.8132,-2.738,-2.7062,-2.6462,-2.5502,-2.5266,-2.5177,-2.5279,-2.5712,-2.5876,0.0,0.0,0.0,0.0,0.0,0.0,-2.8359,0.0,0.0,0.0,0.0,0.0,0.0,0.0,0.0,0.0,0.0,0.0,0.0,0.0,0.0,0.0,0.0,0.0,0.0,0.0,0.0,0.0,-3.4695,-3.5156,-3.6945,-3.6558,-3.6413,-3.6693,-3.7343,-3.7311,-3.6507,-3.632,-3.5973,-3.5459,-3.3669,-3.2893,-3.2958,-3.2216,-3.157,-3.1102,-3.208,-3.2946,-3.3547,-3.2107,-3.1869,-3.2407,-3.175,-3.1511,-3.1511,-3.1511,-3.1424,-3.1307,-3.1278,-3.1605,-3.1869,-3.1309,-3.1485,-3.1869,-3.1279,-3.1987,-3.2987,-3.2987,-3.393,-3.4868,-3.4731,-3.4563,-3.4399,-3.4399,-3.4399,-3.4399,-3.4399,-3.423,-3.4059,-3.3917,-3.3403,-3.2881,-3.2489,-3.1982,-3.1606,-3.1596,-3.1261,-3.1086,-3.1272,-3.1123,-3.1011,-3.0973,-3.0973,-3.0823,-3.0444,-3.0406,-3.0216,-2.9818,-2.9365,-2.9091,-2.9091,-2.8697,-2.8323,-2.7921,-2.7452,-2.6981,-2.6528,-2.5835,-2.5591,-2.5815,-2.6061,-2.6199,-2.5547,0.0,0.0,0.0,0.0,0.0,-2.6517,-2.79,-2.9435,0.0,0.0,0.0,0.0,0.0,0.0,0.0,0.0,0.0,0.0,0.0,0.0,0.0,0.0,0.0,0.0,0.0,0.0,0.0,-3.4515,-3.5155,-3.7613,-3.8144,-3.7822,-3.66,-3.7217,-3.7216,-3.6507,-3.6195,-3.5636,-3.4743,-3.3876,-3.3208,-3.2769,-3.3062,-3.2857,-3.2242,-3.2697,-3.2874,-3.2777,-3.1872,-3.16,-3.175,-3.157,-3.1511,-3.1511,-3.1365,-3.1307,-3.1278,-3.119,-3.125,-3.1309,-3.1132,-3.1102,-3.1188,-3.1512,-3.2094,-3.2727,-3.3226,-3.3955,-3.4534,-3.4467,-3.4462,-3.4399,-3.4399,-3.4399,-3.4399,-3.4399,-3.4332,-3.4259,-3.3951,-3.3536,-3.3086,-3.2704,-3.23,-3.1973,-3.1853,-3.1596,-3.141,-3.131,-3.1235,-3.1161,-3.1011,-3.0973,-3.0823,-3.0444,-3.0406,-3.0216,-2.9818,-2.9365,-2.9091,-2.9091,-2.8697,-2.8379,-2.8099,-2.7632,-2.7185,-2.6798,-2.6127,-2.5834,-2.5876,-2.5966,-2.6135,-2.5489,-2.5379,-2.5214,0.0,0.0,0.0,-2.598,-2.7026,-2.8282,0.0,0.0,0.0,0.0,0.0,0.0,0.0,0.0,0.0,0.0,0.0,0.0,0.0,0.0,0.0,0.0,-3.4395,-3.4212,-3.4668,-3.4182,-3.4849,-3.7036,-3.7895,-3.7691,-3.6444,-3.6751,-3.675,-3.6289,-3.6005,-3.5539,-3.4893,-3.4015,-3.3369,-3.2922,-3.3169,-3.2865,-3.2224,-3.2809,-3.2844,-3.2489,-3.2224,-3.1961,-3.1693,-3.1484,-3.1424,-3.1424,-3.1278,-3.1131,-3.1073,-3.1014,-3.0955,-3.0895,-3.0895,-3.0806,-3.0863,-3.1476,-3.2053,-3.2658,-3.3329,-3.3906,-3.4366,-3.4298,-3.4332,-3.4366,-3.4298,-3.4264,-3.4264,-3.4264,-3.4264,-3.4196,-3.3951,-3.364,-3.3262,-3.2775,-3.2453,-3.2228,-3.2073,-3.178,-3.1596,-3.1532,-3.131,-3.1161,-3.1123,-3.0999,-3.0773,-3.0444,-3.033,-3.0164,-2.9818,-2.9365,-2.9091,-2.9091,-2.8697,-2.8419,-2.8339,-2.7898,-2.7412,-2.6903,-2.6324,-2.6032,-2.6032,-2.6157,-2.6365,-2.5047,-2.4719,-2.453,0.0,-2.4449,0.0,-2.6022,-2.6694,-2.7456,-2.88,0.0,0.0,0.0,0.0,0.0,0.0,0.0,0.0,0.0,0.0,0.0,0.0,0.0,0.0,-3.4789,-3.4213,-3.3879,-3.397,-3.4,-3.4604,-3.5944,-3.6641,-3.6736,-3.6226,-3.6196,-3.6163,-3.6005,-3.5784,-3.5653,-3.5522,-3.4211,-3.3525,-3.3392,-3.302,-3.241,-3.1711,-3.2687,-3.2869,-3.2483,-3.2769,-3.2575,-3.1988,-3.1575,-3.1396,-3.1278,-3.1132,-3.0955,-3.0806,-3.0806,-3.0687,-3.0598,-3.0598,-3.0656,-3.083,-3.1438,-3.2075,-3.2745,-3.3383,-3.3931,-3.4332,-3.4162,-3.423,-3.4298,-3.4128,-3.4094,-3.4094,-3.4094,-3.4128,-3.4094,-3.3917,-3.3744,-3.3431,-3.2846,-3.2561,-3.2345,-3.2228,-3.189,-3.1669,-3.1853,-3.1373,-3.1086,-3.1235,-3.0924,-3.0622,-3.0406,-3.0216,-3.0011,-2.9804,-2.9365,-2.9091,-2.9091,-2.8697,-2.8522,-2.8522,-2.8082,-2.7557,-2.6921,-2.649,-2.6282,-2.624,-2.6467,-2.6592,0.0,0.0,0.0,0.0,0.0,0.0,-2.4439,-2.5685,-2.6947,0.0,0.0,0.0,0.0,0.0,0.0,0.0,0.0,0.0,0.0,0.0,0.0,0.0,0.0,0.0,-3.3424,-3.3035,-3.3126,-3.3879,-3.5204,-3.5954,-3.6004,-3.6641,-3.6736,-3.6226,-3.6196,-3.6163,-3.6005,-3.5784,-3.5688,-3.5623,-3.4655,-3.4359,-3.453,-3.4028,-3.3407,-3.2639,-3.302,-3.2766,-3.2098,-3.2263,-3.2359,-3.2378,-3.2169,-3.1783,-3.1248,-3.0984,-3.0836,-3.0806,-3.0657,-3.0598,-3.0598,-3.0598,-3.0916,-3.1467,-3.2135,-3.2774,-3.3412,-3.3883,-3.4075,-3.4162,-3.4128,-3.4054,-3.402,-3.4094,-3.4094,-3.4094,-3.4094,-3.423,-3.4259,-3.3951,-3.3744,-3.3466,-3.3023,-3.2632,-3.2381,-3.2345,-3.2046,-3.178,-3.1669,-3.141,-3.1198,-3.1048,-3.0849,-3.0622,-3.0406,-3.0216,-3.0011,-2.9804,-2.9365,-2.9091,-2.9091,-2.8697,-2.8522,-2.8522,-2.7898,-2.7429,-2.7144,-2.688,-2.6674,-2.6509,-2.655,-2.6674,0.0,0.0,0.0,-2.5331,0.0,0.0,0.0,-2.5688,-2.6496,0.0,0.0,0.0,0.0,0.0,0.0,0.0,0.0,0.0,0.0,0.0,0.0,0.0,0.0,0.0,-3.3396,-3.2766,-3.2766,-3.3638,-3.4506,-3.5259,-3.5816,-3.6179,-3.6211,-3.5943,-3.5943,-3.5911,-3.5847,-3.5686,-3.5589,-3.5589,-3.4935,-3.4702,-3.4769,-3.423,-3.3751,-3.3334,-3.3436,-3.3331,-3.3078,-3.3343,-3.3355,-3.3177,-3.2697,-3.2342,-3.2107,-3.1771,-3.1647,-3.1589,-3.1208,-3.1032,-3.1003,-3.0714,-3.0942,-3.1546,-3.2278,-3.3115,-3.3826,-3.3939,-3.402,-3.3985,-3.3882,-3.3882,-3.3917,-3.3985,-3.3917,-3.3888,-3.4059,-3.4157,-3.4122,-3.402,-3.3779,-3.3466,-3.3058,-3.2668,-3.2381,-3.2336,-3.2,-3.1706,-3.1596,-3.1336,-3.1161,-3.1161,-3.0785,-3.0482,-3.0406,-3.0126,-2.9895,-2.9804,-2.9365,-2.9091,-2.9091,-2.8697,-2.8459,-2.8339,-2.8018,-2.7672,-2.7348,-2.7249,-2.7003,-2.6592,-2.6674,-2.6798,0.0,0.0,0.0,0.0,0.0,-2.612,0.0,0.0,0.0,0.0,0.0,0.0,0.0,0.0,0.0,0.0,0.0,0.0,0.0,0.0,0.0,0.0,0.0,0.0,0.0,-3.2736,-3.2616,-3.3214,-3.3544,-3.4236,-3.5446,-3.5659,-3.5752,-3.5688,-3.5688,-3.5688,-3.5655,-3.5554,-3.5519,-3.5519,-3.5067,-3.4868,-3.4831,-3.4196,-3.3957,-3.4025,-3.3894,-3.3991,-3.423,-3.4496,-3.4409,-3.408,-3.324,-3.2918,-3.2924,-3.2608,-3.2481,-3.2394,-3.1872,-3.1669,-3.1611,-3.1089,-3.1226,-3.1763,-3.2558,-3.3388,-3.4025,-3.3882,-3.3848,-3.3779,-3.364,-3.3709,-3.3848,-3.3882,-3.3779,-3.3744,-3.3991,-3.3985,-3.3917,-3.3991,-3.3716,-3.3368,-3.3094,-3.2704,-3.2345,-3.2218,-3.1853,-3.1596,-3.1559,-3.1224,-3.1048,-3.1235,-3.0785,-3.0444,-3.0406,-3.0088,-2.9818,-2.9804,-2.9365,-2.9091,-2.9091,-2.8697,-2.8419,-2.8219,-2.8179,-2.7938,-2.751,-2.7429,-2.7208,-2.6715,-2.6903,-2.6985,0.0,0.0,0.0,0.0,-2.641,0.0,0.0,0.0,-2.5771,-2.5992,0.0,0.0,0.0,0.0,0.0,0.0,0.0,0.0,0.0,0.0,0.0,0.0,0.0,0.0,0.0,-3.2198,-3.2467,-3.2436,-3.3662,-3.4506,-3.4813,-3.5545,-3.5878,-3.572,-3.5688,-3.5653,-3.5522,-3.5489,-3.5519,-3.5519,-3.5067,-3.5067,-3.5359,-3.4635,-3.4501,-3.4769,-3.4264,-3.4264,-3.4597,-3.4298,-3.4409,-3.4725,-3.3885,-3.3235,-3.2706,-3.2576,-3.2481,-3.2481,-3.2394,-3.2365,-3.2365,-3.2086,-3.2327,-3.2892,-3.3691,-3.3939,-3.3882,-3.3675,-3.364,-3.364,-3.3605,-3.3605,-3.3675,-3.3848,-3.3882,-3.3882,-3.3917,-3.3917,-3.3848,-3.3675,-3.3333,-3.3094,-3.3227,-3.2775,-3.2345,-3.2218,-3.1853,-3.1522,-3.1347,-3.1123,-3.1011,-3.1011,-3.0811,-3.0584,-3.0406,-3.0177,-2.9972,-2.9804,-2.9365,-2.9091,-2.9091,-2.8697,-2.8419,-2.8219,-2.8042,-2.7777,-2.751,-2.733,-2.719,-2.7149,-2.7149,-2.719,0.0,0.0,0.0,0.0,0.0,0.0,-2.7453,0.0,-2.6301,0.0,0.0,0.0,0.0,0.0,0.0,0.0,-2.6186,0.0,0.0,0.0,0.0,0.0,0.0,0.0,0.0,0.0,0.0,0.0,-3.2945,-3.3515,-3.3966,-3.4783,-3.5177,-3.4988,-3.5379,-3.5554,-3.5519,-3.5519,-3.5519,-3.5519,-3.5326,-3.5326,-3.5457,-3.4935,-3.4769,-3.4902,-3.4668,-3.4534,-3.453,-3.4568,-3.4568,-3.4572,-3.4243,-3.4014,-3.3846,-3.3682,-3.3583,-3.3558,-3.3209,-3.2999,-3.2869,-3.2544,-3.2616,-3.2992,-3.3614,-3.3779,-3.3709,-3.3605,-3.3536,-3.3431,-3.3431,-3.3431,-3.3466,-3.3536,-3.3437,-3.3403,-3.3542,-3.3472,-3.3403,-3.357,-3.3396,-3.3157,-3.3122,-3.2552,-3.2046,-3.1863,-3.1606,-3.1347,-3.1161,-3.1048,-3.0973,-3.0973,-3.0811,-3.0622,-3.0406,-3.0216,-3.0011,-2.9804,-2.9365,-2.9013,-2.8736,-2.8602,-2.8363,-2.8042,-2.7921,-2.7719,-2.733,-2.7231,-2.719,-2.719,-2.719,-2.719,-2.9787,0.0,0.0,0.0,0.0,0.0,0.0,0.0,0.0,0.0,0.0,0.0,0.0,0.0,0.0,0.0,0.0,-2.5655,0.0,0.0,0.0,0.0,0.0,0.0,0.0,0.0,0.0,0.0,0.0,-3.2766,-3.3455,-3.4118,-3.4539,-3.4773,-3.507,-3.531,-3.5519,-3.5424,-3.5424,-3.5519,-3.5424,-3.5424,-3.5519,-3.5067,-3.4935,-3.4968,-3.4835,-3.4635,-3.4496,-3.4668,-3.4601,-3.4399,-3.4399,-3.4462,-3.453,-3.4366,-3.4298,-3.424,-3.3777,-3.3499,-3.3298,-3.3033,-3.2965,-3.3084,-3.3463,-3.357,-3.3536,-3.3536,-3.3396,-3.329,-3.329,-3.329,-3.329,-3.329,-3.3157,-3.3058,-3.3199,-3.3094,-3.3094,-3.3368,-3.3262,-3.3086,-3.2881,-3.2408,-3.1936,-3.1616,-3.1421,-3.1235,-3.1011,-3.0973,-3.0973,-3.0973,-3.0887,-3.0698,-3.0406,-3.0254,-3.0061,-2.9849,-2.951,-2.9154,-2.8739,-2.8715,-2.8466,-2.7881,-2.7881,-2.7679,-2.719,-2.719,-2.719,-2.719,-2.719,-2.719,0.0,0.0,0.0,-3.0173,0.0,0.0,0.0,0.0,-2.7273,0.0,0.0,0.0,0.0,0.0,-2.5661,-2.5522,-2.5241,0.0,0.0,0.0,0.0,0.0,0.0,0.0,0.0,0.0,0.0,0.0,0.0,0.0,-3.3455,-3.3728,-3.433,-3.5429,-3.4831,-3.4831,-3.5489,-3.5326,-3.5326,-3.5519,-3.5294,-3.5326,-3.5519,-3.5067,-3.5001,-3.5162,-3.4635,-3.453,-3.4664,-3.4496,-3.4399,-3.4399,-3.4399,-3.4264,-3.4128,-3.4128,-3.4128,-3.4094,-3.3922,-3.375,-3.3612,-3.3785,-3.3612,-3.3333,-3.3536,-3.3466,-3.3326,-3.3326,-3.329,-3.329,-3.329,-3.329,-3.329,-3.329,-3.3157,-3.2988,-3.3023,-3.2988,-3.2988,-3.3023,-3.2846,-3.2668,-3.2453,-3.2417,-3.22,-3.1653,-3.1421,-3.1235,-3.1011,-3.0973,-3.0973,-3.0973,-3.0973,-3.0823,-3.0444,-3.0406,-3.0252,-2.9933,-2.9877,-2.9675,-2.9268,-2.9268,-2.8824,-2.7904,-2.7881,-2.7679,-2.719,-2.719,-2.719,-2.719,-2.719,-2.719,0.0,0.0,-3.1088,-3.1342,0.0,0.0,0.0,0.0,0.0,0.0,0.0,0.0,0.0,0.0,-2.5688,-2.5633,-2.4888,-2.423,0.0,0.0,0.0,0.0,0.0,0.0,0.0,0.0,0.0,0.0,-3.0866,0.0,-3.2138,-3.3066,-3.3637,-3.3667,-3.4655,-3.504,-3.4831,-3.5056,-3.5228,-3.5294,-3.51,-3.5034,-3.51,-3.4968,-3.4935,-3.5001,-3.4802,-3.4635,-3.4496,-3.4428,-3.4298,-3.4196,-3.4088,-3.4088,-3.4094,-3.4094,-3.4025,-3.3951,-3.3744,-3.364,-3.3605,-3.3536,-3.3396,-3.3326,-3.3396,-3.3361,-3.329,-3.3157,-3.3094,-3.3058,-3.2945,-3.2881,-3.2846,-3.2767,-3.2632,-3.2561,-3.248,-3.2525,-3.2561,-3.248,-3.2489,-3.259,-3.2818,-3.2614,-3.2182,-3.1511,-3.1123,-3.0887,-3.0811,-3.0811,-3.0811,-3.0811,-3.0811,-3.0698,-3.0406,-3.0139,-2.9816,-2.9401,-2.9361,-2.9203,-2.8787,-2.8787,-2.849,-2.7881,-2.7881,-2.7679,-2.719,-2.719,-2.7272,-2.7412,-2.7272,-2.719,-3.2867,-3.2379,0.0,-3.2093,-3.1783,0.0,-3.0435,0.0,0.0,0.0,0.0,0.0,0.0,0.0,-2.5578,-2.5411,-2.4395,-2.3662,0.0,-2.4014,-2.4495,0.0,0.0,0.0,0.0,0.0,0.0,-2.949,-3.022,-3.0954,0.0,0.0,-3.3276,-3.3337,-3.4629,-3.5168,-3.4831,-3.499,-3.51,-3.5195,-3.4935,-3.4868,-3.5001,-3.5001,-3.4968,-3.4902,-3.4902,-3.4702,-3.4366,-3.423,-3.4196,-3.4162,-3.3917,-3.4025,-3.4307,-3.4008,-3.3848,-3.3675,-3.3536,-3.3501,-3.3466,-3.3361,-3.329,-3.329,-3.329,-3.329,-3.329,-3.3157,-3.3058,-3.2988,-3.2846,-3.2704,-3.2561,-3.2417,-3.2345,-3.23,-3.2218,-3.2264,-3.2336,-3.2372,-3.2572,-3.2819,-3.3219,-3.3025,-3.2593,-3.1856,-3.1325,-3.0905,-3.0724,-3.066,-3.0622,-3.0698,-3.066,-3.0508,-3.0292,-2.9972,-2.966,-2.9401,-2.9386,-2.9187,-2.8787,-2.8787,-2.8554,-2.8002,-2.7921,-2.7719,-2.729,-2.7231,-2.729,-2.751,-2.7371,-2.7353]},{"header":{"parameterUnit":"m.s-1","parameterCategory":1,"la1":30.6,"la2":29.2853,"lo1":-89.7004,"lo2":-87.6739,"dy":0.0162,"dx":0.0183,"nx":112,"ny":82,"refTime":"2024-05-01T12:00:00:Z","depth":0,"parameterNumber":3,"parameterNumberName":"V-component_of_WINDS"},"data":[0.0,0.0,0.0,0.0,0.0,0.0,0.0,0.0,0.0,0.0,0.0,0.0,0.0,0.0,0.0,0.0,0.0,0.0,0.0,0.0,0.0,0.0,0.0,0.0,0.0,0.0,0.0,0.0,0.0,0.0,0.0,0.0,0.0,0.0,0.0,0.0,0.0,0.0,0.0,0.0,0.0,0.0,0.0,0.0,0.0,0.0,0.0,0.0,0.0,0.0,0.0,0.0,0.0,0.0,0.0,0.0,0.0,0.0,0.0,0.0,0.0,0.0,0.0,0.0,0.0,0.0,0.0,0.0,0.0,0.0,0.0,0.0,0.0,0.0,0.0,0.0,0.0,0.0,0.0,0.0,0.0,0.0,0.0,0.0,0.0,0.0,0.0,0.0,0.0,0.0,1.7759,1.8336,2.0208,2.1129,2.0404,2.0141,1.9448,1.7971,0.0,0.0,0.0,0.0,0.0,0.0,0.0,0.0,0.0,0.0,0.0,0.0,0.0,0.0,0.0,0.0,0.0,0.0,0.0,0.0,0.0,0.0,0.0,0.0,0.0,0.0,0.0,0.0,0.0,0.0,0.0,0.0,0.0,0.0,0.0,0.0,0.0,0.0,0.0,0.0,0.0,0.0,0.0,0.0,0.0,0.0,0.0,0.0,0.0,0.0,0.0,0.0,0.0,0.0,0.0,0.0,0.0,0.0,0.0,0.0,0.0,0.0,0.0,0.0,0.0,0.0,0.0,0.0,0.0,0.0,0.0,0.0,0.0,0.0,0.0,0.0,0.0,0.0,0.0,0.0,0.0,0.0,0.0,0.0,0.0,0.0,0.0,0.0,0.0,0.0,0.0,0.0,0.0,0.0,0.0,0.0,0.0,0.0,0.0,0.0,0.0,0.0,0.0,0.0,1.8015,2.0423,2.0647,2.0787,2.132,1.9576,1.8528,1.8709,0.0,0.0,0.0,0.0,0.0,0.0,0.0,0.0,0.0,0.0,0.0,0.0,0.0,0.0,0.0,0.0,0.0,0.0,0.0,0.0,0.0,0.0,0.0,0.0,0.0,0.0,0.0,0.0,0.0,0.0,0.0,0.0,0.0,0.0,0.0,0.0,0.0,0.0,0.0,0.0,0.0,0.0,0.0,0.0,0.0,0.0,0.0,0.0,0.0,0.0,0.0,0.0,0.0,0.0,0.0,0.0,0.0,0.0,0.0,0.0,0.0,0.0,0.0,0.0,0.0,0.0,0.0,0.0,0.0,0.0,0.0,0.0,0.0,0.0,0.0,0.0,0.0,0.0,0.0,0.0,0.0,0.0,0.0,0.0,0.0,0.0,0.0,0.0,0.0,0.0,0.0,0.0,0.0,0.0,0.0,0.0,0.0,0.0,0.0,0.0,0.0,0.0,0.0,1.7502,1.8907,2.0957,2.1063,2.105,2.129,1.9594,1.8634,1.8983,1.7261,0.0,0.0,0.0,0.0,0.0,0.0,0.0,0.0,0.0,0.0,0.0,0.0,0.0,0.0,0.0,0.0,0.0,0.0,0.0,0.0,0.0,0.0,0.0,0.0,0.0,0.0,0.0,0.0,0.0,0.0,0.0,0.0,0.0,0.0,0.0,0.0,0.0,0.0,0.0,0.0,0.0,0.0,0.0,0.0,0.0,0.0,0.0,0.0,0.0,0.0,0.0,0.0,0.0,0.0,0.0,0.0,0.0,0.0,0.0,0.0,0.0,0.0,0.0,0.0,0.0,0.0,0.0,0.0,0.0,0.0,0.0,0.0,0.0,0.0,0.0,0.0,0.0,0.0,0.0,0.0,0.0,0.0,0.0,0.0,0.0,0.0,0.0,0.0,0.0,0.0,0.0,0.0,0.0,0.0,0.0,0.0,0.0,0.0,0.0,0.0,0.0,0.0,1.8918,1.9802,2.1004,2.1108,2.1099,2.1009,1.9682,1.8908,1.918,1.7644,0.0,0.0,0.0,0.0,0.0,0.0,0.0,0.0,0.0,0.0,0.0,0.0,0.0,0.0,0.0,0.0,0.0,0.0,0.0,0.0,0.0,0.0,0.0,0.0,0.0,0.0,0.0,0.0,0.0,0.0,0.0,0.0,0.0,0.0,0.0,0.0,0.0,0.0,0.0,0.0,0.0,0.0,0.0,0.0,0.0,0.0,0.0,0.0,0.0,0.0,0.0,0.0,0.0,0.0,0.0,0.0,0.0,0.0,0.0,0.0,0.0,0.0,0.0,0.0,0.0,0.0,0.0,0.0,0.0,0.0,0.0,0.0,0.0,0.0,0.0,0.0,0.0,0.0,0.0,0.0,0.0,0.0,0.0,0.0,0.0,0.0,0.0,0.0,0.0,0.0,0.0,0.0,0.0,0.0,0.0,0.0,0.0,0.0,0.0,0.0,0.0,0.0,1.9187,2.0258,2.0845,2.0476,2.0374,2.0802,1.9594,1.8982,1.9423,1.9047,0.0,0.0,0.0,0.0,0.0,0.0,0.0,0.0,0.0,0.0,0.0,0.0,0.0,0.0,0.0,0.0,0.0,0.0,0.0,0.0,0.0,0.0,0.0,0.0,0.0,0.0,0.0,0.0,0.0,0.0,0.0,0.0,0.0,0.0,0.0,0.0,0.0,0.0,0.0,0.0,0.0,0.0,0.0,0.0,0.0,0.0,0.0,0.0,0.0,0.0,0.0,0.0,0.0,0.0,0.0,0.0,0.0,0.0,0.0,0.0,0.0,0.0,0.0,0.0,0.0,0.0,0.0,0.0,0.0,0.0,0.0,0.0,0.0,0.0,0.0,0.0,0.0,0.0,0.0,0.0,0.0,0.0,0.0,0.0,0.0,0.0,0.0,0.0,0.0,0.0,0.0,0.0,0.0,0.0,0.0,0.0,0.0,0.0,0.0,0.0,0.0,0.0,1.8899,1.9645,0.0,2.0113,2.0145,2.0876,1.9701,1.9331,2.0232,0.0,0.0,0.0,0.0,0.0,0.0,0.0,0.0,0.0,0.0,0.0,0.0,0.0,0.0,0.0,0.0,0.0,0.0,0.0,0.0,0.0,0.0,0.0,0.0,0.0,0.0,0.0,0.0,0.0,0.0,0.0,0.0,0.0,0.0,0.0,0.0,0.0,0.0,0.0,0.0,0.0,0.0,0.0,0.0,0.0,0.0,0.0,0.0,0.0,0.0,0.0,0.0,0.0,0.0,0.0,0.0,0.0,0.0,0.0,0.0,0.0,0.0,0.0,0.0,0.0,0.0,0.0,0.0,0.0,0.0,0.0,0.0,0.0,0.0,0.0,0.0,0.0,0.0,0.0,0.0,0.0,0.0,0.0,0.0,0.0,0.0,0.0,0.0,0.0,0.0,0.0,0.0,0.0,0.0,0.0,0.0,0.0,0.0,0.0,0.0,0.0,0.0,1.8267,1.8793,1.9267,0.0,1.9929,2.0134,2.0776,2.0012,1.9782,2.0481,0.0,0.0,0.0,0.0,0.0,0.0,0.0,0.0,0.0,0.0,0.0,0.0,0.0,0.0,0.0,0.0,0.0,0.0,0.0,0.0,0.0,0.0,0.0,0.0,0.0,0.0,0.0,0.0,0.0,0.0,0.0,0.0,0.0,0.0,0.0,0.0,0.0,0.0,0.0,0.0,0.0,0.0,0.0,0.0,0.0,0.0,0.0,0.0,0.0,0.0,0.0,0.0,0.0,0.0,0.0,0.0,0.0,0.0,0.0,0.0,0.0,0.0,0.0,0.0,0.0,0.0,0.0,0.0,0.0,0.0,0.0,0.0,0.0,0.0,0.0,0.0,0.0,0.0,0.0,0.0,0.0,0.0,0.0,0.0,0.0,0.0,0.0,0.0,0.0,0.0,0.0,0.0,0.0,0.0,0.0,0.0,0.0,0.0,0.0,0.0,0.0,0.0,1.832,1.8936,1.9352,1.9468,1.9934,2.0286,2.0501,2.0501,2.0364,0.0,0.0,0.0,0.0,0.0,0.0,0.0,0.0,0.0,0.0,0.0,0.0,0.0,0.0,0.0,0.0,0.0,0.0,0.0,0.0,0.0,0.0,0.0,0.0,0.0,0.0,0.0,0.0,0.0,0.0,0.0,0.0,0.0,0.0,0.0,0.0,0.0,0.0,0.0,0.0,0.0,0.0,0.0,0.0,0.0,0.0,0.0,0.0,0.0,0.0,0.0,0.0,0.0,0.0,0.0,0.0,0.0,0.0,0.0,0.0,0.0,0.0,0.0,0.0,0.0,0.0,0.0,0.0,0.0,0.0,0.0,0.0,0.0,0.0,0.0,0.0,0.0,0.0,0.0,0.0,0.0,0.0,0.0,0.0,0.0,0.0,0.0,0.0,0.0,0.0,0.0,0.0,0.0,0.0,0.0,0.0,0.0,0.0,0.0,0.0,0.0,0.0,0.0,1.8587,1.8929,1.9159,1.9266,1.9746,2.0211,2.0613,2.0784,2.0917,2.1069,0.0,0.0,0.0,0.0,0.0,0.0,0.0,0.0,0.0,0.0,0.0,0.0,0.0,0.0,0.0,0.0,0.0,0.0,0.0,0.0,0.0,0.0,0.0,0.0,0.0,0.0,0.0,0.0,0.0,0.0,0.0,0.0,0.0,0.0,0.0,0.0,0.0,0.0,0.0,0.0,0.0,0.0,0.0,0.0,0.0,0.0,0.0,0.0,0.0,0.0,0.0,0.0,0.0,0.0,0.0,0.0,0.0,0.0,0.0,0.0,0.0,0.0,0.0,0.0,0.0,0.0,0.0,0.0,0.0,0.0,0.0,0.0,0.0,0.0,0.0,0.0,0.0,0.0,0.0,0.0,0.0,0.0,0.0,0.0,0.0,0.0,0.0,0.0,0.0,0.0,0.0,0.0,0.0,0.0,0.0,0.0,0.0,0.0,0.0,0.0,0.0,0.0,1.8717,1.8999,1.9184,1.9263,1.9759,2.022,2.055,2.0882,2.1193,2.1434,0.0,0.0,0.0,0.0,0.0,0.0,0.0,0.0,0.0,0.0,0.0,0.0,0.0,0.0,0.0,0.0,0.0,0.0,0.0,0.0,0.0,0.0,0.0,0.0,0.0,0.0,0.0,0.0,0.0,0.0,0.0,0.0,0.0,0.0,0.0,0.0,0.0,0.0,0.0,0.0,0.0,0.0,0.0,0.0,0.0,0.0,0.0,0.0,0.0,0.0,0.0,0.0,0.0,0.0,0.0,0.0,0.0,0.0,0.0,0.0,0.0,0.0,0.0,0.0,0.0,0.0,0.0,0.0,0.0,0.0,0.0,0.0,0.0,0.0,0.0,0.0,0.0,0.0,0.0,0.0,0.0,0.0,0.0,0.0,0.0,0.0,0.0,0.0,0.0,0.0,0.0,0.0,0.0,0.0,0.0,0.0,0.0,0.0,0.0,0.0,0.0,0.0,1.8818,1.9233,1.9496,1.9447,1.9914,2.0296,2.0422,2.0921,2.1288,2.1352,0.0,0.0,0.0,0.0,0.0,0.0,0.0,0.0,0.0,0.0,0.0,0.0,0.0,0.0,0.0,0.0,0.0,0.0,0.0,0.0,0.0,0.0,0.0,0.0,0.0,0.0,0.0,0.0,0.0,0.0,0.0,0.0,0.0,0.0,0.0,0.0,0.0,0.0,0.0,0.0,0.0,0.0,0.0,0.0,0.0,0.0,0.0,0.0,0.0,0.0,0.0,0.0,0.0,0.0,0.0,0.0,0.0,0.0,0.0,0.0,1.3783,0.0,0.0,0.0,0.0,0.0,0.0,0.0,0.0,0.0,0.0,0.0,0.0,0.0,0.0,0.0,0.0,0.0,0.0,0.0,0.0,0.0,0.0,0.0,0.0,0.0,0.0,0.0,0.0,0.0,0.0,0.0,0.0,0.0,0.0,0.0,0.0,0.0,0.0,0.0,0.0,0.0,1.9001,1.9816,2.0234,1.9784,2.0195,2.0573,2.0696,2.1215,2.1387,2.1107,2.1462,0.0,0.0,0.0,0.0,0.0,0.0,0.0,0.0,0.0,0.0,0.0,0.0,0.0,0.0,0.0,0.0,0.0,0.0,0.0,0.0,0.0,0.0,0.0,0.0,0.0,0.0,0.0,0.0,0.0,0.0,0.0,0.0,0.0,0.0,0.0,0.0,0.0,0.0,0.0,0.0,0.0,0.0,0.0,0.0,0.0,0.0,0.0,0.0,0.0,0.0,0.0,0.0,0.0,0.0,0.0,0.0,0.0,0.0,0.0,0.0,1.4515,0.0,0.0,0.0,0.0,0.0,0.0,0.0,0.0,0.0,0.0,0.0,0.0,0.0,0.0,0.0,0.0,0.0,0.0,0.0,0.0,0.0,0.0,0.0,0.0,0.0,0.0,0.0,0.0,0.0,0.0,0.0,0.0,0.0,0.0,0.0,0.0,0.0,0.0,0.0,0.0,1.9629,2.0715,2.1346,2.088,2.1277,2.1692,2.1974,2.2081,2.2235,2.2424,2.2683,0.0,0.0,0.0,0.0,0.0,0.0,0.0,0.0,0.0,0.0,0.0,0.0,0.0,0.0,0.0,0.0,0.0,0.0,0.0,0.0,0.0,0.0,0.0,0.0,0.0,0.0,0.0,0.0,0.0,0.0,0.0,0.0,0.0,0.0,0.0,0.0,0.0,0.0,0.0,0.0,0.0,0.0,0.0,0.0,0.0,0.0,0.0,0.0,0.0,0.0,0.0,0.0,0.0,1.7032,1.7226,1.7404,1.7818,1.8228,1.855,1.7047,1.6377,1.629,1.5801,0.0,0.0,0.0,0.0,0.0,0.0,0.0,0.0,0.0,0.0,0.0,0.0,0.0,0.0,0.0,0.0,0.0,0.0,0.0,0.0,0.0,0.0,0.0,0.0,1.825,1.8092,0.0,0.0,0.0,0.0,0.0,0.0,0.0,0.0,0.0,0.0,0.0,0.0,2.0516,2.1652,2.2451,2.2184,2.2429,2.2911,2.3547,2.3153,2.3245,2.4188,2.398,2.3745,0.0,0.0,0.0,0.0,0.0,0.0,0.0,0.0,0.0,0.0,0.0,0.0,0.0,0.0,0.0,0.0,0.0,0.0,0.0,0.0,0.0,0.0,0.0,0.0,0.0,0.0,0.0,0.0,0.0,0.0,0.0,0.0,1.5394,1.4712,0.0,0.0,0.0,0.0,0.0,0.0,0.0,0.0,0.0,0.0,0.0,0.0,0.0,1.754,1.8255,1.85,1.8444,1.8174,1.9213,1.9419,1.8966,1.9682,2.0154,2.0355,2.0127,0.0,1.7326,1.7399,0.0,0.0,0.0,0.0,0.0,0.0,0.0,0.0,0.0,0.0,0.0,0.0,0.0,0.0,0.0,0.0,0.0,0.0,0.0,0.0,0.0,0.0,1.902,1.8838,1.9099,1.921,0.0,1.7988,1.7652,1.775,1.7892,0.0,0.0,0.0,0.0,0.0,0.0,0.0,2.1421,2.238,2.3035,2.2857,2.2804,2.3311,2.4651,2.3993,2.3986,2.5146,2.4067,2.3715,2.4417,2.3228,0.0,0.0,0.0,0.0,0.0,0.0,0.0,0.0,0.0,0.0,0.0,0.0,0.0,0.0,0.0,0.0,0.0,0.0,0.0,0.0,0.0,0.0,0.0,0.0,0.0,0.0,0.0,0.0,0.0,1.6251,1.6099,1.549,1.5227,1.4944,0.0,0.0,0.0,0.0,0.0,0.0,0.0,0.0,0.0,1.8672,1.8647,1.8853,1.9294,1.9424,1.9382,1.9076,1.9956,2.0185,1.9909,2.0596,2.1103,2.1357,2.1357,2.0706,1.9598,1.9167,1.8419,1.7599,0.0,0.0,0.0,0.0,1.7069,1.7281,1.7174,1.7308,0.0,1.8036,0.0,0.0,0.0,0.0,0.0,0.0,0.0,0.0,0.0,0.0,2.0288,2.0683,2.0811,2.0725,2.0394,2.0074,1.9779,0.0,1.9132,1.9283,2.0185,0.0,0.0,0.0,0.0,2.2765,2.217,2.3199,2.4028,2.4122,2.4012,2.4395,2.5538,2.4764,2.4591,2.5472,2.4764,2.4411,2.4612,2.4,2.3623,0.0,0.0,0.0,0.0,0.0,0.0,0.0,0.0,0.0,0.0,0.0,0.0,0.0,0.0,0.0,0.0,0.0,0.0,0.0,0.0,0.0,0.0,0.0,0.0,0.0,0.0,0.0,0.0,1.6892,1.6926,1.6315,1.6128,1.5802,0.0,0.0,0.0,0.0,0.0,0.0,1.762,1.7994,1.8677,1.9798,1.9839,1.9971,2.0293,2.0293,2.0219,2.0015,2.0512,2.0783,2.0855,2.1396,2.1917,2.2342,2.2377,2.2143,2.1666,2.0803,1.9965,1.9254,1.9366,1.9266,1.9029,1.8948,1.887,1.8823,1.9059,1.903,1.8985,1.9531,1.9858,1.9965,1.9625,0.0,0.0,0.0,0.0,2.0556,2.1174,2.1242,2.1287,2.1817,2.1879,2.1776,2.1511,2.1638,2.1571,0.0,2.0432,2.0536,2.1776,0.0,0.0,0.0,0.0,2.336,2.3013,2.3953,2.4736,2.5021,2.4985,2.5375,2.644,2.5604,2.5405,2.6191,2.5506,2.5072,2.5073,2.4865,2.4702,2.4455,0.0,0.0,0.0,0.0,0.0,0.0,0.0,0.0,0.0,0.0,0.0,0.0,0.0,0.0,0.0,0.0,0.0,0.0,0.0,0.0,0.0,0.0,0.0,0.0,0.0,0.0,0.0,0.0,0.0,1.7253,1.7224,0.0,0.0,0.0,0.0,1.7135,1.7285,1.7742,1.8671,1.8799,1.9429,2.07,2.072,2.0944,2.1431,2.1392,2.1336,2.1145,2.1336,2.1659,2.2038,2.2451,2.2973,2.3526,2.3708,2.3452,2.2848,2.2121,2.1197,2.0288,2.0974,2.119,2.1086,2.1181,2.1244,2.129,2.18,2.1445,2.0992,2.2346,2.2676,2.2448,2.2135,2.1937,0.0,0.0,2.2438,2.2365,2.2412,2.2163,2.1766,2.1343,2.1588,2.174,2.1223,2.1863,2.2322,0.0,2.1529,2.197,2.3115,0.0,2.3116,2.4166,2.439,2.4339,2.4073,2.445,2.4878,2.5161,2.5304,2.5988,2.7506,2.6628,2.6603,2.7911,2.6126,2.5417,2.6268,2.5477,2.5219,2.5688,2.4676,0.0,0.0,0.0,0.0,0.0,0.0,0.0,0.0,0.0,0.0,0.0,0.0,0.0,0.0,0.0,0.0,0.0,0.0,0.0,0.0,0.0,0.0,0.0,0.0,0.0,0.0,0.0,0.0,1.8348,1.8359,0.0,1.7398,1.7556,1.7784,1.7923,1.8387,1.902,1.9919,2.0108,2.0637,2.167,2.169,2.1849,2.213,2.1847,2.1745,2.1863,2.2133,2.2289,2.2327,2.2964,2.3482,2.3776,2.3849,2.3629,2.3202,2.3031,2.2215,2.1062,2.152,2.171,2.1666,2.1834,2.19,2.1856,2.197,2.1801,2.17,2.2672,2.2874,2.2766,2.3127,2.311,2.3004,2.3161,2.311,2.2973,2.287,2.2791,2.266,2.2372,2.2581,2.2799,2.2627,2.293,2.3211,2.3065,2.2703,2.2703,2.3559,2.3592,2.3592,2.3889,2.4262,2.4423,2.4247,2.4708,2.5244,2.5743,2.5821,2.626,2.7286,2.714,2.7278,2.7909,2.6716,2.6234,2.6828,2.5717,2.5349,2.5771,2.5537,2.5084,0.0,0.0,0.0,0.0,0.0,0.0,0.0,0.0,0.0,0.0,0.0,0.0,0.0,0.0,0.0,0.0,0.0,0.0,0.0,0.0,0.0,0.0,0.0,0.0,0.0,0.0,1.9409,1.9555,1.9736,1.9591,1.8835,1.9085,1.9246,1.916,1.9673,2.0216,2.0878,2.1036,2.1451,2.2185,2.2188,2.2271,2.2372,2.2169,2.2104,2.2175,2.2324,2.2478,2.2628,2.315,2.3593,2.3886,2.3959,2.374,2.3335,2.3519,2.2989,2.2097,2.2372,2.2559,2.2665,2.277,2.2783,2.276,2.2428,2.2612,2.3028,2.3327,2.3502,2.3666,2.416,2.4222,2.412,2.412,2.4052,2.3899,2.3607,2.366,2.3749,2.3263,2.3427,2.3649,2.359,2.3569,2.3658,2.3861,2.3522,2.3415,2.4131,2.4109,2.3972,2.4064,2.4596,2.4916,2.4742,2.5422,2.6018,2.6385,2.6541,2.687,2.7396,2.7555,2.7776,2.8043,2.7173,2.6897,2.7375,2.6419,2.6074,2.6536,2.6573,2.598,2.4709,0.0,0.0,0.0,0.0,0.0,0.0,0.0,0.0,0.0,0.0,0.0,0.0,0.0,0.0,0.0,0.0,0.0,0.0,0.0,0.0,0.0,0.0,0.0,1.9124,1.9876,2.0571,2.0896,2.1346,2.1451,2.0995,2.0761,2.0742,2.091,2.1089,2.1304,2.1505,2.1525,2.1748,2.2244,2.2231,2.2247,2.2127,2.2424,2.241,2.2122,2.1932,2.2273,2.3001,2.3001,2.3335,2.3886,2.4127,2.3872,2.3335,2.3519,2.3482,2.3335,2.3519,2.3872,2.42,2.4018,2.4055,2.4131,2.3377,2.3977,2.5004,2.448,2.4752,2.53,2.53,2.53,2.53,2.53,2.5276,2.5155,2.4626,2.4779,2.4813,2.3914,2.3948,2.4111,2.3905,2.3772,2.3713,2.3887,2.3972,2.4187,2.4857,2.4491,2.4334,2.4913,2.5531,0.0,2.556,2.6578,2.7262,2.7111,2.7479,2.7775,2.7899,2.7927,2.8078,2.8413,2.7594,2.7339,2.7886,2.7486,2.7497,2.8025,2.7734,2.6854,2.5395,0.0,0.0,0.0,0.0,0.0,0.0,0.0,0.0,0.0,0.0,0.0,0.0,0.0,0.0,0.0,0.0,0.0,0.0,0.0,0.0,0.0,1.9105,1.9825,2.0463,2.0885,2.1383,2.2047,2.2191,2.2089,2.1666,2.1585,2.1481,2.1373,2.1392,2.1585,2.1967,2.2142,2.2532,2.3137,2.3273,2.3262,2.3104,2.331,2.3161,2.2604,2.299,2.3124,2.3001,2.3446,2.374,2.3886,2.4127,2.3922,2.3519,2.3556,2.3556,2.3519,2.374,2.4055,2.4454,2.4683,2.4634,2.4358,2.3859,2.4207,2.4814,2.4814,2.5239,2.5711,2.5571,2.5535,2.5463,2.504,2.4919,2.4832,2.4432,2.4214,2.4038,2.3772,2.3739,2.3748,2.3684,2.4261,2.4756,2.4696,2.5127,2.5266,2.4465,2.4659,2.4988,2.5266,2.6088,0.0,2.6598,2.7239,2.7645,2.7529,2.7845,2.814,2.8235,2.8654,2.8966,2.9146,2.8875,2.8598,2.8279,2.8464,2.8681,2.8869,2.7933,2.7319,0.0,0.0,0.0,0.0,0.0,0.0,0.0,0.0,0.0,0.0,0.0,0.0,0.0,0.0,0.0,0.0,0.0,0.0,0.0,0.0,0.0,0.0,2.0252,2.1078,2.1881,2.2105,2.2395,2.3064,2.3163,2.3118,2.2908,2.2698,2.2487,2.234,2.2233,2.2306,2.2558,2.2703,2.3015,2.3493,2.3702,2.3756,2.3491,2.3619,2.3407,2.291,2.3182,2.3247,2.315,2.3482,2.3779,2.4055,2.4166,2.4168,2.4047,2.4047,2.4258,0.0,0.0,0.0,0.0,0.0,2.467,2.4345,2.4286,2.4467,2.4826,2.5253,2.5571,2.5795,2.5909,2.5836,2.5711,2.5508,2.5349,2.5267,2.5117,2.493,2.473,2.4636,2.4627,2.4602,2.4433,2.4914,2.5358,2.5266,2.5651,0.0,2.5056,2.5274,2.5637,2.5878,2.6782,2.7407,2.7407,2.8079,2.8519,2.843,2.8583,2.8775,2.8898,2.9236,0.0,0.0,0.0,2.9262,2.8821,2.9235,0.0,0.0,0.0,2.8192,2.8008,0.0,0.0,0.0,2.6778,2.6533,0.0,0.0,0.0,0.0,0.0,0.0,0.0,0.0,0.0,0.0,0.0,0.0,0.0,0.0,0.0,0.0,2.1637,2.2446,2.3183,2.3308,2.3494,2.3908,2.4089,2.4206,2.4206,2.3774,2.3493,2.3493,2.3232,2.3101,2.3144,0.0,0.0,0.0,0.0,2.3846,2.3575,2.3576,2.3438,2.3105,2.2869,2.2933,2.3261,2.3327,2.3705,2.4279,2.4361,2.4514,2.4697,2.4697,2.5088,2.5585,2.4631,2.4543,2.4966,2.4715,2.4547,2.4378,2.4683,0.0,0.0,2.5665,2.5805,2.5738,2.6274,2.6186,2.5974,2.6297,2.6124,2.5916,2.6099,2.6108,2.6052,2.597,2.5957,2.5909,2.5587,2.563,2.5771,2.574,2.5923,2.6138,2.6321,2.6299,2.637,2.6708,2.753,2.8126,2.8126,2.8972,2.9523,2.9397,0.0,0.0,2.9585,2.9617,2.9744,3.0052,2.9751,2.9608,2.9584,2.987,2.9645,2.8922,2.9419,2.933,2.87,2.9637,3.0137,3.0123,2.8035,2.7485,0.0,0.0,0.0,0.0,0.0,0.0,0.0,0.0,0.0,0.0,0.0,0.0,0.0,0.0,0.0,2.1072,2.2042,2.2959,2.366,2.4053,2.428,2.4363,2.4274,2.4206,2.4206,2.3774,2.3493,2.3493,2.3101,2.3013,2.3406,2.3414,2.3631,2.4077,2.4296,2.4197,2.3825,2.4157,2.3875,2.3105,0.0,0.0,2.3097,2.3454,2.3787,2.411,2.462,2.4804,2.4697,2.4697,2.5088,2.5731,2.617,2.6212,2.5953,2.5664,2.5426,2.5245,2.5195,2.5194,2.5288,2.577,2.5875,2.5938,2.6478,2.6293,0.0,2.6173,2.5974,2.5695,2.5921,2.5658,2.5438,2.6023,2.5774,2.5454,2.5567,2.6259,2.6855,2.6696,2.729,2.7809,2.7841,2.7524,2.7328,2.7612,2.822,2.8698,2.8856,2.9219,2.9397,2.9208,2.9303,2.946,2.9585,2.9713,2.9777,2.9839,2.9692,2.9959,3.0748,3.0268,3.0281,3.0842,3.0655,3.0541,3.0523,3.0592,3.0629,3.0629,2.9703,2.9179,0.0,0.0,0.0,0.0,0.0,0.0,0.0,0.0,0.0,0.0,0.0,2.0465,1.9937,0.0,2.1987,2.2255,2.2915,2.3536,2.4094,2.4363,2.4507,2.4507,2.4421,2.4335,2.4335,2.4077,2.3861,2.3861,2.3493,2.3406,2.3624,2.3774,2.3947,2.4206,2.4421,2.4469,2.4409,2.4492,2.4255,2.3828,2.377,2.369,2.3551,2.379,2.4146,2.4623,2.4962,2.5205,2.5488,2.569,2.5851,2.6074,2.7027,2.7047,2.6524,2.5867,2.5641,2.568,2.5811,2.5652,2.5535,2.6129,2.6164,2.6089,2.631,2.6222,2.6124,2.6501,2.6361,2.6215,2.6509,2.6337,2.6176,2.6657,2.6535,2.6336,2.6525,2.7058,2.7609,2.7868,2.8151,2.8395,2.869,2.8384,2.8139,2.8487,2.867,2.889,2.9081,2.9303,2.9303,2.8986,2.924,2.9463,2.9682,3.0021,3.0235,3.0296,3.0278,3.0602,3.1248,3.1022,3.0964,3.1185,3.1221,3.1088,3.0797,3.1165,3.127,3.1192,3.0871,3.0378,0.0,0.0,0.0,0.0,0.0,0.0,0.0,0.0,2.0272,2.0457,2.1554,2.2207,2.1474,2.2438,2.3349,2.3446,2.3722,2.4073,2.4445,2.4507,2.4507,2.4507,2.4507,2.4507,2.4507,2.4335,2.4206,2.4206,2.3927,2.3841,2.3884,2.4077,2.4206,2.4249,2.4421,2.4615,2.4914,2.4639,2.4489,2.4489,2.4282,2.4165,2.4165,2.4273,2.4653,2.5267,2.5314,2.5659,2.6157,2.6614,2.6614,2.6448,2.7353,2.7482,2.7062,2.6212,2.5904,2.5924,2.6392,2.6208,2.5857,2.6521,2.6561,2.6374,2.642,2.6395,2.6427,2.7105,2.7002,2.6816,2.7214,2.718,2.7138,2.7444,2.7393,2.7374,2.768,2.7874,2.8206,2.8885,2.8839,2.8804,2.9181,2.9023,2.8871,2.9081,2.8954,2.889,2.9081,2.9303,2.9271,2.8922,2.9212,2.9588,2.9837,3.0235,3.0507,3.0687,3.0866,3.1131,3.1453,3.171,3.1667,3.129,3.164,3.1548,3.0964,3.168,3.196,3.18,3.1827,3.129,1.8662,1.8621,1.8667,1.8695,1.8764,1.9116,0.0,0.0,2.0896,2.1506,2.2298,2.2687,2.2024,2.3085,2.399,2.3805,2.4115,2.4445,2.4487,2.4507,2.4507,2.4507,2.4507,2.4507,2.4507,2.4335,2.4206,2.4206,2.3927,2.3884,2.4163,2.4163,2.4292,2.4464,2.4507,2.4615,2.4914,2.4639,2.4489,2.4489,2.4483,2.4443,2.4403,2.4839,2.5201,2.5492,2.5705,2.5841,2.5948,2.6199,2.649,2.682,2.6985,2.7424,2.8021,2.7612,2.6884,2.6154,2.6849,2.6777,2.6383,2.6742,2.687,2.6914,2.7572,2.7225,2.689,2.7943,2.7646,2.7011,2.7248,2.7281,2.7419,2.8142,2.778,2.7512,2.8373,2.8581,2.8709,2.91,2.9578,2.9807,2.9517,2.9514,2.946,2.9136,2.8954,2.889,2.9081,2.9303,2.9334,2.9113,2.9495,2.9837,3.005,2.996,3.0023,3.0357,3.0628,3.0955,3.1307,3.1966,3.2296,3.2235,3.2567,3.2617,3.2389,3.2644,3.2676,3.2513,3.2648,3.2113,2.0165,2.0333,2.035,2.0435,2.0295,2.0318,2.1188,2.1352,2.1603,2.2542,2.2929,2.3093,2.3253,2.3678,2.4033,0.0,2.4277,2.4378,2.4507,2.4507,2.4404,2.4178,2.4512,2.4658,2.4507,2.4421,2.4378,2.4378,2.4292,2.4272,2.4378,2.4378,2.4421,2.4507,2.4507,2.4658,2.5084,2.4851,2.4892,2.5143,2.4846,2.478,2.4863,2.4994,2.5205,2.5559,2.5944,2.6032,2.5906,2.6115,2.624,2.6365,2.6738,2.6925,2.6989,2.7254,2.7133,2.6894,2.7226,2.7103,2.6809,2.6833,2.6942,2.7048,2.7138,2.6868,2.671,2.7534,2.7383,2.7045,2.7248,2.7382,2.7579,2.8255,2.7907,2.7673,2.852,2.8686,2.8894,2.959,2.9927,3.0077,3.0032,2.9847,2.9575,2.9164,2.9049,2.9017,2.9113,2.9303,2.9397,2.9303,2.9526,2.9682,2.971,2.9775,2.9931,3.0296,3.0538,3.0925,3.1423,3.191,3.2247,3.2382,3.2605,3.2691,3.2578,3.28,3.28,3.2605,3.2962,3.2667,2.1027,2.1376,2.1537,2.1513,2.1317,2.126,2.1905,2.2005,2.2268,2.3259,2.3397,2.3469,2.3844,2.395,2.4115,2.436,2.4335,2.4335,2.4507,2.4507,2.4426,2.4221,2.4577,2.4871,2.47,2.47,2.4658,2.4615,2.4615,2.4572,2.4507,2.4507,2.4549,2.4693,2.4693,2.4951,2.5443,2.5209,2.5274,2.5573,2.5232,2.519,2.5381,2.536,2.5466,2.5612,2.599,2.6032,2.5906,2.6074,2.6074,2.6032,2.6614,2.6594,2.6399,2.7079,2.7246,2.721,2.7465,2.7368,2.7117,2.699,2.7086,2.7282,2.7153,2.6983,2.6968,2.7437,2.7434,2.7225,2.7273,2.739,2.7673,2.8464,2.8072,2.7766,2.8731,2.8889,2.9125,2.9939,3.0188,3.0304,3.0384,3.0071,2.964,2.9164,2.9208,2.9208,2.9113,2.9243,2.9432,2.9585,2.962,2.962,2.9526,2.9744,3.0052,3.0357,3.0628,3.1043,3.1625,3.191,3.2163,3.2413,3.2496,3.2551,3.2551,3.2773,3.2827,3.2773,3.3145,3.3155,2.0956,2.1282,2.1787,2.1416,2.136,2.1643,2.2639,2.2739,2.283,2.3468,2.3842,2.3887,2.3265,2.3867,2.4401,2.4249,2.4378,2.4487,2.4507,2.4507,2.4572,2.485,2.4893,2.4978,0.0,2.5211,2.5126,2.4914,2.4914,2.4786,2.4487,2.4507,2.4714,2.5148,2.5168,2.5508,2.6148,2.5753,2.5586,2.5586,2.5509,2.5616,2.5892,2.6347,2.6215,2.5612,2.5822,2.5906,2.5906,2.5906,2.6032,2.624,2.649,2.6715,2.6962,2.7615,2.7341,2.6743,2.7589,2.7618,2.7308,2.7308,2.7546,2.7955,2.8355,2.8183,2.7995,2.8284,2.8064,2.7686,2.7377,2.739,2.7777,2.8987,2.836,2.7837,2.9197,2.9354,2.9425,2.9985,3.0405,3.0619,3.0431,3.0145,2.9803,2.9196,2.9397,2.9491,2.9145,2.9216,2.9498,3.0019,2.9898,2.9777,2.9777,2.996,3.0233,3.0568,3.1014,3.1481,3.1968,3.2107,3.2274,3.2382,3.2382,3.241,3.241,3.2746,3.2935,3.3096,3.3388,3.3617,2.1838,2.1934,2.2332,2.2736,2.252,2.2428,2.3018,2.304,2.3051,2.3567,2.3551,2.3445,2.3564,2.3969,2.4263,2.4221,2.4386,2.4507,2.4507,2.4658,2.4639,2.4304,2.4914,0.0,0.0,0.0,0.0,2.4914,2.4743,2.4572,2.4507,2.4797,2.498,2.4948,2.5413,2.5775,2.6007,2.555,2.5476,2.5826,2.5466,2.5275,2.5274,2.5722,2.5806,2.5612,2.5948,2.6115,2.6115,2.6115,2.6157,2.6199,2.6324,2.6407,2.649,2.7067,2.6961,2.6726,2.7592,2.7599,2.7255,2.7415,2.7636,2.8002,2.8538,2.8348,2.8118,2.8587,2.8261,2.7754,2.7644,2.7859,2.8307,2.9127,2.8673,2.8342,2.9162,2.931,2.9381,2.9732,3.0255,3.0575,3.0265,3.0405,3.0621,3.0685,2.9895,2.9334,2.9429,2.9275,2.9306,2.9741,2.9713,2.9713,2.9777,2.9839,3.0113,3.0568,3.0925,3.1278,3.1653,3.2023,3.2219,3.2274,3.2327,3.2441,3.2523,3.2881,3.3096,3.3229,3.3591,3.3797,2.2487,2.2465,2.2803,2.3869,2.3488,2.3008,2.3817,2.3505,2.32,2.3869,2.3575,2.3367,2.3785,2.4064,2.4157,2.399,2.4262,2.4529,2.4615,2.47,2.4807,2.4849,2.5317,2.5509,0.0,0.0,0.0,2.5252,2.5037,2.4927,2.5006,2.5295,2.5454,2.5419,2.5888,2.6206,2.6392,2.5771,2.5472,2.5528,2.5466,2.5274,2.4914,2.5466,2.5636,2.5464,2.5906,2.6157,2.6199,2.6324,2.6282,2.6199,2.6324,2.624,2.6157,2.6697,2.6697,2.6467,2.733,2.7412,2.7144,2.7389,2.7615,2.7857,2.8498,2.8348,2.8104,2.8661,2.8467,2.8062,2.7857,2.8265,2.8839,2.9231,2.9022,2.8856,2.9457,2.9588,2.966,2.9918,3.0352,3.0655,3.0562,3.074,3.1009,3.1338,3.0536,2.9891,2.9985,2.9768,2.962,2.9679,2.9682,2.9682,2.9744,2.9837,3.0144,3.0657,3.0984,3.1335,3.1709,3.2107,3.2274,3.2274,3.2413,3.2523,3.2578,3.2935,3.3203,3.3388,3.3668,3.3873,2.2905,2.2885,2.3206,2.4713,2.4088,2.3453,2.5029,2.4175,2.3372,2.4322,2.3951,2.3525,0.0,0.0,2.4052,2.3589,2.4075,2.4614,2.4892,2.472,2.5053,0.0,0.0,0.0,0.0,0.0,0.0,2.5911,0.0,2.5706,2.5899,2.5896,2.6123,2.6558,2.6646,2.6853,2.722,2.633,2.5552,2.4914,2.5592,2.5528,2.4914,2.5592,2.5615,2.5232,2.5717,2.6032,2.624,2.6531,2.649,2.6282,2.6509,2.6302,2.599,2.6655,2.6448,2.6032,2.6857,2.7044,2.6962,2.7371,2.751,2.7632,2.8299,2.8294,2.8153,2.8534,2.8685,2.86,2.8011,2.8575,2.9301,2.9336,2.9301,2.9483,2.997,3.01,3.021,3.0582,3.0654,3.0797,3.1251,3.111,3.0997,3.1227,3.1232,3.1114,3.0821,3.0612,3.0295,2.9862,2.9808,2.9775,2.9648,2.9927,3.0296,3.0777,3.1219,3.168,3.2163,3.233,3.2355,3.2382,3.2523,3.2605,3.2605,3.2962,3.3256,3.3487,3.3642,3.3848,2.3002,2.3126,2.3563,2.497,2.4639,2.4363,2.5801,2.5094,2.423,2.4645,2.434,2.3827,0.0,0.0,0.0,2.3655,2.4388,0.0,2.5091,2.5513,0.0,2.6034,0.0,2.6354,2.6325,2.6235,0.0,0.0,2.6031,2.5841,2.592,2.6252,2.6408,2.63,2.6816,2.6946,2.6484,2.6073,2.5552,2.4914,2.5592,2.5614,2.5168,2.5508,2.5636,2.5506,2.5946,2.626,2.6509,2.6715,2.6779,2.6738,2.6633,2.6385,2.6157,2.6324,2.6282,2.6199,2.6592,2.6715,2.6798,2.7534,2.78,2.7898,2.8538,2.8758,2.887,2.9142,2.924,2.9153,2.8564,2.9135,2.9823,2.9379,2.9614,2.9918,3.0074,3.01,3.01,3.0038,3.0256,3.069,3.1393,3.1466,3.1495,3.1833,3.1867,3.1517,3.0527,3.0387,3.0163,2.9704,2.9744,2.987,3.0113,3.0111,3.0355,3.0984,3.0984,3.1248,3.1855,3.2053,3.2135,3.2247,3.2468,3.2691,3.28,3.3123,3.3388,3.3642,3.3771,3.3949,2.4149,2.3969,2.4078,2.5656,2.5025,2.4362,2.5753,2.5038,2.4108,2.4357,2.393,2.3467,2.3431,2.383,0.0,0.0,0.0,0.0,2.5409,2.5784,2.6201,0.0,2.663,0.0,2.6685,2.666,2.6718,0.0,2.6434,2.6222,2.6336,2.6698,2.6739,2.6393,2.678,2.6698,2.6059,2.6044,2.579,2.5337,2.5828,2.5744,2.5211,2.538,2.538,2.5295,0.0,2.6113,2.6467,2.6757,2.6903,2.6903,2.6779,2.6614,2.6407,2.6407,2.6407,2.6407,2.6633,2.6715,2.6839,2.7493,2.78,2.7962,2.8419,2.8567,2.8645,2.8878,2.9151,2.9284,2.8769,2.9548,3.0372,2.9797,3.0085,3.0503,3.0503,3.0503,3.0503,3.044,3.0724,3.1089,3.1631,3.1627,3.1646,3.1924,3.1805,3.1489,3.089,3.0555,3.0423,3.0527,3.0051,2.995,3.0483,3.0254,3.0294,3.0717,3.0984,3.1278,3.1625,3.1994,3.2219,3.2358,3.2609,3.2827,3.2993,3.3256,3.3519,3.3694,3.3848,3.3975,2.5452,2.4915,2.4498,2.6318,2.5299,2.4192,2.5407,2.4613,2.3687,2.3838,2.3318,2.3094,2.397,2.4059,2.4006,2.4028,0.0,2.5648,2.5648,2.5909,2.6443,2.7489,2.7051,2.6874,2.7315,2.7309,2.7262,2.7214,2.6889,2.6801,2.6976,2.7105,2.6998,2.6588,2.6505,2.6318,2.601,2.6145,2.6138,2.5956,2.6194,2.5937,2.5232,2.5189,2.5105,2.4956,2.5316,2.5737,2.6196,2.6715,2.6903,2.6903,2.6944,2.682,2.6633,2.6633,2.6633,2.6715,2.688,2.6962,2.7044,2.7452,2.7696,2.7921,2.8179,2.8162,2.8149,2.8303,2.8837,2.9237,2.886,2.9895,3.0843,3.0231,3.0581,3.0973,3.0973,3.0973,3.1048,3.1272,3.1458,3.1633,3.178,3.1631,3.1478,3.1688,3.128,3.1154,3.1555,3.1021,3.0885,3.1617,3.0559,3.008,3.0807,3.0392,3.0203,3.0387,3.1073,3.148,3.1538,3.2076,3.2468,3.2523,3.28,3.2993,3.3069,3.3361,3.3565,3.3694,3.3848,3.3975,2.4937,2.4626,2.432,2.5574,2.5614,2.5348,2.5424,2.5207,0.0,0.0,2.3878,2.3846,2.366,2.4132,2.4438,2.4136,2.5228,2.602,0.0,0.0,2.717,0.0,0.0,0.0,0.0,0.0,0.0,0.0,0.0,2.7274,2.7499,2.6983,2.6568,2.6271,2.5939,2.5986,2.6481,2.6525,2.6425,2.6238,2.6647,2.6367,2.5506,2.5295,2.5189,2.5147,2.5401,0.0,2.601,2.6655,2.6903,2.6944,2.7067,2.7026,2.6839,2.6839,2.6962,2.7103,2.7144,2.7267,2.7452,2.776,2.7841,2.7962,2.8363,2.8545,2.867,2.8709,2.9294,2.9847,2.9262,3.0043,3.0843,3.0231,3.0581,3.0973,3.0973,3.0973,3.1048,3.1272,3.1458,3.1569,3.1421,3.1208,3.1153,3.1268,3.0446,3.0388,3.2022,3.1567,3.1264,3.1674,3.1023,3.0753,3.118,3.0639,3.0447,3.0925,3.119,3.1452,3.1741,3.2163,3.2358,3.2274,3.28,3.3016,3.2939,3.3335,3.3565,3.3694,3.3848,3.3975,2.5525,2.5289,2.5027,2.5624,2.5583,2.5266,2.4987,0.0,0.0,0.0,2.326,2.3301,2.3477,2.3673,0.0,2.4198,2.4966,0.0,0.0,0.0,0.0,0.0,0.0,0.0,0.0,0.0,0.0,0.0,0.0,2.7214,2.7023,2.6506,2.6135,2.5899,2.5481,2.5547,2.6253,2.6253,2.6235,2.626,2.6454,2.6239,2.5612,2.5464,2.5295,2.5084,2.5232,0.0,2.5759,2.6302,2.6674,2.6944,2.7108,2.7149,2.7067,2.7067,2.7167,2.7348,2.7348,2.7429,2.7551,2.7938,2.8002,2.7921,2.8122,2.8379,2.8585,2.8436,2.9118,2.9795,2.9314,3.0083,3.0921,3.0634,3.079,3.1011,3.1123,3.1161,3.1198,3.141,3.1559,3.1569,3.1606,3.1343,3.1189,3.1303,3.0637,3.0629,3.2218,3.188,3.1796,3.2602,3.1439,3.0977,3.1801,3.0997,3.0717,3.1278,3.1596,3.1796,3.1853,3.2274,3.2523,3.2582,3.2827,3.3016,3.3096,3.3388,3.3565,3.3694,3.3848,3.3975,2.5851,2.5661,2.5462,2.5523,2.5357,2.505,2.4508,2.4518,0.0,2.2824,2.2455,2.2543,2.3018,2.3042,2.3283,0.0,2.4619,2.5187,0.0,0.0,0.0,0.0,0.0,0.0,0.0,0.0,0.0,0.0,0.0,0.0,2.6547,2.6295,2.5996,2.5672,2.5293,2.5401,2.6043,2.6043,2.6173,2.6325,2.6325,2.613,2.5738,2.5696,2.5422,2.4978,2.5105,0.0,0.0,2.5946,2.6385,2.6779,2.7026,2.7149,2.7149,2.719,2.7371,2.7574,2.7574,2.7574,2.7655,2.8059,2.8082,2.7921,2.8002,2.8243,2.8466,2.8188,2.8839,2.9565,2.9315,3.0047,3.0861,3.0861,3.0936,3.1048,3.1272,3.1384,3.1458,3.1596,3.1633,3.1669,3.178,3.1415,3.1216,3.1529,3.0964,3.098,3.2277,3.1965,3.2055,3.3246,3.1763,3.1112,3.2127,3.1266,3.0925,3.1596,3.1994,3.2135,3.1964,3.2413,3.2718,3.2773,3.2881,3.3016,3.3203,3.3388,3.3487,3.3617,3.3797,3.3949,2.4949,2.4816,2.4557,2.4411,2.5046,2.5426,2.4312,0.0,2.4394,2.2403,2.2166,2.2224,2.1908,2.2503,2.3155,2.3611,2.4519,2.5296,0.0,0.0,0.0,0.0,0.0,0.0,0.0,0.0,0.0,0.0,0.0,0.0,2.6615,2.6789,2.6578,2.5891,2.5827,2.6044,2.6541,2.6541,2.6648,2.6841,2.6841,2.6598,2.6157,2.5948,2.5633,2.5147,2.5189,0.0,0.0,2.5717,2.6074,2.6324,2.6738,2.6944,2.6944,2.7149,2.7476,2.7841,2.7841,2.7841,2.7921,2.8139,2.8082,2.7962,2.8323,2.8459,2.8498,2.845,2.8924,2.9394,2.9383,2.9935,3.0444,3.0444,3.071,3.1048,3.1272,3.1569,3.1817,3.1643,3.1753,3.178,3.1421,3.1017,3.0985,3.1765,3.0885,3.0771,3.2447,3.1689,3.1376,3.2392,3.1836,3.1484,3.1548,3.1096,3.1102,3.1912,3.2107,3.2191,3.2163,3.2636,3.2746,3.2468,3.2881,3.3016,3.2939,3.3203,3.3335,3.3361,3.372,3.3899,2.4923,2.5071,2.5083,2.4271,2.4616,2.4888,2.384,2.407,2.4022,2.2242,2.2369,2.2566,2.1874,2.2455,2.3143,2.3388,2.3925,2.4581,2.5423,0.0,0.0,0.0,0.0,0.0,0.0,0.0,0.0,0.0,0.0,0.0,2.7228,2.691,2.6564,2.6072,2.5953,2.6043,2.6347,2.6364,2.6402,2.6464,2.6632,2.6627,2.6448,2.6199,2.5884,2.5591,2.5506,0.0,0.0,2.5926,2.6218,2.6467,2.6903,2.7067,2.7108,2.719,2.7516,2.7881,2.7881,2.8002,2.8099,2.8299,2.8219,2.8139,2.8419,2.8578,2.8697,2.8816,2.9248,2.9638,2.9638,3.0024,3.0444,3.071,3.0811,3.0962,3.1559,3.1706,3.1743,3.1753,3.1853,3.1746,3.1189,3.1315,3.1451,3.1523,3.1424,3.1548,3.2081,3.1737,3.1403,3.1264,3.105,3.1087,3.1587,3.1037,3.125,3.2629,3.2179,3.212,3.2599,3.2517,3.2441,3.2382,3.28,3.2989,3.3016,3.3123,3.3256,3.3408,3.3565,3.3771,2.4712,2.5104,2.5373,2.4214,2.4308,2.446,2.3554,2.3674,2.3568,2.2192,2.2405,2.2546,2.1536,2.2226,2.2897,2.282,2.3298,2.4063,2.518,2.5546,0.0,0.0,0.0,0.0,0.0,0.0,0.0,0.0,0.0,0.0,2.7715,2.7186,2.6789,2.6557,2.6271,2.6193,2.6303,2.6231,2.624,2.6324,2.6573,2.6674,2.6674,2.649,2.624,2.5906,2.5801,0.0,0.0,2.6071,2.6362,2.6633,2.6985,2.7108,2.7149,2.7231,2.7557,2.7921,2.7962,2.8059,2.8219,2.8419,2.8339,2.8259,2.8498,2.8697,2.8831,2.8973,2.9326,2.9702,2.9779,3.0011,3.0292,3.0634,3.0773,3.091,3.1383,3.1476,3.1539,3.1621,3.1585,3.1468,3.1289,3.1424,3.1487,3.1306,3.1504,3.1646,3.1564,3.1412,3.1138,3.066,3.0471,3.0614,3.1237,3.0859,3.1191,3.2605,3.2038,3.1949,3.2663,3.2322,3.2247,3.2468,3.2664,3.2827,3.2962,3.3016,3.315,3.3388,3.3487,3.3745,2.4106,2.4566,2.5063,2.3968,2.4112,2.4303,2.3575,2.3399,2.3119,2.2129,2.2122,2.1915,2.0572,2.1523,2.2296,2.1715,2.2783,2.3994,2.4789,2.5476,0.0,0.0,0.0,0.0,0.0,0.0,0.0,0.0,0.0,0.0,2.7998,2.7715,2.7504,2.7292,2.6849,2.6579,2.6584,2.6315,2.6324,2.6592,2.682,2.6903,2.6903,2.688,2.6531,2.5906,0.0,0.0,0.0,2.6113,2.6362,2.6592,2.6798,2.6903,2.6944,2.7371,2.7655,2.7921,2.8139,2.8219,2.8219,2.8419,2.8339,2.8259,2.8673,2.8791,2.8791,2.8791,2.9106,2.9457,2.974,2.9804,2.9856,3.0049,3.0558,3.0891,3.0523,3.0896,3.1216,3.1065,3.086,3.0949,3.1746,3.1235,3.086,3.1251,3.0798,3.0556,3.0874,3.0483,3.0382,3.0768,3.0358,3.0172,3.0296,3.0477,3.0866,3.1481,3.1508,3.1709,3.2191,3.2081,3.2193,3.2578,3.2468,3.2468,3.2605,3.28,3.2962,3.3096,3.3487,3.3848,2.3683,2.3904,2.3871,2.3406,2.3458,2.3413,2.2603,2.276,2.2815,2.192,2.2521,2.2871,2.174,2.2402,2.3047,2.2851,2.3105,2.3609,0.0,0.0,0.0,0.0,0.0,0.0,0.0,0.0,0.0,0.0,0.0,0.0,2.8279,2.7721,2.7302,2.7108,2.6578,2.6248,2.613,2.6167,2.6343,2.6592,2.6944,2.7108,2.7108,2.6985,2.6779,0.0,0.0,0.0,0.0,2.6592,2.6715,2.682,2.7026,2.7108,2.7149,2.7412,2.7655,2.7921,2.8139,2.8299,2.8419,2.8459,2.8459,2.8419,2.8538,2.8697,2.887,2.9145,2.9443,2.964,2.9454,2.9593,2.9833,3.0068,3.035,3.0696,3.1135,3.1266,3.1303,3.1229,3.1156,3.098,3.0512,3.0592,3.0566,3.014,3.0256,3.0358,3.0262,3.0238,3.0219,3.0299,3.0195,3.0203,3.0477,3.0568,3.0952,3.1812,3.1545,3.1661,3.2256,3.1951,3.2023,3.2468,3.252,3.2633,3.28,3.2962,3.315,3.3388,3.3694,3.3924,2.3105,2.3405,2.3357,2.3198,2.3262,2.315,2.2283,2.2635,2.2904,2.197,2.2702,2.3213,2.2188,2.253,2.2927,2.2559,2.2788,2.3253,0.0,0.0,0.0,0.0,0.0,0.0,0.0,0.0,0.0,0.0,0.0,0.0,2.837,2.788,2.7415,2.7153,2.6549,2.6145,2.6043,2.6167,2.6302,2.6426,2.6903,2.7108,2.7108,2.7026,2.6985,0.0,0.0,0.0,0.0,2.6944,2.7067,2.7126,2.7249,2.7394,2.7476,2.7696,2.7857,2.8042,2.8219,2.8379,2.8522,2.8522,2.8522,2.8522,2.8522,2.8697,2.8988,2.9443,2.974,2.9858,2.9517,2.9543,2.972,2.9859,3.0077,3.0396,3.0728,3.0944,3.1066,3.0993,3.0844,3.0599,3.0202,3.0147,2.9992,2.9544,2.9631,2.9711,2.9688,2.9767,2.9883,2.9986,3.0083,3.0264,3.0477,3.0477,3.0742,3.1332,3.119,3.1309,3.1812,3.169,3.1824,3.2247,3.2437,3.2605,3.2718,3.2962,3.3203,3.344,3.3694,3.3899,0.0,2.3065,2.328,2.3172,2.3416,2.3393,2.2414,2.2908,0.0,2.2176,2.2698,2.3089,2.211,2.2152,2.2078,2.1275,2.2094,2.2894,0.0,0.0,0.0,0.0,0.0,0.0,0.0,0.0,0.0,0.0,0.0,0.0,2.8387,2.8095,2.7741,2.7348,2.6585,2.6217,2.6239,2.6209,2.6199,2.624,2.6674,2.6903,2.6903,2.7108,2.7067,0.0,0.0,0.0,0.0,2.7108,2.729,2.747,2.747,2.7655,2.7881,2.8099,2.8219,2.8219,2.8419,2.8498,2.8498,2.8498,2.8498,2.8522,2.8538,2.8776,2.917,2.9624,2.9934,3.0024,2.9806,2.9656,2.9537,2.9548,2.9844,3.0043,2.9688,3.0192,3.0635,3.0428,3.0086,2.9989,3.0477,2.9816,2.9268,2.9414,2.8953,2.8729,2.9081,2.9216,2.9435,2.9777,3.0085,3.0326,3.0326,3.0326,3.0326,3.0326,3.0628,3.0866,3.1043,3.1335,3.1682,3.2053,3.2302,3.2441,3.2441,3.285,3.315,3.3309,3.3565,3.3771,2.24,0.0,2.2575,2.2778,2.2992,2.2959,0.0,2.2693,2.3234,2.2386,2.2914,2.3441,2.3071,2.2351,2.1932,2.2379,2.2355,2.2542,0.0,0.0,0.0,0.0,0.0,0.0,0.0,0.0,0.0,0.0,0.0,2.7501,2.8054,2.7676,2.7236,2.6801,2.6406,2.6059,2.5785,2.5908,2.6157,2.6531,2.6779,2.6903,2.6903,2.6944,2.6944,0.0,0.0,0.0,2.7149,2.719,2.7231,2.729,2.7452,2.751,2.7655,2.8059,2.8219,2.8219,2.8419,2.8618,2.8736,2.8736,2.8618,2.8538,2.8855,2.9013,2.9131,2.9209,2.9677,3.0024,2.9668,2.9883,3.0136,3.0021,3.0292,3.0551,3.0644,3.0797,3.0808,3.0252,3.0224,3.0086,2.9422,2.9254,2.91,2.8839,2.8682,2.8729,2.9081,2.9216,2.9498,2.996,3.0174,3.0357,3.0507,3.0538,3.0538,3.0538,3.0807,3.1043,3.1219,3.1509,3.1908,3.2437,3.266,3.2773,3.2773,3.2881,3.3069,3.3309,3.3668,3.3797,2.2504,2.2379,2.2337,2.2965,2.308,2.2909,2.2487,2.3031,2.3411,2.2652,2.2959,2.3336,2.3196,2.2384,2.1971,0.0,2.2765,0.0,0.0,0.0,0.0,0.0,0.0,0.0,0.0,0.0,0.0,0.0,0.0,2.7428,2.816,2.7687,2.7379,2.7301,2.6679,2.6199,2.5738,2.5948,2.624,2.6592,2.6738,2.6757,2.6757,2.6757,2.6757,0.0,0.0,0.0,2.6944,2.7026,2.7167,2.7371,2.7574,2.7817,2.7978,2.8219,2.8339,2.8339,2.8459,2.8618,2.8831,2.8934,2.8816,2.8697,2.9013,2.9091,2.9131,2.9365,2.954,2.9643,2.9413,2.9753,3.0054,2.9741,3.0053,3.0496,3.0655,3.0865,3.0817,3.0205,3.0082,2.9857,2.905,2.8919,2.8855,2.8655,2.8665,2.8794,2.9081,2.9243,2.9526,2.9898,3.0113,3.044,3.1003,3.0832,3.0833,3.1125,3.1426,3.1664,3.1753,3.1834,3.2079,3.2574,3.2687,3.2746,3.2746,3.2827,3.2962,3.3123,3.3545,3.3668,2.274,2.2485,2.2435,2.3244,2.3264,2.31,2.3072,2.349,2.3629,2.2956,0.0,0.0,0.0,2.2512,0.0,0.0,0.0,0.0,0.0,0.0,0.0,0.0,0.0,0.0,0.0,0.0,0.0,0.0,0.0,2.7617,2.8441,2.7986,2.781,2.8047,2.7153,2.6474,2.6032,2.6199,2.6407,2.6674,2.6674,2.6633,2.6633,2.6592,2.655,2.6531,0.0,0.0,2.6592,2.682,2.7085,2.7452,2.776,2.8082,2.8403,2.8419,2.8459,2.8498,2.8578,2.8648,2.8733,2.9028,2.8973,2.8831,2.9052,2.9042,2.911,2.9638,2.9618,2.9364,2.9364,2.9688,2.9891,2.9542,2.9902,3.0341,3.0497,3.0819,3.0854,3.0278,3.0006,2.9749,2.9164,2.8932,2.8845,2.8736,2.8866,2.8972,2.9081,2.9303,2.9526,2.9777,2.9991,3.0522,3.1526,3.1243,3.1276,3.1981,3.2077,3.2139,3.2199,3.2098,3.2219,3.2551,3.2605,3.2664,3.2664,3.28,3.2939,3.3016,3.3388,3.3539,2.3406,2.3286,2.2935,2.2863,2.2948,2.2985,2.293,2.3296,2.3574,2.3351,0.0,0.0,0.0,2.3352,2.2935,0.0,0.0,0.0,0.0,0.0,0.0,0.0,0.0,0.0,0.0,0.0,0.0,0.0,0.0,2.755,2.8915,2.8476,2.8054,2.7742,2.7395,2.6998,2.649,2.6509,2.6715,2.7103,2.6921,2.6839,2.6839,2.6674,2.6467,2.6282,0.0,2.6407,2.6592,2.682,2.6944,2.7044,2.7412,2.7736,2.8002,2.8179,2.8339,2.8538,2.8895,2.8641,2.8246,2.8905,2.8973,2.8831,2.9052,2.8772,2.8617,2.9538,3.0012,3.024,3.024,3.0505,3.0779,3.0738,3.0939,3.1103,3.114,3.122,3.1077,3.0497,3.0466,3.037,2.9749,2.99,2.9957,2.9448,2.9465,2.9438,2.9136,2.9397,2.962,2.9777,3.0083,3.0616,3.1526,3.1715,3.2164,3.3028,3.196,3.1456,3.1775,3.2137,3.2385,3.241,3.2718,3.2827,3.2827,3.2885,3.3123,3.3565,3.3642,3.372,2.3427,2.3635,2.3819,2.3662,2.3739,2.3905,2.4004,2.4213,2.4326,2.4005,0.0,0.0,0.0,0.0,2.3607,0.0,0.0,0.0,0.0,0.0,0.0,0.0,0.0,0.0,0.0,0.0,0.0,0.0,0.0,0.0,2.9245,2.8826,2.8451,2.8315,2.813,2.7815,2.7334,2.7739,2.7759,2.7348,2.7044,2.6903,2.6903,2.6531,2.6282,2.6032,0.0,2.6199,2.6407,2.6655,2.688,2.7085,2.7389,2.7655,2.7921,2.8139,2.8132,2.8153,2.8876,2.8684,2.8278,2.9012,2.9131,2.8973,2.9052,2.8919,2.885,2.9408,2.9643,2.9794,2.9869,3.0364,3.0809,3.0692,3.0913,3.1198,3.141,3.1272,3.104,3.0642,3.0654,3.0539,3.0057,3.0219,3.031,3.0038,3.0193,3.0207,2.9762,2.9999,3.0205,3.008,3.0235,3.0883,3.2242,3.1898,3.199,3.2825,3.2318,3.1928,3.1855,3.2219,3.2382,3.2382,3.2605,3.2773,3.2912,3.2912,3.3096,3.3492,3.3539,3.3565,2.3494,2.3848,2.4347,2.4597,2.4612,2.4664,2.5001,2.5143,2.514,2.4803,0.0,0.0,0.0,2.4321,0.0,0.0,0.0,0.0,0.0,0.0,0.0,0.0,0.0,0.0,0.0,0.0,0.0,0.0,0.0,0.0,2.9642,2.9203,2.8937,2.8858,2.8828,2.8555,2.8007,2.868,2.8672,2.7964,2.7635,2.7382,2.7227,2.6813,2.6393,2.599,2.599,2.6074,2.624,2.6467,2.6798,2.7144,2.7348,2.7504,2.7653,2.7909,2.7702,2.7426,2.8665,2.8649,2.8169,2.904,2.9184,2.9013,2.9013,2.9052,2.9131,2.9341,2.9428,2.9515,2.969,3.0249,3.0745,3.0572,3.0808,3.1187,3.1522,3.1373,3.113,3.0983,3.0975,3.0878,3.0564,3.0694,3.0771,3.0635,3.0856,3.0881,3.0498,3.0632,3.07,3.0553,3.0443,3.1003,3.2635,3.2346,3.2169,3.2467,3.2436,3.2282,3.2027,3.2219,3.2355,3.2468,3.2578,3.2773,3.2989,3.2966,3.3123,3.3466,3.3466,3.3466,2.4009,2.3973,2.3944,2.5148,2.4957,2.4633,2.5166,2.5452,2.5584,2.5678,2.5839,0.0,0.0,2.543,0.0,0.0,0.0,0.0,0.0,0.0,0.0,0.0,0.0,0.0,0.0,0.0,0.0,0.0,0.0,0.0,3.0079,2.9866,2.95,2.9103,2.9125,2.8809,2.8007,2.8551,2.8978,2.9268,2.9226,2.8864,2.8189,2.7962,2.725,2.6199,2.6199,2.6199,2.624,2.6467,2.6715,2.6944,2.7149,2.7054,2.6916,2.7309,2.6823,2.6232,2.8358,2.8289,2.7467,2.8709,2.9013,2.8831,2.8831,2.8973,2.9131,2.9341,2.9819,3.0317,3.0355,3.0646,3.0973,3.0959,3.1134,3.1347,3.1559,3.1559,3.1633,3.1763,3.1836,3.1809,3.1783,3.1938,3.1857,3.1314,3.1381,3.1378,3.1143,3.0885,3.0839,3.1185,3.0854,3.098,3.1986,3.3419,3.3754,3.2557,3.1958,3.1713,3.1996,3.2135,3.233,3.2578,3.2773,3.2989,3.3282,3.315,3.3361,3.3848,3.3461,3.3519,2.3798,2.429,2.4715,2.5215,2.5524,2.5852,2.6552,2.6883,2.7007,2.6883,2.7224,0.0,0.0,0.0,0.0,0.0,0.0,0.0,0.0,0.0,0.0,0.0,0.0,0.0,0.0,0.0,0.0,0.0,0.0,0.0,2.9988,3.0055,2.9895,2.9602,2.9602,2.9421,2.8925,2.9123,2.9424,2.9836,2.9244,2.8574,2.7813,2.7607,2.688,2.5798,2.6273,2.6352,2.6247,2.6744,2.7062,2.7244,2.6904,2.6625,2.6534,2.6665,2.6405,2.6164,2.7478,2.7677,2.7495,2.8177,2.868,2.8934,2.8697,2.8855,2.9131,2.9209,2.9793,3.0406,3.0406,3.071,3.0973,3.0973,3.1161,3.1347,3.1559,3.1596,3.1706,3.2036,3.2,3.1927,3.2073,3.2228,3.2254,3.2036,3.2231,3.2222,3.1589,3.1447,3.1311,3.091,3.1594,3.231,3.2882,3.3901,3.3965,3.2706,3.2375,3.2191,3.2027,3.2219,3.2385,3.2468,3.2746,3.2989,3.3176,3.3123,3.3282,3.3642,3.3414,3.3388,2.3818,2.4466,2.5153,2.5292,2.5762,2.6532,2.7631,2.7959,2.7971,2.7754,2.8081,2.8072,2.6986,0.0,0.0,0.0,0.0,0.0,0.0,0.0,0.0,0.0,0.0,0.0,0.0,0.0,0.0,0.0,0.0,0.0,0.0,2.9578,2.9691,2.9648,2.9648,2.9625,2.9485,2.951,2.9544,2.9666,2.9038,2.8445,2.797,2.7766,2.6948,2.5712,2.6292,2.6358,2.6086,2.6565,2.6903,2.7079,2.6635,2.6287,2.6047,2.6146,2.6097,2.614,2.7173,2.7567,2.764,2.8201,2.8578,2.8855,2.8657,2.8816,2.9091,2.917,2.9793,3.0406,3.0406,3.071,3.0973,3.0973,3.1161,3.1347,3.1559,3.1633,3.178,3.2146,3.2109,3.2036,3.2182,3.2336,3.2417,3.2489,3.2775,3.2856,3.2449,3.2065,3.1578,3.0743,3.2278,3.3384,3.3422,3.4261,3.4295,3.3036,3.3035,3.276,3.2112,3.2247,3.2413,3.2551,3.2773,3.2993,3.3096,3.3123,3.3256,3.344,3.3335,3.3309,2.4233,2.461,2.4975,2.5261,2.56,2.6333,2.8018,2.8392,2.8351,2.817,2.8292,2.817,2.7384,2.7917,0.0,0.0,0.0,0.0,0.0,0.0,0.0,0.0,0.0,0.0,0.0,0.0,0.0,0.0,0.0,0.0,0.0,2.8441,2.8843,2.908,2.9103,2.9218,2.9463,2.951,2.9251,2.868,2.8682,2.8799,2.8981,2.8757,2.7743,2.6086,2.6308,2.6113,2.5716,2.5847,2.6077,2.6306,2.6282,2.5977,2.553,2.5714,2.5788,2.6004,2.77,2.8013,2.784,2.8778,2.8816,2.8538,2.8712,2.8934,2.9131,2.9341,2.9883,3.0406,3.0406,3.071,3.0973,3.0973,3.1161,3.1347,3.1559,3.1743,3.1963,3.2146,3.2218,3.2218,3.2218,3.2336,3.2489,3.2668,3.2881,3.3199,3.3722,3.2678,3.1613,3.0863,3.2845,3.3951,3.3358,3.4646,3.4921,3.3574,3.3759,3.3391,3.2252,3.2191,3.2444,3.2912,3.2912,3.2993,3.3096,3.3229,3.3309,3.3309,3.3309,3.3309,2.4747,2.5011,2.5044,2.5717,0.0,0.0,2.7561,2.8267,2.908,0.0,2.963,2.9262,2.9524,0.0,0.0,0.0,0.0,0.0,0.0,0.0,0.0,0.0,0.0,0.0,0.0,0.0,0.0,0.0,0.0,0.0,0.0,2.9132,2.9561,2.9811,2.9533,2.9262,2.8992,2.85,2.8181,2.813,2.7792,2.7743,2.7947,2.7865,2.7025,2.5672,2.6329,2.6163,2.5475,2.6127,2.6207,2.5914,2.5802,2.551,2.5242,2.5278,2.5385,2.5517,2.6178,2.6578,2.6893,2.754,2.8017,2.8407,2.8733,2.9028,2.9302,2.938,2.9793,3.0216,3.0368,3.0596,3.0811,3.0999,3.1261,3.1522,3.1596,3.1853,3.2146,3.2182,3.2218,3.2255,3.2309,3.2489,3.2668,3.2881,3.3086,3.3127,3.2857,3.2436,3.2134,3.202,3.2586,3.3333,3.408,3.4111,3.3933,3.3514,3.3336,3.2906,3.2112,3.233,3.2551,3.2691,3.2908,3.3043,3.3096,3.3229,3.3309,3.3309,3.3309,3.3309,2.5039,2.5515,0.0,2.6407,2.6994,2.7536,2.7965,0.0,0.0,0.0,3.0525,3.0249,3.0365,2.988,0.0,0.0,0.0,0.0,0.0,0.0,0.0,0.0,0.0,0.0,0.0,0.0,0.0,0.0,0.0,0.0,0.0,2.853,2.909,2.9552,2.901,2.8813,2.8903,2.7895,2.7375,2.7478,2.7098,2.7031,2.7232,2.7418,2.6777,2.5561,2.5831,2.5779,2.5564,2.6358,2.6412,2.5922,2.6025,2.5682,2.5182,2.5182,2.5373,2.5648,2.5922,2.6287,2.6748,2.7482,2.7935,2.8303,2.8856,2.9223,2.9419,2.9521,2.9831,3.0164,3.0368,3.052,3.0773,3.1048,3.1373,3.1596,3.1706,3.1963,3.2182,3.2109,3.2146,3.2218,3.2191,3.2489,3.2775,3.2988,3.3437,3.343,3.2629,3.2902,3.2855,3.2109,3.2617,3.3276,3.4054,3.3724,3.3484,3.3484,3.3185,3.2695,3.2027,3.233,3.2578,3.2718,3.2908,3.3043,3.3096,3.3229,3.3309,3.3309,3.3309,3.3309,2.5246,2.6047,2.6868,2.7278,2.7351,0.0,2.8911,2.9537,3.0014,3.0632,0.0,3.1086,3.0407,0.0,0.0,0.0,0.0,0.0,0.0,0.0,0.0,0.0,0.0,0.0,0.0,0.0,0.0,0.0,0.0,0.0,0.0,2.7254,2.7939,2.8694,2.8052,2.8062,2.8899,2.7496,2.673,2.668,2.6491,2.6523,2.6744,2.7192,2.6787,2.5616,2.5042,2.5192,2.5836,2.6535,2.655,2.6142,2.6633,2.6177,2.53,2.53,2.5612,2.6094,2.6479,2.6737,2.7048,2.8162,2.8308,2.8226,2.9128,2.9419,2.9457,2.9702,2.9934,3.0126,3.033,3.052,3.0773,3.1198,3.1447,3.1633,3.1853,3.2036,3.2109,3.1963,3.2073,3.2182,3.2,3.2408,3.2846,3.3058,3.3854,3.4002,3.2881,3.3708,3.3631,3.1544,3.2736,3.3607,3.3484,3.3455,3.3455,3.3484,3.3185,3.2695,3.2027,3.2274,3.2578,3.2912,3.2912,3.2962,3.3123,3.3229,3.3309,3.3309,3.3309,3.3309,2.5888,2.6109,0.0,2.76,2.8242,2.8675,2.9249,2.9668,3.0189,3.0985,3.1235,3.1367,0.0,0.0,0.0,0.0,0.0,0.0,0.0,0.0,0.0,0.0,0.0,0.0,0.0,0.0,0.0,0.0,0.0,0.0,2.7062,2.7764,2.8296,2.8607,2.8382,2.7946,2.7379,2.6832,2.6269,0.0,2.5649,2.5837,2.6171,2.6563,2.6216,2.5275,2.4951,2.5192,2.5812,2.6128,2.6214,2.6117,2.6238,2.5877,2.53,2.53,2.5443,2.5741,2.6012,2.6355,2.6883,2.7718,2.8088,2.8379,2.9167,2.9419,2.9457,2.9702,2.9818,2.9934,3.0292,3.0444,3.0596,3.1161,3.131,3.1458,3.1817,3.1927,3.2,3.2109,3.2264,3.2381,3.2489,3.2874,3.3262,3.364,3.4259,3.42,3.301,3.3897,3.3816,3.166,3.2462,3.3216,3.3331,3.3036,3.3036,3.3455,3.3185,3.2695,3.2027,3.2358,3.2691,3.2912,3.2989,3.3123,3.3256,3.3282,3.3309,3.3309,3.3309,3.3309,2.5684,2.6024,0.0,2.7484,0.0,2.9001,2.8779,2.9251,2.9921,3.0518,3.1061,0.0,0.0,0.0,0.0,0.0,0.0,0.0,0.0,0.0,0.0,0.0,0.0,0.0,0.0,0.0,0.0,0.0,0.0,2.7371,2.6962,2.7543,2.8045,2.83,2.8012,2.755,2.7067,2.6645,2.6044,2.5287,2.5477,2.5652,2.5765,2.5945,2.5783,2.5322,2.5062,2.5241,2.5825,2.602,2.6093,2.6093,2.6203,2.5924,2.5465,2.5535,2.5641,2.577,2.598,2.635,2.6831,2.7691,2.8201,2.8633,2.9372,2.9599,2.9599,2.974,2.9804,2.9856,3.0177,3.033,3.052,3.1048,3.1235,3.1421,3.1817,3.1817,3.1817,3.2036,3.2191,3.2336,3.2444,3.2909,3.3431,3.3813,3.4327,3.4416,3.3613,3.4231,3.3967,3.2079,3.2464,3.3005,3.327,3.2856,3.2916,3.3547,3.3244,3.2724,3.2109,3.2413,3.2691,3.2912,3.2993,3.3096,3.3309,3.3309,3.3309,3.3309,3.3309,3.3309,2.5341,2.6146,2.679,2.7315,2.8262,0.0,2.8096,2.855,2.9284,2.9792,0.0,0.0,0.0,0.0,0.0,0.0,0.0,0.0,0.0,0.0,0.0,0.0,0.0,0.0,0.0,0.0,0.0,0.0,0.0,2.7435,2.6674,2.7277,2.7689,2.7851,2.7571,2.7231,2.6938,2.6496,2.5925,2.5168,2.5572,2.5717,2.5567,2.551,2.5462,2.5439,2.5194,2.5421,2.5898,2.6044,2.613,2.6166,2.6336,2.6092,2.5676,2.584,2.591,2.598,2.6144,2.654,2.7063,2.7837,2.8437,2.8948,2.9615,2.974,2.974,2.9804,2.9804,2.9856,3.0088,3.0292,3.0482,3.0898,3.1123,3.1347,3.178,3.1706,3.1633,3.1853,3.2109,3.2327,3.24,3.2937,3.3466,3.3819,3.4332,3.4538,3.4097,3.447,3.4113,3.2406,3.2617,3.2946,3.3238,3.2915,3.3006,3.3607,3.3486,3.3026,3.2377,3.2598,3.2784,3.2912,3.2939,3.3043,3.3309,3.3309,3.3309,3.3309,3.3309,3.3309,2.5427,0.0,2.7996,0.0,2.7759,2.8149,0.0,0.0,2.8163,0.0,0.0,0.0,0.0,0.0,0.0,0.0,0.0,0.0,0.0,0.0,0.0,0.0,0.0,0.0,0.0,0.0,0.0,0.0,2.7378,2.719,2.6903,2.7704,2.7939,2.7346,2.7874,2.7435,2.5922,2.6185,2.5887,2.504,2.542,2.5685,2.5751,2.5457,2.5349,2.5313,2.5171,2.5565,2.6299,2.6166,2.6203,2.6372,2.6408,2.6199,2.5875,2.5875,2.6015,2.6179,2.6179,2.693,2.7923,2.806,2.865,2.9383,2.9715,2.9638,2.9521,2.974,2.9804,2.9895,3.0254,3.0368,3.0482,3.0898,3.1011,3.1149,3.1559,3.1596,3.1633,3.1853,3.23,3.2739,3.3114,3.3396,3.3675,3.4025,3.4428,3.4391,3.3443,3.4399,3.4335,3.2283,3.2853,3.3303,3.3051,3.3333,3.3547,3.3515,3.4303,3.4182,3.2936,3.3133,3.3169,3.2912,3.2989,3.315,3.3309,3.3309,3.3309,3.3309,3.3309,3.3309,2.4559,2.5565,2.6394,0.0,2.6957,2.7137,2.7234,0.0,0.0,0.0,0.0,0.0,0.0,0.0,0.0,0.0,0.0,0.0,0.0,0.0,0.0,0.0,0.0,0.0,0.0,0.0,0.0,0.0,2.7103,2.7075,2.6697,2.7694,2.8226,2.804,2.8226,2.7836,2.6764,2.6626,2.6378,2.5936,2.6468,2.6421,2.5947,2.5817,2.5588,2.53,2.5359,2.561,2.5946,2.6006,2.6042,2.6148,2.6219,2.6202,2.6084,2.6188,2.6292,2.6411,2.6712,2.7373,2.8147,2.8473,2.9025,2.9663,2.974,2.9702,2.9663,2.974,2.9856,3.0011,3.0177,3.0406,3.0622,3.0811,3.0924,3.1075,3.1224,3.1261,3.1373,3.1817,3.2336,3.2775,3.2945,3.3472,3.3922,3.4065,3.4501,3.4695,3.4332,3.4744,3.4496,3.3096,3.3204,3.3386,3.3551,3.357,3.3757,3.4147,3.4696,3.4607,3.3723,3.3867,3.3849,3.3478,3.3154,3.3096,3.3309,3.3309,3.3309,3.3309,3.3794,3.4011,0.0,0.0,2.5055,2.5937,2.6113,2.6236,0.0,0.0,0.0,0.0,0.0,0.0,0.0,0.0,0.0,0.0,0.0,0.0,0.0,0.0,0.0,0.0,0.0,0.0,0.0,0.0,0.0,0.0,2.7077,2.7054,2.688,2.7894,2.855,2.8698,2.8509,2.8128,2.7598,2.7133,2.699,2.7188,2.7396,2.7139,2.6432,2.6166,2.5792,2.53,2.55,2.5676,2.5746,2.5875,2.5945,2.598,2.6144,2.6248,2.6292,2.643,2.6499,2.6549,2.6977,2.7519,2.8147,2.8423,2.9001,2.9553,2.9402,2.9453,2.9578,2.9578,2.9794,3.0049,3.0164,3.0394,3.066,3.0773,3.0887,3.1011,3.1048,3.1112,3.1336,3.189,3.2408,3.2775,3.2775,3.3514,3.4128,3.4099,3.4534,3.4843,3.4892,3.4879,3.4538,3.3794,3.3488,3.3526,3.3965,3.3804,3.3963,3.4629,3.5029,3.5003,3.4424,3.4633,3.4589,3.422,3.3716,3.3388,3.3309,3.352,3.3615,3.3646,3.4531,3.4904,0.0,2.5547,0.0,2.5339,2.5391,0.0,0.0,0.0,0.0,0.0,0.0,0.0,0.0,0.0,0.0,0.0,0.0,0.0,0.0,0.0,0.0,0.0,0.0,0.0,0.0,0.0,0.0,0.0,2.7428,2.7102,2.777,2.8556,2.8881,2.8698,2.8698,2.8316,2.7598,2.7325,2.7617,2.8499,2.7832,2.7473,2.7385,2.6366,2.5665,2.53,2.55,2.5816,2.6164,2.5955,2.6015,2.6179,2.6213,2.6327,2.6499,2.6499,2.6499,2.6499,2.6524,2.7253,2.8021,2.7519,2.8097,2.8838,2.8348,2.8549,2.8938,2.8938,2.9377,2.9895,3.0292,3.0406,3.052,3.0898,3.0973,3.1048,3.1235,3.1447,3.1669,3.2109,3.2624,3.2988,3.2988,3.3583,3.4094,3.4094,3.4462,3.453,3.4109,3.4449,3.4434,3.3761,3.3706,3.3771,3.3962,3.4125,3.4254,3.4503,3.5421,3.564,3.5002,3.5278,3.5329,3.5046,3.4983,3.4439,3.3309,3.4133,3.4531,3.4563,3.5336,3.5737,0.0,0.0,0.0,2.4961,2.491,2.4957,0.0,0.0,0.0,0.0,0.0,0.0,0.0,0.0,0.0,0.0,0.0,0.0,0.0,0.0,0.0,0.0,0.0,0.0,0.0,0.0,0.0,0.0,0.0,2.7301,2.8035,2.8678,2.9356,3.009,2.932,2.8519,2.7664,2.8179,2.8371,2.8225,2.847,2.8083,2.7124,2.6979,2.6602,2.6009,2.6224,2.6194,2.6025,2.6223,2.6327,2.6396,2.6396,2.643,2.6499,2.6499,2.6499,2.6549,2.6901,2.7278,2.7595,2.777,2.817,2.852,2.8355,2.8757,2.93,2.93,2.9808,3.0394,3.0546,3.0698,3.0823,3.0999,3.0973,3.1011,3.1086,3.1373,3.1633,3.178,3.2372,3.2846,3.2988,3.3618,3.4128,3.4264,3.453,3.4643,3.4475,3.4485,3.4442,3.418,3.3871,3.3944,3.4519,3.4359,3.446,3.51,3.5693,3.5883,3.5671,3.5983,3.5981,3.5623,3.5739,3.5496,3.4904,3.5213,3.5368,3.5368,3.6158,3.6561,2.4367,0.0,0.0,0.0,0.0,2.4505,0.0,0.0,0.0,0.0,0.0,0.0,0.0,0.0,0.0,0.0,0.0,0.0,0.0,0.0,0.0,0.0,0.0,0.0,0.0,0.0,0.0,0.0,0.0,0.0,2.8715,2.8891,2.9258,2.9978,2.935,2.8657,2.7993,2.8645,2.8878,2.8612,2.8921,2.854,2.7519,2.7648,2.7304,2.6604,2.6802,2.6742,2.6544,2.6511,2.66,2.6751,2.6575,2.6499,2.6499,2.6499,2.6533,2.6618,2.6971,2.7258,2.7506,2.7672,2.7921,2.8155,2.7977,2.8543,2.9241,2.9241,2.9879,3.0622,3.0698,3.0849,3.0973,3.0973,3.0973,3.0973,3.0973,3.1261,3.1522,3.1596,3.2155,3.2668,3.2952,3.3548,3.4059,3.4225,3.4462,3.4563,3.453,3.4462,3.4399,3.4399,3.4122,3.42,3.4839,3.462,3.4723,3.5427,3.5782,3.6005,3.6005,3.632,3.6415,3.6252,3.6489,3.659,3.6506,3.6337,3.6208,3.6185,3.6978,3.7387,0.0,0.0,0.0,0.0,0.0,0.0,2.5423,0.0,0.0,0.0,0.0,0.0,0.0,0.0,0.0,0.0,0.0,0.0,0.0,0.0,0.0,0.0,0.0,0.0,0.0,0.0,0.0,0.0,2.7351,2.7839,2.9917,2.9276,2.8642,2.8219,2.8719,2.8824,2.8522,2.8697,2.9131,2.9754,2.9204,2.8846,2.8713,2.8315,2.7748,2.7096,2.7278,2.7523,2.7777,2.6882,2.6801,2.7193,2.67,2.6499,2.6499,2.6499,2.6602,2.6679,2.6714,2.7172,2.7703,2.7156,2.737,2.7703,2.7191,2.7806,2.8739,2.8739,2.956,3.0444,3.066,3.0849,3.0973,3.0973,3.0973,3.0973,3.0973,3.1161,3.1347,3.1559,3.2046,3.2525,3.2917,3.3409,3.3819,3.3882,3.4191,3.4298,3.4128,3.4264,3.4366,3.4399,3.4399,3.4534,3.4868,3.4902,3.5067,3.5457,3.5782,3.6005,3.6005,3.632,3.6662,3.6969,3.727,3.7565,3.7886,3.7416,3.7062,3.6954,3.783,3.8209,2.4941,0.0,0.0,0.0,0.0,0.0,2.414,2.5232,2.6387,0.0,0.0,0.0,0.0,0.0,0.0,0.0,0.0,0.0,0.0,0.0,0.0,0.0,0.0,0.0,0.0,0.0,0.0,0.0,2.7578,2.8278,3.0458,3.0545,2.9883,2.8467,2.8946,2.9011,2.8522,2.8855,2.9051,2.9088,2.9383,2.9316,2.8928,2.9186,2.9006,2.8463,2.8298,2.8451,2.8682,2.7161,2.6575,2.67,2.6549,2.6499,2.6499,2.6611,2.6679,2.6714,2.6875,2.7046,2.7216,2.7062,2.7216,2.7472,2.7696,2.8394,2.921,2.959,3.024,3.0823,3.0898,3.0962,3.0973,3.0973,3.0973,3.0973,3.0973,3.1048,3.1187,3.1522,3.1963,3.2372,3.2704,3.3157,3.3472,3.364,3.3882,3.4054,3.4094,3.4162,3.423,3.4366,3.4399,3.4534,3.4868,3.4902,3.5067,3.5457,3.5782,3.6005,3.6005,3.632,3.6569,3.6785,3.7088,3.7417,3.7743,3.7926,3.8032,3.8004,3.8226,3.8205,2.4776,2.4777,2.4778,0.0,0.0,0.0,2.4547,2.5202,2.5972,0.0,0.0,0.0,0.0,0.0,0.0,0.0,0.0,0.0,0.0,0.0,0.0,0.0,0.0,0.0,0.0,2.779,2.7581,2.7762,2.768,2.8346,2.9991,3.0482,3.0048,2.8666,2.8907,2.8972,2.8736,2.9091,2.9231,2.9214,2.9699,2.9783,2.9578,3.0063,3.0049,2.9592,2.9412,2.9314,2.9125,2.7889,2.7297,2.7009,2.6712,2.6602,2.6602,2.6773,2.6884,2.6952,2.7079,2.7146,2.7214,2.7214,2.7315,2.7486,2.8031,2.8734,2.9405,2.9944,3.0529,3.1011,3.1086,3.1048,3.1011,3.1086,3.1123,3.1123,3.1123,3.1123,3.1198,3.1522,3.1853,3.2191,3.2632,3.2952,3.3227,3.3431,3.3709,3.3882,3.3888,3.4094,3.423,3.4264,3.4428,3.4631,3.4868,3.4968,3.5162,3.5457,3.5782,3.6005,3.6005,3.632,3.6538,3.66,3.6938,3.73,3.7716,3.8123,3.8323,3.8323,3.8237,3.8094,2.4614,2.4557,2.4745,0.0,2.4771,0.0,2.5628,2.5722,2.5828,2.6506,0.0,0.0,0.0,0.0,0.0,0.0,0.0,0.0,0.0,0.0,0.0,0.0,0.0,0.0,2.8234,2.7705,2.7496,2.7508,2.7903,2.8399,2.9042,2.9671,2.9616,2.8816,2.8791,2.8895,2.9091,2.9302,2.9521,2.974,3.0068,3.0252,3.0398,3.0859,3.0823,3.0423,3.0414,2.9987,2.9248,2.8928,2.8379,2.7685,2.7027,2.6755,2.6714,2.6943,2.7146,2.7315,2.7315,2.739,2.749,2.749,2.7542,2.7699,2.8307,2.8943,2.9483,3.0059,3.0618,3.1048,3.1235,3.1161,3.1086,3.1272,3.131,3.131,3.131,3.1272,3.131,3.1559,3.1743,3.2073,3.2561,3.2846,3.3058,3.3227,3.3605,3.3813,3.364,3.4088,3.4298,3.4162,3.4496,3.4765,3.4902,3.5067,3.5294,3.5519,3.5782,3.6005,3.6005,3.632,3.6507,3.6507,3.6847,3.7241,3.7655,3.8008,3.8151,3.818,3.7976,3.7889,0.0,0.0,0.0,0.0,0.0,0.0,2.4174,2.4912,2.5628,0.0,0.0,0.0,0.0,0.0,0.0,0.0,0.0,0.0,0.0,0.0,0.0,0.0,0.0,0.0,2.7127,2.7232,2.7368,2.7496,2.9084,2.977,2.9155,2.9671,2.9616,2.8816,2.8791,2.8895,2.9091,2.9302,2.9419,2.9496,3.0392,3.0667,3.0416,3.0976,3.1017,3.0637,3.0457,3.0156,2.9671,2.9434,2.8566,2.741,2.7414,2.7145,2.6748,2.7113,2.7281,2.7315,2.7423,2.749,2.749,2.749,2.7837,2.8333,2.8935,2.951,3.0085,3.0845,3.1156,3.1235,3.1272,3.141,3.1447,3.131,3.131,3.131,3.131,3.1161,3.1187,3.1522,3.1743,3.2036,3.2381,3.2775,3.3023,3.3058,3.3403,3.3709,3.3813,3.4054,3.4196,3.4332,3.4563,3.4765,3.4902,3.5067,3.5294,3.5519,3.5782,3.6005,3.6005,3.632,3.6507,3.6507,3.6938,3.7238,3.7447,3.7685,3.7831,3.7947,3.7918,3.7831,0.0,0.0,0.0,2.6635,0.0,0.0,0.0,2.5244,2.5364,0.0,0.0,0.0,0.0,0.0,0.0,0.0,0.0,0.0,0.0,0.0,0.0,0.0,0.0,0.0,2.7347,2.7373,2.7555,2.7791,2.8762,2.9324,2.9263,2.9559,2.952,2.9106,2.9106,2.9145,2.9223,2.9482,2.9599,2.9599,3.0368,3.0634,3.0558,3.1161,3.1336,3.1152,3.1043,3.0811,3.051,3.022,2.9445,2.8399,2.8298,2.8052,2.7726,2.817,2.8308,2.8256,2.8038,2.7941,2.7915,2.7594,2.7983,2.8654,2.9127,2.9948,3.0792,3.1304,3.1447,3.1485,3.1596,3.1596,3.1559,3.1485,3.1559,3.1532,3.1347,3.1299,3.1336,3.1447,3.1706,3.2036,3.2345,3.2739,3.3023,3.3122,3.3501,3.3779,3.3882,3.4122,3.423,3.423,3.4568,3.4835,3.4902,3.5195,3.5392,3.5519,3.5782,3.6005,3.6005,3.632,3.6507,3.66,3.6846,3.7058,3.7298,3.7419,3.7596,3.7889,3.7831,3.7743,0.0,0.0,0.0,0.0,0.0,2.658,0.0,0.0,0.0,0.0,0.0,0.0,0.0,0.0,0.0,0.0,0.0,0.0,0.0,0.0,0.0,0.0,0.0,0.0,0.0,2.753,2.7672,2.7994,2.8147,2.8537,2.922,2.933,2.9341,2.9419,2.9419,2.9419,2.9457,2.9702,2.9804,2.9804,3.0216,3.0444,3.0546,3.1198,3.1458,3.1384,3.1468,3.1421,3.1161,3.0924,3.0376,2.9625,2.9279,2.8995,2.881,2.9168,2.931,2.9231,2.876,2.8577,2.8525,2.8054,2.8426,2.9169,2.9574,3.0461,3.1384,3.1596,3.1633,3.1706,3.1853,3.178,3.1633,3.1596,3.1706,3.1743,3.1421,3.1485,3.1559,3.1421,3.1716,3.2082,3.2309,3.2704,3.3058,3.329,3.364,3.3882,3.3917,3.4225,3.4332,3.4162,3.4568,3.4868,3.4902,3.5228,3.5457,3.5519,3.5782,3.6005,3.6005,3.632,3.6538,3.6693,3.6723,3.6907,3.7178,3.7238,3.7449,3.7801,3.7716,3.7658,0.0,0.0,0.0,0.0,2.717,0.0,0.0,0.0,2.5159,2.51,0.0,0.0,0.0,0.0,0.0,0.0,0.0,0.0,0.0,0.0,0.0,0.0,0.0,0.0,0.0,2.7017,2.7425,2.7642,2.8371,2.8762,2.8698,2.8977,2.9248,2.938,2.9419,2.9521,2.974,2.9779,2.9804,2.9804,3.0216,3.0216,2.9934,3.071,3.0861,3.0558,3.1123,3.1123,3.0811,3.1086,3.0846,3.0252,2.9848,2.9404,2.8999,2.9203,2.931,2.931,2.9231,2.9205,2.9205,2.9337,2.9883,3.0538,3.094,3.1304,3.1596,3.1817,3.1853,3.1853,3.189,3.189,3.1817,3.1633,3.1596,3.1596,3.1559,3.1559,3.1633,3.1817,3.2119,3.2309,3.2228,3.2632,3.3058,3.329,3.364,3.3951,3.4059,3.4264,3.4366,3.4366,3.4597,3.4798,3.4902,3.51,3.5326,3.5519,3.5782,3.6005,3.6005,3.632,3.6538,3.6693,3.6877,3.7029,3.7178,3.7359,3.751,3.7539,3.7539,3.751,0.0,0.0,0.0,0.0,0.0,0.0,2.6511,0.0,2.551,0.0,0.0,0.0,0.0,0.0,0.0,0.0,2.5123,0.0,0.0,0.0,0.0,0.0,0.0,0.0,0.0,0.0,0.0,0.0,2.7828,2.806,2.8312,2.8673,2.8933,2.9099,2.9424,2.9702,2.9804,2.9804,2.9804,2.9804,2.9972,2.9972,2.9818,3.0368,3.0558,3.0406,3.0672,3.0823,3.0887,3.0785,3.0785,3.0722,3.0563,3.0292,3.001,3.0194,3.0304,3.0215,2.9902,2.9843,2.9987,3.0281,3.0548,3.0832,3.1483,3.1706,3.178,3.189,3.1963,3.2073,3.2073,3.2073,3.2036,3.1963,3.2009,3.2046,3.19,3.1973,3.2046,3.1927,3.2109,3.23,3.2336,3.2909,3.3403,3.3577,3.3819,3.4059,3.423,3.4332,3.4399,3.4399,3.4597,3.4765,3.4902,3.5067,3.5294,3.5519,3.5782,3.6068,3.6289,3.6445,3.6631,3.6877,3.6969,3.7121,3.7359,3.748,3.751,3.751,3.751,3.751,3.1184,0.0,0.0,0.0,0.0,0.0,0.0,0.0,0.0,0.0,0.0,0.0,0.0,0.0,0.0,0.0,0.0,2.4774,0.0,0.0,0.0,0.0,0.0,0.0,0.0,0.0,0.0,0.0,0.0,2.7555,2.8072,2.8313,2.8662,2.9113,2.9428,2.9628,2.9804,2.9856,2.9856,2.9804,2.9856,2.9856,2.9804,3.0216,3.0368,3.033,3.0482,3.071,3.0924,3.0672,3.0748,3.0973,3.0973,3.0962,3.0887,3.1011,3.1086,3.1033,3.0614,3.0629,3.0847,3.1074,3.1146,3.119,3.1756,3.1927,3.1963,3.1963,3.2109,3.2218,3.2218,3.2218,3.2218,3.2218,3.23,3.2345,3.22,3.2309,3.2309,3.2082,3.2191,3.2372,3.2525,3.3051,3.3507,3.3756,3.3991,3.4162,3.4366,3.4399,3.4399,3.4399,3.453,3.4698,3.4902,3.5034,3.5353,3.5889,3.6118,3.6406,3.6784,3.6753,3.6847,3.6999,3.6999,3.7151,3.751,3.751,3.751,3.751,3.751,3.751,0.0,0.0,0.0,3.0041,0.0,0.0,0.0,0.0,2.6919,0.0,0.0,0.0,0.0,0.0,2.5272,2.5467,2.4696,0.0,0.0,0.0,0.0,0.0,0.0,0.0,0.0,0.0,0.0,0.0,0.0,0.0,2.8072,2.7927,2.8425,2.9729,2.9227,2.9227,2.9779,2.9972,2.9972,2.9804,3.0011,2.9972,2.9804,3.0216,3.0292,3.0164,3.071,3.0887,3.0736,3.0924,3.0973,3.0973,3.0973,3.1123,3.1272,3.1272,3.1272,3.131,3.1495,3.168,3.1827,3.1643,3.1827,3.2119,3.1963,3.2036,3.2182,3.2182,3.2218,3.2218,3.2218,3.2218,3.2218,3.2218,3.23,3.2417,3.2381,3.2417,3.2417,3.2381,3.2561,3.2739,3.2952,3.2988,3.3199,3.3722,3.3991,3.4162,3.4366,3.4399,3.4399,3.4399,3.4399,3.4534,3.4868,3.4902,3.5499,3.6882,3.6977,3.714,3.7461,3.7461,3.7311,3.703,3.6999,3.7151,3.751,3.751,3.751,3.751,3.751,3.751,0.0,0.0,3.1774,3.1137,0.0,0.0,0.0,0.0,0.0,0.0,0.0,0.0,0.0,0.0,2.5244,2.53,2.4996,2.4603,0.0,0.0,0.0,0.0,0.0,0.0,0.0,0.0,0.0,0.0,2.6832,0.0,2.6967,2.7623,2.7975,2.7939,2.895,2.9402,2.9227,2.9808,3.0088,3.0011,3.0177,3.0254,3.0177,3.033,3.0368,3.0292,3.052,3.071,3.0924,3.0999,3.1086,3.1198,3.1373,3.1373,3.131,3.131,3.1384,3.1522,3.1743,3.1853,3.189,3.1963,3.2109,3.2182,3.2109,3.2146,3.2218,3.23,3.2309,3.2345,3.2516,3.2525,3.2561,3.2696,3.2775,3.2846,3.298,3.2881,3.2846,3.298,3.2917,3.3092,3.3688,3.3994,3.4136,3.4014,3.4264,3.453,3.4597,3.4597,3.4597,3.4597,3.4597,3.4698,3.4902,3.5133,3.5612,3.6307,3.6339,3.6467,3.6846,3.6846,3.6878,3.6999,3.6999,3.7151,3.751,3.751,3.745,3.73,3.745,3.751,3.5633,3.4647,0.0,3.2374,3.1302,0.0,2.8818,0.0,0.0,0.0,0.0,0.0,0.0,0.0,2.5355,2.5522,2.5097,2.4502,0.0,2.3547,2.35,0.0,0.0,0.0,0.0,0.0,0.0,2.6091,2.6503,2.679,0.0,0.0,2.7676,2.7664,2.8737,2.9249,2.9227,2.9885,3.0177,3.0126,3.0368,3.0444,3.0292,3.0292,3.033,3.0406,3.0406,3.0634,3.1011,3.1161,3.1198,3.1235,3.1559,3.1729,3.1713,3.1575,3.1633,3.1817,3.1963,3.2,3.2036,3.2146,3.2218,3.2218,3.2218,3.2218,3.2218,3.23,3.2345,3.2417,3.2561,3.2704,3.2846,3.2988,3.3058,3.3157,3.329,3.3192,3.3122,3.3086,3.3218,3.3469,3.3952,3.4574,3.4875,3.4387,3.4714,3.4932,3.4727,3.4731,3.4765,3.4698,3.4731,3.4865,3.5001,3.5326,3.5741,3.6307,3.637,3.6529,3.6846,3.6846,3.6878,3.6908,3.6969,3.7121,3.7389,3.748,3.7389,3.7178,3.7329,3.7391]}]]